<?xml version="1.0" encoding="UTF-8" standalone="no" ?>
<gpx xmlns="http://www.topografix.com/GPX/1/1" xmlns:xsi="http://www.w3.org/2001/XMLSchema-instance" xsi:schemaLocation="http://www.topografix.com/GPX/1/1 http://www.topografix.com/GPX/1/1/gpx.xsd" version="1.1" creator="VisuGPX - https://www.visugpx.com">
  <metadata>
    <name>D'Espère à Nuzéjouls</name>
    <desc><![CDATA[Agréable circuit entre Espère et Nuzéjouls, mêlant des chemins ombragés et la visite du charmant village de Nuzéjouls.]]></desc>
  </metadata>
  <trk>
    <name><![CDATA[Espere]]></name>
    <trkseg>
      <trkpt lat="44.51128" lon="1.37666">
        <ele>140</ele>
        <time>2018-06-24T11:58:15Z</time>
      </trkpt>
      <trkpt lat="44.5113" lon="1.37655">
        <ele>141.2</ele>
        <time>2018-06-24T11:58:22Z</time>
      </trkpt>
      <trkpt lat="44.51129" lon="1.37647">
        <ele>141.8</ele>
        <time>2018-06-24T11:58:26Z</time>
      </trkpt>
      <trkpt lat="44.51132" lon="1.37641">
        <ele>142</ele>
        <time>2018-06-24T11:58:30Z</time>
      </trkpt>
      <trkpt lat="44.51136" lon="1.37638">
        <ele>142.1</ele>
        <time>2018-06-24T11:58:34Z</time>
      </trkpt>
      <trkpt lat="44.51141" lon="1.37636">
        <ele>142.1</ele>
        <time>2018-06-24T11:58:38Z</time>
      </trkpt>
      <trkpt lat="44.51146" lon="1.37634">
        <ele>142</ele>
        <time>2018-06-24T11:58:45Z</time>
      </trkpt>
      <trkpt lat="44.5115" lon="1.3763">
        <ele>142.1</ele>
        <time>2018-06-24T11:58:50Z</time>
      </trkpt>
      <trkpt lat="44.51155" lon="1.37628">
        <ele>142.2</ele>
        <time>2018-06-24T11:58:52Z</time>
      </trkpt>
      <trkpt lat="44.5116" lon="1.37626">
        <ele>142.4</ele>
        <time>2018-06-24T11:58:57Z</time>
      </trkpt>
      <trkpt lat="44.51165" lon="1.37626">
        <ele>142.5</ele>
        <time>2018-06-24T11:59:01Z</time>
      </trkpt>
      <trkpt lat="44.5117" lon="1.37624">
        <ele>142.6</ele>
        <time>2018-06-24T11:59:05Z</time>
      </trkpt>
      <trkpt lat="44.51175" lon="1.37622">
        <ele>142.6</ele>
        <time>2018-06-24T11:59:09Z</time>
      </trkpt>
      <trkpt lat="44.5118" lon="1.37621">
        <ele>142.7</ele>
        <time>2018-06-24T11:59:16Z</time>
      </trkpt>
      <trkpt lat="44.51185" lon="1.3762">
        <ele>142.9</ele>
        <time>2018-06-24T11:59:28Z</time>
      </trkpt>
      <trkpt lat="44.5119" lon="1.37619">
        <ele>143.1</ele>
        <time>2018-06-24T11:59:39Z</time>
      </trkpt>
      <trkpt lat="44.51196" lon="1.37619">
        <ele>143.6</ele>
        <time>2018-06-24T11:59:44Z</time>
      </trkpt>
      <trkpt lat="44.512" lon="1.37623">
        <ele>144.3</ele>
        <time>2018-06-24T11:59:51Z</time>
      </trkpt>
      <trkpt lat="44.51202" lon="1.3763">
        <ele>145.1</ele>
        <time>2018-06-24T11:59:58Z</time>
      </trkpt>
      <trkpt lat="44.51203" lon="1.37636">
        <ele>145.9</ele>
        <time>2018-06-24T12:00:02Z</time>
      </trkpt>
      <trkpt lat="44.51205" lon="1.37643">
        <ele>146.8</ele>
        <time>2018-06-24T12:00:07Z</time>
      </trkpt>
      <trkpt lat="44.51205" lon="1.37649">
        <ele>147.6</ele>
        <time>2018-06-24T12:00:11Z</time>
      </trkpt>
      <trkpt lat="44.51207" lon="1.37655">
        <ele>148.4</ele>
        <time>2018-06-24T12:00:15Z</time>
      </trkpt>
      <trkpt lat="44.51211" lon="1.3766">
        <ele>149.3</ele>
        <time>2018-06-24T12:00:20Z</time>
      </trkpt>
      <trkpt lat="44.51214" lon="1.37666">
        <ele>149.9</ele>
        <time>2018-06-24T12:00:25Z</time>
      </trkpt>
      <trkpt lat="44.51215" lon="1.37673">
        <ele>150.5</ele>
        <time>2018-06-24T12:00:29Z</time>
      </trkpt>
      <trkpt lat="44.51215" lon="1.37679">
        <ele>150.8</ele>
        <time>2018-06-24T12:00:34Z</time>
      </trkpt>
      <trkpt lat="44.51217" lon="1.37687">
        <ele>150.9</ele>
        <time>2018-06-24T12:00:40Z</time>
      </trkpt>
      <trkpt lat="44.51219" lon="1.37692">
        <ele>150.9</ele>
        <time>2018-06-24T12:00:45Z</time>
      </trkpt>
      <trkpt lat="44.51221" lon="1.37699">
        <ele>150.8</ele>
        <time>2018-06-24T12:00:50Z</time>
      </trkpt>
      <trkpt lat="44.51222" lon="1.37705">
        <ele>150.6</ele>
        <time>2018-06-24T12:00:54Z</time>
      </trkpt>
      <trkpt lat="44.51225" lon="1.37711">
        <ele>150.5</ele>
        <time>2018-06-24T12:00:59Z</time>
      </trkpt>
      <trkpt lat="44.5123" lon="1.37715">
        <ele>150.4</ele>
        <time>2018-06-24T12:01:04Z</time>
      </trkpt>
      <trkpt lat="44.51233" lon="1.3772">
        <ele>150.5</ele>
        <time>2018-06-24T12:01:10Z</time>
      </trkpt>
      <trkpt lat="44.51237" lon="1.37726">
        <ele>150.6</ele>
        <time>2018-06-24T12:01:15Z</time>
      </trkpt>
      <trkpt lat="44.51238" lon="1.37732">
        <ele>150.8</ele>
        <time>2018-06-24T12:01:18Z</time>
      </trkpt>
      <trkpt lat="44.5124" lon="1.37739">
        <ele>151.1</ele>
        <time>2018-06-24T12:01:22Z</time>
      </trkpt>
      <trkpt lat="44.51242" lon="1.37746">
        <ele>151.4</ele>
        <time>2018-06-24T12:01:27Z</time>
      </trkpt>
      <trkpt lat="44.51246" lon="1.37751">
        <ele>151.7</ele>
        <time>2018-06-24T12:01:34Z</time>
      </trkpt>
      <trkpt lat="44.51248" lon="1.37757">
        <ele>152</ele>
        <time>2018-06-24T12:01:39Z</time>
      </trkpt>
      <trkpt lat="44.51251" lon="1.37761">
        <ele>152.3</ele>
        <time>2018-06-24T12:01:44Z</time>
      </trkpt>
      <trkpt lat="44.51256" lon="1.37767">
        <ele>152.5</ele>
        <time>2018-06-24T12:01:49Z</time>
      </trkpt>
      <trkpt lat="44.51258" lon="1.37775">
        <ele>152.7</ele>
        <time>2018-06-24T12:01:55Z</time>
      </trkpt>
      <trkpt lat="44.51262" lon="1.37781">
        <ele>152.8</ele>
        <time>2018-06-24T12:01:58Z</time>
      </trkpt>
      <trkpt lat="44.51265" lon="1.37787">
        <ele>152.8</ele>
        <time>2018-06-24T12:02:03Z</time>
      </trkpt>
      <trkpt lat="44.5127" lon="1.37789">
        <ele>152.6</ele>
        <time>2018-06-24T12:02:08Z</time>
      </trkpt>
      <trkpt lat="44.51273" lon="1.37794">
        <ele>152.4</ele>
        <time>2018-06-24T12:02:13Z</time>
      </trkpt>
      <trkpt lat="44.51278" lon="1.37797">
        <ele>152.3</ele>
        <time>2018-06-24T12:02:19Z</time>
      </trkpt>
      <trkpt lat="44.51283" lon="1.37798">
        <ele>152.2</ele>
        <time>2018-06-24T12:02:25Z</time>
      </trkpt>
      <trkpt lat="44.51287" lon="1.37802">
        <ele>152.4</ele>
        <time>2018-06-24T12:02:30Z</time>
      </trkpt>
      <trkpt lat="44.51291" lon="1.37806">
        <ele>152.6</ele>
        <time>2018-06-24T12:02:34Z</time>
      </trkpt>
      <trkpt lat="44.51296" lon="1.37811">
        <ele>152.7</ele>
        <time>2018-06-24T12:02:39Z</time>
      </trkpt>
      <trkpt lat="44.513" lon="1.37815">
        <ele>152.8</ele>
        <time>2018-06-24T12:02:44Z</time>
      </trkpt>
      <trkpt lat="44.51304" lon="1.37819">
        <ele>152.7</ele>
        <time>2018-06-24T12:02:49Z</time>
      </trkpt>
      <trkpt lat="44.51307" lon="1.37824">
        <ele>152.5</ele>
        <time>2018-06-24T12:02:52Z</time>
      </trkpt>
      <trkpt lat="44.51311" lon="1.37828">
        <ele>152.4</ele>
        <time>2018-06-24T12:02:57Z</time>
      </trkpt>
      <trkpt lat="44.51316" lon="1.37832">
        <ele>152.3</ele>
        <time>2018-06-24T12:03:04Z</time>
      </trkpt>
      <trkpt lat="44.51321" lon="1.37838">
        <ele>152.3</ele>
        <time>2018-06-24T12:03:10Z</time>
      </trkpt>
      <trkpt lat="44.51325" lon="1.37842">
        <ele>152.3</ele>
        <time>2018-06-24T12:03:13Z</time>
      </trkpt>
      <trkpt lat="44.51329" lon="1.37847">
        <ele>152.3</ele>
        <time>2018-06-24T12:03:19Z</time>
      </trkpt>
      <trkpt lat="44.51333" lon="1.37851">
        <ele>152.3</ele>
        <time>2018-06-24T12:03:23Z</time>
      </trkpt>
      <trkpt lat="44.51337" lon="1.37855">
        <ele>152.3</ele>
        <time>2018-06-24T12:03:29Z</time>
      </trkpt>
      <trkpt lat="44.51341" lon="1.3786">
        <ele>152.3</ele>
        <time>2018-06-24T12:03:33Z</time>
      </trkpt>
      <trkpt lat="44.51344" lon="1.37865">
        <ele>152.4</ele>
        <time>2018-06-24T12:03:39Z</time>
      </trkpt>
      <trkpt lat="44.51348" lon="1.3787">
        <ele>152.6</ele>
        <time>2018-06-24T12:03:43Z</time>
      </trkpt>
      <trkpt lat="44.51351" lon="1.37875">
        <ele>152.6</ele>
        <time>2018-06-24T12:03:49Z</time>
      </trkpt>
      <trkpt lat="44.51354" lon="1.37881">
        <ele>152.4</ele>
        <time>2018-06-24T12:03:55Z</time>
      </trkpt>
      <trkpt lat="44.51358" lon="1.37886">
        <ele>152.2</ele>
        <time>2018-06-24T12:03:59Z</time>
      </trkpt>
      <trkpt lat="44.51362" lon="1.3789">
        <ele>151.8</ele>
        <time>2018-06-24T12:04:02Z</time>
      </trkpt>
      <trkpt lat="44.51367" lon="1.37894">
        <ele>151.5</ele>
        <time>2018-06-24T12:04:08Z</time>
      </trkpt>
      <trkpt lat="44.5137" lon="1.37898">
        <ele>151.2</ele>
        <time>2018-06-24T12:04:14Z</time>
      </trkpt>
      <trkpt lat="44.51375" lon="1.37902">
        <ele>151.1</ele>
        <time>2018-06-24T12:04:18Z</time>
      </trkpt>
      <trkpt lat="44.51379" lon="1.37905">
        <ele>151.1</ele>
        <time>2018-06-24T12:04:22Z</time>
      </trkpt>
      <trkpt lat="44.51383" lon="1.37908">
        <ele>151.2</ele>
        <time>2018-06-24T12:04:26Z</time>
      </trkpt>
      <trkpt lat="44.51387" lon="1.37913">
        <ele>151.2</ele>
        <time>2018-06-24T12:04:32Z</time>
      </trkpt>
      <trkpt lat="44.51391" lon="1.37917">
        <ele>151.2</ele>
        <time>2018-06-24T12:04:37Z</time>
      </trkpt>
      <trkpt lat="44.51395" lon="1.37921">
        <ele>151.2</ele>
        <time>2018-06-24T12:04:41Z</time>
      </trkpt>
      <trkpt lat="44.51399" lon="1.37925">
        <ele>151.1</ele>
        <time>2018-06-24T12:04:45Z</time>
      </trkpt>
      <trkpt lat="44.51403" lon="1.3793">
        <ele>150.9</ele>
        <time>2018-06-24T12:04:50Z</time>
      </trkpt>
      <trkpt lat="44.51407" lon="1.37934">
        <ele>150.7</ele>
        <time>2018-06-24T12:04:55Z</time>
      </trkpt>
      <trkpt lat="44.51411" lon="1.37937">
        <ele>150.6</ele>
        <time>2018-06-24T12:05:00Z</time>
      </trkpt>
      <trkpt lat="44.51416" lon="1.3794">
        <ele>150.4</ele>
        <time>2018-06-24T12:05:05Z</time>
      </trkpt>
      <trkpt lat="44.5142" lon="1.37942">
        <ele>150.2</ele>
        <time>2018-06-24T12:05:09Z</time>
      </trkpt>
      <trkpt lat="44.51424" lon="1.37946">
        <ele>150.1</ele>
        <time>2018-06-24T12:05:13Z</time>
      </trkpt>
      <trkpt lat="44.51429" lon="1.37948">
        <ele>150</ele>
        <time>2018-06-24T12:05:17Z</time>
      </trkpt>
      <trkpt lat="44.51433" lon="1.3795">
        <ele>149.9</ele>
        <time>2018-06-24T12:05:21Z</time>
      </trkpt>
      <trkpt lat="44.51437" lon="1.37953">
        <ele>149.9</ele>
        <time>2018-06-24T12:05:25Z</time>
      </trkpt>
      <trkpt lat="44.51441" lon="1.37957">
        <ele>150</ele>
        <time>2018-06-24T12:05:30Z</time>
      </trkpt>
      <trkpt lat="44.51447" lon="1.3796">
        <ele>150</ele>
        <time>2018-06-24T12:05:35Z</time>
      </trkpt>
      <trkpt lat="44.51452" lon="1.37962">
        <ele>150.1</ele>
        <time>2018-06-24T12:05:40Z</time>
      </trkpt>
      <trkpt lat="44.51456" lon="1.37963">
        <ele>150.1</ele>
        <time>2018-06-24T12:05:43Z</time>
      </trkpt>
      <trkpt lat="44.5146" lon="1.37967">
        <ele>150.1</ele>
        <time>2018-06-24T12:05:48Z</time>
      </trkpt>
      <trkpt lat="44.51465" lon="1.37969">
        <ele>150.1</ele>
        <time>2018-06-24T12:05:54Z</time>
      </trkpt>
      <trkpt lat="44.5147" lon="1.3797">
        <ele>150</ele>
        <time>2018-06-24T12:05:58Z</time>
      </trkpt>
      <trkpt lat="44.51474" lon="1.37972">
        <ele>149.9</ele>
        <time>2018-06-24T12:06:03Z</time>
      </trkpt>
      <trkpt lat="44.51479" lon="1.37974">
        <ele>149.7</ele>
        <time>2018-06-24T12:06:07Z</time>
      </trkpt>
      <trkpt lat="44.51483" lon="1.37978">
        <ele>149.5</ele>
        <time>2018-06-24T12:06:11Z</time>
      </trkpt>
      <trkpt lat="44.51488" lon="1.37982">
        <ele>149.3</ele>
        <time>2018-06-24T12:06:16Z</time>
      </trkpt>
      <trkpt lat="44.51493" lon="1.37984">
        <ele>149</ele>
        <time>2018-06-24T12:06:21Z</time>
      </trkpt>
      <trkpt lat="44.51498" lon="1.37988">
        <ele>148.8</ele>
        <time>2018-06-24T12:06:25Z</time>
      </trkpt>
      <trkpt lat="44.51502" lon="1.37992">
        <ele>148.6</ele>
        <time>2018-06-24T12:06:29Z</time>
      </trkpt>
      <trkpt lat="44.51507" lon="1.37995">
        <ele>148.3</ele>
        <time>2018-06-24T12:06:34Z</time>
      </trkpt>
      <trkpt lat="44.51511" lon="1.37999">
        <ele>147.9</ele>
        <time>2018-06-24T12:06:39Z</time>
      </trkpt>
      <trkpt lat="44.51515" lon="1.38002">
        <ele>147.5</ele>
        <time>2018-06-24T12:06:43Z</time>
      </trkpt>
      <trkpt lat="44.5152" lon="1.38004">
        <ele>146.8</ele>
        <time>2018-06-24T12:06:48Z</time>
      </trkpt>
      <trkpt lat="44.51525" lon="1.38007">
        <ele>146.1</ele>
        <time>2018-06-24T12:06:53Z</time>
      </trkpt>
      <trkpt lat="44.5153" lon="1.38008">
        <ele>145.6</ele>
        <time>2018-06-24T12:06:57Z</time>
      </trkpt>
      <trkpt lat="44.51534" lon="1.3801">
        <ele>145.2</ele>
        <time>2018-06-24T12:07:02Z</time>
      </trkpt>
      <trkpt lat="44.51539" lon="1.38009">
        <ele>145</ele>
        <time>2018-06-24T12:07:16Z</time>
      </trkpt>
      <trkpt lat="44.51543" lon="1.38012">
        <ele>145</ele>
        <time>2018-06-24T12:07:27Z</time>
      </trkpt>
      <trkpt lat="44.51548" lon="1.38014">
        <ele>145.2</ele>
        <time>2018-06-24T12:07:49Z</time>
      </trkpt>
      <trkpt lat="44.51553" lon="1.38016">
        <ele>145.3</ele>
        <time>2018-06-24T12:07:53Z</time>
      </trkpt>
      <trkpt lat="44.51558" lon="1.38018">
        <ele>145.4</ele>
        <time>2018-06-24T12:07:57Z</time>
      </trkpt>
      <trkpt lat="44.51563" lon="1.38018">
        <ele>145.6</ele>
        <time>2018-06-24T12:08:02Z</time>
      </trkpt>
      <trkpt lat="44.51567" lon="1.3802">
        <ele>145.7</ele>
        <time>2018-06-24T12:08:06Z</time>
      </trkpt>
      <trkpt lat="44.51572" lon="1.38021">
        <ele>145.8</ele>
        <time>2018-06-24T12:08:11Z</time>
      </trkpt>
      <trkpt lat="44.51577" lon="1.38022">
        <ele>145.9</ele>
        <time>2018-06-24T12:08:16Z</time>
      </trkpt>
      <trkpt lat="44.51581" lon="1.38024">
        <ele>145.9</ele>
        <time>2018-06-24T12:08:21Z</time>
      </trkpt>
      <trkpt lat="44.51587" lon="1.38026">
        <ele>145.8</ele>
        <time>2018-06-24T12:08:25Z</time>
      </trkpt>
      <trkpt lat="44.51592" lon="1.38027">
        <ele>145.6</ele>
        <time>2018-06-24T12:08:29Z</time>
      </trkpt>
      <trkpt lat="44.51598" lon="1.38027">
        <ele>145.3</ele>
        <time>2018-06-24T12:08:33Z</time>
      </trkpt>
      <trkpt lat="44.51602" lon="1.38027">
        <ele>145.1</ele>
        <time>2018-06-24T12:08:37Z</time>
      </trkpt>
      <trkpt lat="44.51608" lon="1.38027">
        <ele>144.9</ele>
        <time>2018-06-24T12:08:41Z</time>
      </trkpt>
      <trkpt lat="44.51613" lon="1.3803">
        <ele>144.8</ele>
        <time>2018-06-24T12:08:45Z</time>
      </trkpt>
      <trkpt lat="44.51617" lon="1.38031">
        <ele>144.9</ele>
        <time>2018-06-24T12:08:50Z</time>
      </trkpt>
      <trkpt lat="44.51623" lon="1.38031">
        <ele>145.2</ele>
        <time>2018-06-24T12:08:55Z</time>
      </trkpt>
      <trkpt lat="44.51627" lon="1.38031">
        <ele>145.6</ele>
        <time>2018-06-24T12:09:00Z</time>
      </trkpt>
      <trkpt lat="44.51633" lon="1.38032">
        <ele>145.9</ele>
        <time>2018-06-24T12:09:05Z</time>
      </trkpt>
      <trkpt lat="44.51638" lon="1.38032">
        <ele>146.1</ele>
        <time>2018-06-24T12:09:10Z</time>
      </trkpt>
      <trkpt lat="44.51643" lon="1.38032">
        <ele>146.3</ele>
        <time>2018-06-24T12:09:15Z</time>
      </trkpt>
      <trkpt lat="44.51648" lon="1.38034">
        <ele>146.4</ele>
        <time>2018-06-24T12:09:19Z</time>
      </trkpt>
      <trkpt lat="44.51653" lon="1.38034">
        <ele>146.5</ele>
        <time>2018-06-24T12:09:25Z</time>
      </trkpt>
      <trkpt lat="44.51659" lon="1.38035">
        <ele>146.7</ele>
        <time>2018-06-24T12:09:29Z</time>
      </trkpt>
      <trkpt lat="44.51664" lon="1.38036">
        <ele>147</ele>
        <time>2018-06-24T12:09:33Z</time>
      </trkpt>
      <trkpt lat="44.51668" lon="1.38036">
        <ele>147.1</ele>
        <time>2018-06-24T12:09:36Z</time>
      </trkpt>
      <trkpt lat="44.51673" lon="1.38036">
        <ele>147.3</ele>
        <time>2018-06-24T12:09:41Z</time>
      </trkpt>
      <trkpt lat="44.51678" lon="1.38034">
        <ele>147.4</ele>
        <time>2018-06-24T12:09:46Z</time>
      </trkpt>
      <trkpt lat="44.51683" lon="1.38034">
        <ele>147.5</ele>
        <time>2018-06-24T12:09:50Z</time>
      </trkpt>
      <trkpt lat="44.51688" lon="1.38033">
        <ele>147.6</ele>
        <time>2018-06-24T12:09:54Z</time>
      </trkpt>
      <trkpt lat="44.51692" lon="1.38034">
        <ele>147.6</ele>
        <time>2018-06-24T12:09:58Z</time>
      </trkpt>
      <trkpt lat="44.51698" lon="1.38031">
        <ele>147.6</ele>
        <time>2018-06-24T12:10:02Z</time>
      </trkpt>
      <trkpt lat="44.51702" lon="1.38031">
        <ele>147.5</ele>
        <time>2018-06-24T12:10:06Z</time>
      </trkpt>
      <trkpt lat="44.51708" lon="1.38031">
        <ele>147.5</ele>
        <time>2018-06-24T12:10:11Z</time>
      </trkpt>
      <trkpt lat="44.51713" lon="1.38031">
        <ele>147.4</ele>
        <time>2018-06-24T12:10:15Z</time>
      </trkpt>
      <trkpt lat="44.51719" lon="1.38033">
        <ele>147.4</ele>
        <time>2018-06-24T12:10:19Z</time>
      </trkpt>
      <trkpt lat="44.51723" lon="1.38035">
        <ele>147.3</ele>
        <time>2018-06-24T12:10:22Z</time>
      </trkpt>
      <trkpt lat="44.51728" lon="1.38037">
        <ele>147.2</ele>
        <time>2018-06-24T12:10:26Z</time>
      </trkpt>
      <trkpt lat="44.51733" lon="1.38038">
        <ele>147.2</ele>
        <time>2018-06-24T12:10:30Z</time>
      </trkpt>
      <trkpt lat="44.51738" lon="1.3804">
        <ele>147.1</ele>
        <time>2018-06-24T12:10:34Z</time>
      </trkpt>
      <trkpt lat="44.51742" lon="1.38043">
        <ele>147.2</ele>
        <time>2018-06-24T12:10:39Z</time>
      </trkpt>
      <trkpt lat="44.51747" lon="1.38048">
        <ele>147.3</ele>
        <time>2018-06-24T12:10:44Z</time>
      </trkpt>
      <trkpt lat="44.51752" lon="1.38051">
        <ele>147.4</ele>
        <time>2018-06-24T12:10:53Z</time>
      </trkpt>
      <trkpt lat="44.51757" lon="1.38049">
        <ele>147.7</ele>
        <time>2018-06-24T12:11:00Z</time>
      </trkpt>
      <trkpt lat="44.51762" lon="1.38048">
        <ele>148</ele>
        <time>2018-06-24T12:11:04Z</time>
      </trkpt>
      <trkpt lat="44.51766" lon="1.38044">
        <ele>148.1</ele>
        <time>2018-06-24T12:11:08Z</time>
      </trkpt>
      <trkpt lat="44.51769" lon="1.38039">
        <ele>148.5</ele>
        <time>2018-06-24T12:11:15Z</time>
      </trkpt>
      <trkpt lat="44.5177" lon="1.38033">
        <ele>148.9</ele>
        <time>2018-06-24T12:11:23Z</time>
      </trkpt>
      <trkpt lat="44.51775" lon="1.38029">
        <ele>149.3</ele>
        <time>2018-06-24T12:11:31Z</time>
      </trkpt>
      <trkpt lat="44.51778" lon="1.38024">
        <ele>149.8</ele>
        <time>2018-06-24T12:11:36Z</time>
      </trkpt>
      <trkpt lat="44.5178" lon="1.38017">
        <ele>150.6</ele>
        <time>2018-06-24T12:11:46Z</time>
      </trkpt>
      <trkpt lat="44.51784" lon="1.38013">
        <ele>151.3</ele>
        <time>2018-06-24T12:11:53Z</time>
      </trkpt>
      <trkpt lat="44.51786" lon="1.38007">
        <ele>152.1</ele>
        <time>2018-06-24T12:12:00Z</time>
      </trkpt>
      <trkpt lat="44.5179" lon="1.38002">
        <ele>152.9</ele>
        <time>2018-06-24T12:12:03Z</time>
      </trkpt>
      <trkpt lat="44.51794" lon="1.37998">
        <ele>153.9</ele>
        <time>2018-06-24T12:12:09Z</time>
      </trkpt>
      <trkpt lat="44.51797" lon="1.37993">
        <ele>154.7</ele>
        <time>2018-06-24T12:12:16Z</time>
      </trkpt>
      <trkpt lat="44.51799" lon="1.37987">
        <ele>155.5</ele>
        <time>2018-06-24T12:12:23Z</time>
      </trkpt>
      <trkpt lat="44.51802" lon="1.37982">
        <ele>156.3</ele>
        <time>2018-06-24T12:12:28Z</time>
      </trkpt>
      <trkpt lat="44.51804" lon="1.37976">
        <ele>157.2</ele>
        <time>2018-06-24T12:12:34Z</time>
      </trkpt>
      <trkpt lat="44.51808" lon="1.37972">
        <ele>158.3</ele>
        <time>2018-06-24T12:12:38Z</time>
      </trkpt>
      <trkpt lat="44.51812" lon="1.37968">
        <ele>159.4</ele>
        <time>2018-06-24T12:12:42Z</time>
      </trkpt>
      <trkpt lat="44.51815" lon="1.37963">
        <ele>160.6</ele>
        <time>2018-06-24T12:12:51Z</time>
      </trkpt>
      <trkpt lat="44.51819" lon="1.37959">
        <ele>161.8</ele>
        <time>2018-06-24T12:13:00Z</time>
      </trkpt>
      <trkpt lat="44.51823" lon="1.37955">
        <ele>162.8</ele>
        <time>2018-06-24T12:13:06Z</time>
      </trkpt>
      <trkpt lat="44.51828" lon="1.37953">
        <ele>163.6</ele>
        <time>2018-06-24T12:13:13Z</time>
      </trkpt>
      <trkpt lat="44.51831" lon="1.37948">
        <ele>164.3</ele>
        <time>2018-06-24T12:13:21Z</time>
      </trkpt>
      <trkpt lat="44.51835" lon="1.37945">
        <ele>164.9</ele>
        <time>2018-06-24T12:13:26Z</time>
      </trkpt>
      <trkpt lat="44.51839" lon="1.37942">
        <ele>165.5</ele>
        <time>2018-06-24T12:13:34Z</time>
      </trkpt>
      <trkpt lat="44.51843" lon="1.37939">
        <ele>166</ele>
        <time>2018-06-24T12:13:40Z</time>
      </trkpt>
      <trkpt lat="44.51846" lon="1.37934">
        <ele>166.7</ele>
        <time>2018-06-24T12:13:48Z</time>
      </trkpt>
      <trkpt lat="44.51851" lon="1.37931">
        <ele>167.4</ele>
        <time>2018-06-24T12:13:54Z</time>
      </trkpt>
      <trkpt lat="44.51854" lon="1.37926">
        <ele>168.1</ele>
        <time>2018-06-24T12:13:59Z</time>
      </trkpt>
      <trkpt lat="44.51858" lon="1.37923">
        <ele>168.7</ele>
        <time>2018-06-24T12:14:05Z</time>
      </trkpt>
      <trkpt lat="44.51862" lon="1.37919">
        <ele>169.3</ele>
        <time>2018-06-24T12:14:11Z</time>
      </trkpt>
      <trkpt lat="44.51867" lon="1.37916">
        <ele>170.1</ele>
        <time>2018-06-24T12:14:20Z</time>
      </trkpt>
      <trkpt lat="44.51871" lon="1.37916">
        <ele>170.9</ele>
        <time>2018-06-24T12:14:27Z</time>
      </trkpt>
      <trkpt lat="44.51876" lon="1.37911">
        <ele>171.6</ele>
        <time>2018-06-24T12:14:35Z</time>
      </trkpt>
      <trkpt lat="44.51881" lon="1.37907">
        <ele>172.5</ele>
        <time>2018-06-24T12:14:42Z</time>
      </trkpt>
      <trkpt lat="44.51885" lon="1.37904">
        <ele>173.4</ele>
        <time>2018-06-24T12:14:50Z</time>
      </trkpt>
      <trkpt lat="44.51889" lon="1.37901">
        <ele>174.1</ele>
        <time>2018-06-24T12:14:56Z</time>
      </trkpt>
      <trkpt lat="44.51893" lon="1.37899">
        <ele>174.6</ele>
        <time>2018-06-24T12:14:59Z</time>
      </trkpt>
      <trkpt lat="44.51897" lon="1.37896">
        <ele>175.1</ele>
        <time>2018-06-24T12:15:05Z</time>
      </trkpt>
      <trkpt lat="44.51902" lon="1.37893">
        <ele>175.3</ele>
        <time>2018-06-24T12:15:15Z</time>
      </trkpt>
      <trkpt lat="44.51907" lon="1.3789">
        <ele>175.3</ele>
        <time>2018-06-24T12:15:21Z</time>
      </trkpt>
      <trkpt lat="44.51911" lon="1.37887">
        <ele>175.4</ele>
        <time>2018-06-24T12:15:26Z</time>
      </trkpt>
      <trkpt lat="44.51915" lon="1.37884">
        <ele>175.6</ele>
        <time>2018-06-24T12:15:29Z</time>
      </trkpt>
      <trkpt lat="44.51921" lon="1.37881">
        <ele>176.1</ele>
        <time>2018-06-24T12:15:35Z</time>
      </trkpt>
      <trkpt lat="44.51926" lon="1.3788">
        <ele>176.7</ele>
        <time>2018-06-24T12:15:42Z</time>
      </trkpt>
      <trkpt lat="44.51931" lon="1.37879">
        <ele>177.5</ele>
        <time>2018-06-24T12:15:48Z</time>
      </trkpt>
      <trkpt lat="44.51936" lon="1.3788">
        <ele>178.4</ele>
        <time>2018-06-24T12:15:54Z</time>
      </trkpt>
      <trkpt lat="44.51941" lon="1.3788">
        <ele>179.2</ele>
        <time>2018-06-24T12:15:59Z</time>
      </trkpt>
      <trkpt lat="44.51946" lon="1.37877">
        <ele>179.9</ele>
        <time>2018-06-24T12:16:03Z</time>
      </trkpt>
      <trkpt lat="44.5195" lon="1.37875">
        <ele>180.7</ele>
        <time>2018-06-24T12:16:09Z</time>
      </trkpt>
      <trkpt lat="44.51955" lon="1.37871">
        <ele>181.6</ele>
        <time>2018-06-24T12:16:14Z</time>
      </trkpt>
      <trkpt lat="44.5196" lon="1.37869">
        <ele>182.6</ele>
        <time>2018-06-24T12:16:20Z</time>
      </trkpt>
      <trkpt lat="44.51964" lon="1.37868">
        <ele>183.5</ele>
        <time>2018-06-24T12:16:25Z</time>
      </trkpt>
      <trkpt lat="44.51969" lon="1.37867">
        <ele>184.6</ele>
        <time>2018-06-24T12:16:30Z</time>
      </trkpt>
      <trkpt lat="44.51974" lon="1.37867">
        <ele>185.9</ele>
        <time>2018-06-24T12:16:39Z</time>
      </trkpt>
      <trkpt lat="44.51979" lon="1.37867">
        <ele>187.2</ele>
        <time>2018-06-24T12:16:44Z</time>
      </trkpt>
      <trkpt lat="44.51984" lon="1.37864">
        <ele>188.5</ele>
        <time>2018-06-24T12:16:51Z</time>
      </trkpt>
      <trkpt lat="44.5199" lon="1.37863">
        <ele>189.9</ele>
        <time>2018-06-24T12:16:58Z</time>
      </trkpt>
      <trkpt lat="44.51994" lon="1.37865">
        <ele>191.3</ele>
        <time>2018-06-24T12:17:05Z</time>
      </trkpt>
      <trkpt lat="44.51999" lon="1.37865">
        <ele>192.5</ele>
        <time>2018-06-24T12:17:09Z</time>
      </trkpt>
      <trkpt lat="44.52004" lon="1.37867">
        <ele>193.6</ele>
        <time>2018-06-24T12:17:13Z</time>
      </trkpt>
      <trkpt lat="44.52009" lon="1.37868">
        <ele>194.8</ele>
        <time>2018-06-24T12:17:19Z</time>
      </trkpt>
      <trkpt lat="44.52014" lon="1.37867">
        <ele>195.7</ele>
        <time>2018-06-24T12:17:25Z</time>
      </trkpt>
      <trkpt lat="44.52019" lon="1.37868">
        <ele>196.6</ele>
        <time>2018-06-24T12:17:29Z</time>
      </trkpt>
      <trkpt lat="44.52024" lon="1.37869">
        <ele>197.5</ele>
        <time>2018-06-24T12:17:35Z</time>
      </trkpt>
      <trkpt lat="44.52029" lon="1.37869">
        <ele>198.4</ele>
        <time>2018-06-24T12:17:40Z</time>
      </trkpt>
      <trkpt lat="44.52034" lon="1.37868">
        <ele>199.3</ele>
        <time>2018-06-24T12:17:44Z</time>
      </trkpt>
      <trkpt lat="44.52039" lon="1.37868">
        <ele>200.4</ele>
        <time>2018-06-24T12:17:49Z</time>
      </trkpt>
      <trkpt lat="44.52044" lon="1.37867">
        <ele>201.5</ele>
        <time>2018-06-24T12:17:53Z</time>
      </trkpt>
      <trkpt lat="44.52049" lon="1.37868">
        <ele>202.6</ele>
        <time>2018-06-24T12:17:59Z</time>
      </trkpt>
      <trkpt lat="44.52054" lon="1.37868">
        <ele>203.5</ele>
        <time>2018-06-24T12:18:05Z</time>
      </trkpt>
      <trkpt lat="44.52059" lon="1.37868">
        <ele>204.3</ele>
        <time>2018-06-24T12:18:10Z</time>
      </trkpt>
      <trkpt lat="44.52064" lon="1.37868">
        <ele>205</ele>
        <time>2018-06-24T12:18:17Z</time>
      </trkpt>
      <trkpt lat="44.5207" lon="1.37869">
        <ele>205.6</ele>
        <time>2018-06-24T12:18:22Z</time>
      </trkpt>
      <trkpt lat="44.52075" lon="1.37871">
        <ele>206.2</ele>
        <time>2018-06-24T12:18:26Z</time>
      </trkpt>
      <trkpt lat="44.5208" lon="1.37872">
        <ele>206.7</ele>
        <time>2018-06-24T12:18:30Z</time>
      </trkpt>
      <trkpt lat="44.52084" lon="1.37874">
        <ele>207.2</ele>
        <time>2018-06-24T12:18:35Z</time>
      </trkpt>
      <trkpt lat="44.52089" lon="1.37875">
        <ele>207.6</ele>
        <time>2018-06-24T12:18:42Z</time>
      </trkpt>
      <trkpt lat="44.52094" lon="1.37877">
        <ele>207.9</ele>
        <time>2018-06-24T12:18:47Z</time>
      </trkpt>
      <trkpt lat="44.52099" lon="1.37878">
        <ele>208.1</ele>
        <time>2018-06-24T12:18:52Z</time>
      </trkpt>
      <trkpt lat="44.52103" lon="1.37881">
        <ele>208.4</ele>
        <time>2018-06-24T12:18:58Z</time>
      </trkpt>
      <trkpt lat="44.52108" lon="1.37883">
        <ele>208.8</ele>
        <time>2018-06-24T12:19:03Z</time>
      </trkpt>
      <trkpt lat="44.52113" lon="1.37885">
        <ele>209.1</ele>
        <time>2018-06-24T12:19:07Z</time>
      </trkpt>
      <trkpt lat="44.52118" lon="1.37886">
        <ele>209.4</ele>
        <time>2018-06-24T12:19:11Z</time>
      </trkpt>
      <trkpt lat="44.52123" lon="1.37888">
        <ele>209.6</ele>
        <time>2018-06-24T12:19:16Z</time>
      </trkpt>
      <trkpt lat="44.52127" lon="1.37891">
        <ele>209.9</ele>
        <time>2018-06-24T12:19:22Z</time>
      </trkpt>
      <trkpt lat="44.52133" lon="1.37893">
        <ele>210.1</ele>
        <time>2018-06-24T12:19:27Z</time>
      </trkpt>
      <trkpt lat="44.52138" lon="1.37894">
        <ele>210.4</ele>
        <time>2018-06-24T12:19:32Z</time>
      </trkpt>
      <trkpt lat="44.52144" lon="1.37895">
        <ele>210.8</ele>
        <time>2018-06-24T12:19:38Z</time>
      </trkpt>
      <trkpt lat="44.52149" lon="1.37893">
        <ele>211.3</ele>
        <time>2018-06-24T12:19:44Z</time>
      </trkpt>
      <trkpt lat="44.52153" lon="1.37893">
        <ele>211.9</ele>
        <time>2018-06-24T12:19:50Z</time>
      </trkpt>
      <trkpt lat="44.52159" lon="1.37893">
        <ele>212.4</ele>
        <time>2018-06-24T12:19:54Z</time>
      </trkpt>
      <trkpt lat="44.52164" lon="1.37893">
        <ele>212.9</ele>
        <time>2018-06-24T12:19:59Z</time>
      </trkpt>
      <trkpt lat="44.52169" lon="1.37891">
        <ele>213.3</ele>
        <time>2018-06-24T12:20:04Z</time>
      </trkpt>
      <trkpt lat="44.52174" lon="1.37891">
        <ele>213.6</ele>
        <time>2018-06-24T12:20:11Z</time>
      </trkpt>
      <trkpt lat="44.5218" lon="1.37891">
        <ele>213.8</ele>
        <time>2018-06-24T12:20:16Z</time>
      </trkpt>
      <trkpt lat="44.52185" lon="1.3789">
        <ele>214.1</ele>
        <time>2018-06-24T12:20:22Z</time>
      </trkpt>
      <trkpt lat="44.5219" lon="1.3789">
        <ele>214.4</ele>
        <time>2018-06-24T12:20:26Z</time>
      </trkpt>
      <trkpt lat="44.52196" lon="1.37888">
        <ele>214.7</ele>
        <time>2018-06-24T12:20:31Z</time>
      </trkpt>
      <trkpt lat="44.52201" lon="1.37887">
        <ele>214.9</ele>
        <time>2018-06-24T12:20:34Z</time>
      </trkpt>
      <trkpt lat="44.52206" lon="1.37887">
        <ele>215.2</ele>
        <time>2018-06-24T12:20:39Z</time>
      </trkpt>
      <trkpt lat="44.5221" lon="1.37886">
        <ele>215.4</ele>
        <time>2018-06-24T12:20:45Z</time>
      </trkpt>
      <trkpt lat="44.52216" lon="1.37887">
        <ele>215.6</ele>
        <time>2018-06-24T12:20:51Z</time>
      </trkpt>
      <trkpt lat="44.5222" lon="1.37888">
        <ele>215.8</ele>
        <time>2018-06-24T12:20:55Z</time>
      </trkpt>
      <trkpt lat="44.52225" lon="1.37888">
        <ele>216.1</ele>
        <time>2018-06-24T12:20:59Z</time>
      </trkpt>
      <trkpt lat="44.5223" lon="1.37887">
        <ele>216.4</ele>
        <time>2018-06-24T12:21:05Z</time>
      </trkpt>
      <trkpt lat="44.52235" lon="1.37887">
        <ele>216.6</ele>
        <time>2018-06-24T12:21:10Z</time>
      </trkpt>
      <trkpt lat="44.5224" lon="1.37887">
        <ele>216.8</ele>
        <time>2018-06-24T12:21:14Z</time>
      </trkpt>
      <trkpt lat="44.52245" lon="1.37887">
        <ele>217</ele>
        <time>2018-06-24T12:21:18Z</time>
      </trkpt>
      <trkpt lat="44.5225" lon="1.37885">
        <ele>217.2</ele>
        <time>2018-06-24T12:21:23Z</time>
      </trkpt>
      <trkpt lat="44.52255" lon="1.37884">
        <ele>217.4</ele>
        <time>2018-06-24T12:21:28Z</time>
      </trkpt>
      <trkpt lat="44.52259" lon="1.37883">
        <ele>217.5</ele>
        <time>2018-06-24T12:21:34Z</time>
      </trkpt>
      <trkpt lat="44.52264" lon="1.37883">
        <ele>217.8</ele>
        <time>2018-06-24T12:21:39Z</time>
      </trkpt>
      <trkpt lat="44.52269" lon="1.37882">
        <ele>218.1</ele>
        <time>2018-06-24T12:21:45Z</time>
      </trkpt>
      <trkpt lat="44.52275" lon="1.37881">
        <ele>218.4</ele>
        <time>2018-06-24T12:21:49Z</time>
      </trkpt>
      <trkpt lat="44.5228" lon="1.37882">
        <ele>218.8</ele>
        <time>2018-06-24T12:21:55Z</time>
      </trkpt>
      <trkpt lat="44.52285" lon="1.37881">
        <ele>219.3</ele>
        <time>2018-06-24T12:21:59Z</time>
      </trkpt>
      <trkpt lat="44.5229" lon="1.37879">
        <ele>219.8</ele>
        <time>2018-06-24T12:22:05Z</time>
      </trkpt>
      <trkpt lat="44.52294" lon="1.37876">
        <ele>220.3</ele>
        <time>2018-06-24T12:22:09Z</time>
      </trkpt>
      <trkpt lat="44.52299" lon="1.37873">
        <ele>220.8</ele>
        <time>2018-06-24T12:22:13Z</time>
      </trkpt>
      <trkpt lat="44.52304" lon="1.3787">
        <ele>221.4</ele>
        <time>2018-06-24T12:22:20Z</time>
      </trkpt>
      <trkpt lat="44.52308" lon="1.37866">
        <ele>221.9</ele>
        <time>2018-06-24T12:22:26Z</time>
      </trkpt>
      <trkpt lat="44.52313" lon="1.37863">
        <ele>222.5</ele>
        <time>2018-06-24T12:22:33Z</time>
      </trkpt>
      <trkpt lat="44.52317" lon="1.3786">
        <ele>222.9</ele>
        <time>2018-06-24T12:22:37Z</time>
      </trkpt>
      <trkpt lat="44.52321" lon="1.37857">
        <ele>223.4</ele>
        <time>2018-06-24T12:22:41Z</time>
      </trkpt>
      <trkpt lat="44.52326" lon="1.37853">
        <ele>223.9</ele>
        <time>2018-06-24T12:22:47Z</time>
      </trkpt>
      <trkpt lat="44.5233" lon="1.37851">
        <ele>224.4</ele>
        <time>2018-06-24T12:22:53Z</time>
      </trkpt>
      <trkpt lat="44.52334" lon="1.37847">
        <ele>224.9</ele>
        <time>2018-06-24T12:22:58Z</time>
      </trkpt>
      <trkpt lat="44.52338" lon="1.37842">
        <ele>225.5</ele>
        <time>2018-06-24T12:23:05Z</time>
      </trkpt>
      <trkpt lat="44.52343" lon="1.37839">
        <ele>226</ele>
        <time>2018-06-24T12:23:11Z</time>
      </trkpt>
      <trkpt lat="44.52348" lon="1.37834">
        <ele>226.9</ele>
        <time>2018-06-24T12:23:17Z</time>
      </trkpt>
      <trkpt lat="44.52351" lon="1.3783">
        <ele>227.8</ele>
        <time>2018-06-24T12:23:24Z</time>
      </trkpt>
      <trkpt lat="44.52356" lon="1.37828">
        <ele>229.3</ele>
        <time>2018-06-24T12:23:36Z</time>
      </trkpt>
      <trkpt lat="44.52358" lon="1.37822">
        <ele>230.8</ele>
        <time>2018-06-24T12:23:50Z</time>
      </trkpt>
      <trkpt lat="44.52354" lon="1.37824">
        <ele>232.4</ele>
        <time>2018-06-24T12:25:13Z</time>
      </trkpt>
      <trkpt lat="44.52355" lon="1.37818">
        <ele>233.7</ele>
        <time>2018-06-24T12:27:35Z</time>
      </trkpt>
      <trkpt lat="44.52356" lon="1.37812">
        <ele>234.9</ele>
        <time>2018-06-24T12:31:52Z</time>
      </trkpt>
      <trkpt lat="44.52359" lon="1.37806">
        <ele>235.4</ele>
        <time>2018-06-24T12:31:57Z</time>
      </trkpt>
      <trkpt lat="44.52362" lon="1.37803">
        <ele>235.9</ele>
        <time>2018-06-24T12:32:02Z</time>
      </trkpt>
      <trkpt lat="44.52364" lon="1.37796">
        <ele>236.1</ele>
        <time>2018-06-24T12:32:09Z</time>
      </trkpt>
      <trkpt lat="44.52365" lon="1.3779">
        <ele>236.2</ele>
        <time>2018-06-24T12:32:18Z</time>
      </trkpt>
      <trkpt lat="44.52368" lon="1.37784">
        <ele>236</ele>
        <time>2018-06-24T12:32:25Z</time>
      </trkpt>
      <trkpt lat="44.52372" lon="1.3778">
        <ele>235.7</ele>
        <time>2018-06-24T12:32:28Z</time>
      </trkpt>
      <trkpt lat="44.52376" lon="1.37774">
        <ele>235.4</ele>
        <time>2018-06-24T12:32:35Z</time>
      </trkpt>
      <trkpt lat="44.52378" lon="1.37769">
        <ele>235.2</ele>
        <time>2018-06-24T12:32:43Z</time>
      </trkpt>
      <trkpt lat="44.52381" lon="1.37764">
        <ele>235.2</ele>
        <time>2018-06-24T12:32:50Z</time>
      </trkpt>
      <trkpt lat="44.52383" lon="1.37758">
        <ele>235.4</ele>
        <time>2018-06-24T12:32:55Z</time>
      </trkpt>
      <trkpt lat="44.52387" lon="1.37751">
        <ele>235.7</ele>
        <time>2018-06-24T12:33:00Z</time>
      </trkpt>
      <trkpt lat="44.52388" lon="1.37744">
        <ele>236.2</ele>
        <time>2018-06-24T12:33:05Z</time>
      </trkpt>
      <trkpt lat="44.52389" lon="1.37736">
        <ele>236.7</ele>
        <time>2018-06-24T12:33:09Z</time>
      </trkpt>
      <trkpt lat="44.52391" lon="1.37729">
        <ele>237.4</ele>
        <time>2018-06-24T12:33:14Z</time>
      </trkpt>
      <trkpt lat="44.52395" lon="1.37724">
        <ele>238.1</ele>
        <time>2018-06-24T12:33:19Z</time>
      </trkpt>
      <trkpt lat="44.524" lon="1.3772">
        <ele>239</ele>
        <time>2018-06-24T12:33:27Z</time>
      </trkpt>
      <trkpt lat="44.52404" lon="1.37716">
        <ele>239.9</ele>
        <time>2018-06-24T12:33:33Z</time>
      </trkpt>
      <trkpt lat="44.52408" lon="1.37712">
        <ele>240.8</ele>
        <time>2018-06-24T12:33:39Z</time>
      </trkpt>
      <trkpt lat="44.52411" lon="1.37707">
        <ele>241.6</ele>
        <time>2018-06-24T12:33:44Z</time>
      </trkpt>
      <trkpt lat="44.52413" lon="1.37701">
        <ele>242.3</ele>
        <time>2018-06-24T12:33:50Z</time>
      </trkpt>
      <trkpt lat="44.52416" lon="1.37697">
        <ele>242.9</ele>
        <time>2018-06-24T12:33:56Z</time>
      </trkpt>
      <trkpt lat="44.5242" lon="1.37693">
        <ele>243.5</ele>
        <time>2018-06-24T12:34:02Z</time>
      </trkpt>
      <trkpt lat="44.52425" lon="1.3769">
        <ele>244.2</ele>
        <time>2018-06-24T12:34:07Z</time>
      </trkpt>
      <trkpt lat="44.52429" lon="1.37685">
        <ele>244.9</ele>
        <time>2018-06-24T12:34:13Z</time>
      </trkpt>
      <trkpt lat="44.52434" lon="1.37682">
        <ele>245.7</ele>
        <time>2018-06-24T12:34:19Z</time>
      </trkpt>
      <trkpt lat="44.52439" lon="1.3768">
        <ele>246.7</ele>
        <time>2018-06-24T12:34:24Z</time>
      </trkpt>
      <trkpt lat="44.52443" lon="1.37678">
        <ele>247.6</ele>
        <time>2018-06-24T12:34:30Z</time>
      </trkpt>
      <trkpt lat="44.52447" lon="1.37677">
        <ele>248.5</ele>
        <time>2018-06-24T12:34:36Z</time>
      </trkpt>
      <trkpt lat="44.52453" lon="1.37673">
        <ele>249.2</ele>
        <time>2018-06-24T12:34:40Z</time>
      </trkpt>
      <trkpt lat="44.52457" lon="1.37669">
        <ele>249.9</ele>
        <time>2018-06-24T12:34:47Z</time>
      </trkpt>
      <trkpt lat="44.52461" lon="1.37663">
        <ele>250.5</ele>
        <time>2018-06-24T12:34:51Z</time>
      </trkpt>
      <trkpt lat="44.52465" lon="1.3766">
        <ele>251</ele>
        <time>2018-06-24T12:34:56Z</time>
      </trkpt>
      <trkpt lat="44.52469" lon="1.37656">
        <ele>251.4</ele>
        <time>2018-06-24T12:35:01Z</time>
      </trkpt>
      <trkpt lat="44.52474" lon="1.37655">
        <ele>251.9</ele>
        <time>2018-06-24T12:35:06Z</time>
      </trkpt>
      <trkpt lat="44.52478" lon="1.37653">
        <ele>252.4</ele>
        <time>2018-06-24T12:35:12Z</time>
      </trkpt>
      <trkpt lat="44.52482" lon="1.37648">
        <ele>252.8</ele>
        <time>2018-06-24T12:35:17Z</time>
      </trkpt>
      <trkpt lat="44.52486" lon="1.37642">
        <ele>253.2</ele>
        <time>2018-06-24T12:35:22Z</time>
      </trkpt>
      <trkpt lat="44.52488" lon="1.37637">
        <ele>253.5</ele>
        <time>2018-06-24T12:35:27Z</time>
      </trkpt>
      <trkpt lat="44.5249" lon="1.37629">
        <ele>253.8</ele>
        <time>2018-06-24T12:35:32Z</time>
      </trkpt>
      <trkpt lat="44.52493" lon="1.37623">
        <ele>254.1</ele>
        <time>2018-06-24T12:35:38Z</time>
      </trkpt>
      <trkpt lat="44.52496" lon="1.37618">
        <ele>254.4</ele>
        <time>2018-06-24T12:35:43Z</time>
      </trkpt>
      <trkpt lat="44.52499" lon="1.37613">
        <ele>254.7</ele>
        <time>2018-06-24T12:35:51Z</time>
      </trkpt>
      <trkpt lat="44.52503" lon="1.37608">
        <ele>255</ele>
        <time>2018-06-24T12:35:55Z</time>
      </trkpt>
      <trkpt lat="44.52505" lon="1.37602">
        <ele>255.3</ele>
        <time>2018-06-24T12:36:00Z</time>
      </trkpt>
      <trkpt lat="44.52508" lon="1.37596">
        <ele>255.6</ele>
        <time>2018-06-24T12:36:05Z</time>
      </trkpt>
      <trkpt lat="44.52511" lon="1.37592">
        <ele>255.9</ele>
        <time>2018-06-24T12:36:09Z</time>
      </trkpt>
      <trkpt lat="44.52513" lon="1.37586">
        <ele>256.2</ele>
        <time>2018-06-24T12:36:13Z</time>
      </trkpt>
      <trkpt lat="44.52517" lon="1.37582">
        <ele>256.4</ele>
        <time>2018-06-24T12:36:20Z</time>
      </trkpt>
      <trkpt lat="44.5252" lon="1.37576">
        <ele>256.6</ele>
        <time>2018-06-24T12:36:25Z</time>
      </trkpt>
      <trkpt lat="44.52522" lon="1.3757">
        <ele>256.7</ele>
        <time>2018-06-24T12:36:31Z</time>
      </trkpt>
      <trkpt lat="44.52525" lon="1.37565">
        <ele>256.8</ele>
        <time>2018-06-24T12:36:39Z</time>
      </trkpt>
      <trkpt lat="44.52527" lon="1.37559">
        <ele>256.8</ele>
        <time>2018-06-24T12:36:44Z</time>
      </trkpt>
      <trkpt lat="44.52528" lon="1.37553">
        <ele>256.8</ele>
        <time>2018-06-24T12:36:49Z</time>
      </trkpt>
      <trkpt lat="44.52532" lon="1.37548">
        <ele>256.7</ele>
        <time>2018-06-24T12:37:01Z</time>
      </trkpt>
      <trkpt lat="44.52533" lon="1.37541">
        <ele>256.6</ele>
        <time>2018-06-24T12:37:06Z</time>
      </trkpt>
      <trkpt lat="44.52532" lon="1.37533">
        <ele>256.4</ele>
        <time>2018-06-24T12:37:11Z</time>
      </trkpt>
      <trkpt lat="44.52533" lon="1.37524">
        <ele>256.3</ele>
        <time>2018-06-24T12:37:16Z</time>
      </trkpt>
      <trkpt lat="44.52534" lon="1.37517">
        <ele>256.2</ele>
        <time>2018-06-24T12:37:20Z</time>
      </trkpt>
      <trkpt lat="44.52537" lon="1.37511">
        <ele>256.1</ele>
        <time>2018-06-24T12:37:24Z</time>
      </trkpt>
      <trkpt lat="44.52539" lon="1.37505">
        <ele>256.1</ele>
        <time>2018-06-24T12:37:30Z</time>
      </trkpt>
      <trkpt lat="44.5254" lon="1.37498">
        <ele>256</ele>
        <time>2018-06-24T12:37:35Z</time>
      </trkpt>
      <trkpt lat="44.52542" lon="1.3749">
        <ele>255.9</ele>
        <time>2018-06-24T12:37:38Z</time>
      </trkpt>
      <trkpt lat="44.52542" lon="1.37483">
        <ele>255.7</ele>
        <time>2018-06-24T12:37:44Z</time>
      </trkpt>
      <trkpt lat="44.52544" lon="1.37476">
        <ele>255.4</ele>
        <time>2018-06-24T12:38:31Z</time>
      </trkpt>
      <trkpt lat="44.52545" lon="1.37469">
        <ele>255.1</ele>
        <time>2018-06-24T12:38:36Z</time>
      </trkpt>
      <trkpt lat="44.52546" lon="1.37462">
        <ele>254.8</ele>
        <time>2018-06-24T12:38:42Z</time>
      </trkpt>
      <trkpt lat="44.52546" lon="1.37455">
        <ele>254.4</ele>
        <time>2018-06-24T12:38:46Z</time>
      </trkpt>
      <trkpt lat="44.52547" lon="1.37449">
        <ele>254.1</ele>
        <time>2018-06-24T12:38:50Z</time>
      </trkpt>
      <trkpt lat="44.52548" lon="1.37441">
        <ele>253.9</ele>
        <time>2018-06-24T12:38:54Z</time>
      </trkpt>
      <trkpt lat="44.52548" lon="1.37434">
        <ele>253.8</ele>
        <time>2018-06-24T12:38:57Z</time>
      </trkpt>
      <trkpt lat="44.52547" lon="1.37427">
        <ele>253.7</ele>
        <time>2018-06-24T12:39:02Z</time>
      </trkpt>
      <trkpt lat="44.52546" lon="1.37421">
        <ele>253.6</ele>
        <time>2018-06-24T12:39:06Z</time>
      </trkpt>
      <trkpt lat="44.52546" lon="1.37413">
        <ele>253.5</ele>
        <time>2018-06-24T12:39:10Z</time>
      </trkpt>
      <trkpt lat="44.52546" lon="1.37405">
        <ele>253.2</ele>
        <time>2018-06-24T12:39:14Z</time>
      </trkpt>
      <trkpt lat="44.52546" lon="1.37398">
        <ele>253</ele>
        <time>2018-06-24T12:39:18Z</time>
      </trkpt>
      <trkpt lat="44.52545" lon="1.37392">
        <ele>252.7</ele>
        <time>2018-06-24T12:39:22Z</time>
      </trkpt>
      <trkpt lat="44.52543" lon="1.37386">
        <ele>252.3</ele>
        <time>2018-06-24T12:39:28Z</time>
      </trkpt>
      <trkpt lat="44.52541" lon="1.37378">
        <ele>252.1</ele>
        <time>2018-06-24T12:39:33Z</time>
      </trkpt>
      <trkpt lat="44.52541" lon="1.3737">
        <ele>251.8</ele>
        <time>2018-06-24T12:39:38Z</time>
      </trkpt>
      <trkpt lat="44.52541" lon="1.37362">
        <ele>251.7</ele>
        <time>2018-06-24T12:39:42Z</time>
      </trkpt>
      <trkpt lat="44.5254" lon="1.37356">
        <ele>251.6</ele>
        <time>2018-06-24T12:39:47Z</time>
      </trkpt>
      <trkpt lat="44.52539" lon="1.37349">
        <ele>251.7</ele>
        <time>2018-06-24T12:39:52Z</time>
      </trkpt>
      <trkpt lat="44.52539" lon="1.37341">
        <ele>251.9</ele>
        <time>2018-06-24T12:39:56Z</time>
      </trkpt>
      <trkpt lat="44.5254" lon="1.37334">
        <ele>252.1</ele>
        <time>2018-06-24T12:40:00Z</time>
      </trkpt>
      <trkpt lat="44.52542" lon="1.37326">
        <ele>252.3</ele>
        <time>2018-06-24T12:40:05Z</time>
      </trkpt>
      <trkpt lat="44.52542" lon="1.37319">
        <ele>252.4</ele>
        <time>2018-06-24T12:40:10Z</time>
      </trkpt>
      <trkpt lat="44.52543" lon="1.37311">
        <ele>252.6</ele>
        <time>2018-06-24T12:40:15Z</time>
      </trkpt>
      <trkpt lat="44.52544" lon="1.37304">
        <ele>252.6</ele>
        <time>2018-06-24T12:40:19Z</time>
      </trkpt>
      <trkpt lat="44.52547" lon="1.37299">
        <ele>252.7</ele>
        <time>2018-06-24T12:40:25Z</time>
      </trkpt>
      <trkpt lat="44.52548" lon="1.37293">
        <ele>252.7</ele>
        <time>2018-06-24T12:40:30Z</time>
      </trkpt>
      <trkpt lat="44.52549" lon="1.37286">
        <ele>252.6</ele>
        <time>2018-06-24T12:40:36Z</time>
      </trkpt>
      <trkpt lat="44.52548" lon="1.37279">
        <ele>252.6</ele>
        <time>2018-06-24T12:40:39Z</time>
      </trkpt>
      <trkpt lat="44.52549" lon="1.37272">
        <ele>252.6</ele>
        <time>2018-06-24T12:40:43Z</time>
      </trkpt>
      <trkpt lat="44.52552" lon="1.37267">
        <ele>252.7</ele>
        <time>2018-06-24T12:40:47Z</time>
      </trkpt>
      <trkpt lat="44.52553" lon="1.3726">
        <ele>252.7</ele>
        <time>2018-06-24T12:40:50Z</time>
      </trkpt>
      <trkpt lat="44.52554" lon="1.37252">
        <ele>252.8</ele>
        <time>2018-06-24T12:40:56Z</time>
      </trkpt>
      <trkpt lat="44.52554" lon="1.37244">
        <ele>252.9</ele>
        <time>2018-06-24T12:40:59Z</time>
      </trkpt>
      <trkpt lat="44.52554" lon="1.37238">
        <ele>253.1</ele>
        <time>2018-06-24T12:41:04Z</time>
      </trkpt>
      <trkpt lat="44.52555" lon="1.37231">
        <ele>253.2</ele>
        <time>2018-06-24T12:41:10Z</time>
      </trkpt>
      <trkpt lat="44.52559" lon="1.37228">
        <ele>253.3</ele>
        <time>2018-06-24T12:41:17Z</time>
      </trkpt>
      <trkpt lat="44.52563" lon="1.37231">
        <ele>253.5</ele>
        <time>2018-06-24T12:41:22Z</time>
      </trkpt>
      <trkpt lat="44.52568" lon="1.37231">
        <ele>253.7</ele>
        <time>2018-06-24T12:41:27Z</time>
      </trkpt>
      <trkpt lat="44.52573" lon="1.37233">
        <ele>253.9</ele>
        <time>2018-06-24T12:41:32Z</time>
      </trkpt>
      <trkpt lat="44.52578" lon="1.37233">
        <ele>254.2</ele>
        <time>2018-06-24T12:41:37Z</time>
      </trkpt>
      <trkpt lat="44.52583" lon="1.37237">
        <ele>254.4</ele>
        <time>2018-06-24T12:41:44Z</time>
      </trkpt>
      <trkpt lat="44.52587" lon="1.3724">
        <ele>254.7</ele>
        <time>2018-06-24T12:41:49Z</time>
      </trkpt>
      <trkpt lat="44.52592" lon="1.37243">
        <ele>255</ele>
        <time>2018-06-24T12:41:54Z</time>
      </trkpt>
      <trkpt lat="44.52597" lon="1.37245">
        <ele>255.4</ele>
        <time>2018-06-24T12:41:58Z</time>
      </trkpt>
      <trkpt lat="44.52602" lon="1.37248">
        <ele>255.7</ele>
        <time>2018-06-24T12:42:03Z</time>
      </trkpt>
      <trkpt lat="44.52607" lon="1.37248">
        <ele>256</ele>
        <time>2018-06-24T12:42:06Z</time>
      </trkpt>
      <trkpt lat="44.52612" lon="1.37249">
        <ele>256.2</ele>
        <time>2018-06-24T12:42:11Z</time>
      </trkpt>
      <trkpt lat="44.52616" lon="1.37251">
        <ele>256.2</ele>
        <time>2018-06-24T12:42:16Z</time>
      </trkpt>
      <trkpt lat="44.52622" lon="1.37253">
        <ele>256</ele>
        <time>2018-06-24T12:42:20Z</time>
      </trkpt>
      <trkpt lat="44.52626" lon="1.37257">
        <ele>255.6</ele>
        <time>2018-06-24T12:42:24Z</time>
      </trkpt>
      <trkpt lat="44.52628" lon="1.37263">
        <ele>255</ele>
        <time>2018-06-24T12:42:29Z</time>
      </trkpt>
      <trkpt lat="44.52631" lon="1.37268">
        <ele>254.3</ele>
        <time>2018-06-24T12:42:34Z</time>
      </trkpt>
      <trkpt lat="44.52635" lon="1.37272">
        <ele>253.5</ele>
        <time>2018-06-24T12:42:41Z</time>
      </trkpt>
      <trkpt lat="44.5264" lon="1.37274">
        <ele>252.9</ele>
        <time>2018-06-24T12:42:45Z</time>
      </trkpt>
      <trkpt lat="44.52645" lon="1.37275">
        <ele>252.2</ele>
        <time>2018-06-24T12:42:49Z</time>
      </trkpt>
      <trkpt lat="44.52649" lon="1.37276">
        <ele>251.5</ele>
        <time>2018-06-24T12:42:54Z</time>
      </trkpt>
      <trkpt lat="44.52654" lon="1.37277">
        <ele>250.8</ele>
        <time>2018-06-24T12:42:58Z</time>
      </trkpt>
      <trkpt lat="44.52659" lon="1.3728">
        <ele>250</ele>
        <time>2018-06-24T12:43:03Z</time>
      </trkpt>
      <trkpt lat="44.52664" lon="1.37283">
        <ele>249.2</ele>
        <time>2018-06-24T12:43:08Z</time>
      </trkpt>
      <trkpt lat="44.52669" lon="1.37283">
        <ele>248.4</ele>
        <time>2018-06-24T12:43:13Z</time>
      </trkpt>
      <trkpt lat="44.52674" lon="1.37284">
        <ele>247.6</ele>
        <time>2018-06-24T12:43:17Z</time>
      </trkpt>
      <trkpt lat="44.52679" lon="1.37284">
        <ele>247</ele>
        <time>2018-06-24T12:43:20Z</time>
      </trkpt>
      <trkpt lat="44.52684" lon="1.37284">
        <ele>246.5</ele>
        <time>2018-06-24T12:43:23Z</time>
      </trkpt>
      <trkpt lat="44.52689" lon="1.37283">
        <ele>246</ele>
        <time>2018-06-24T12:43:27Z</time>
      </trkpt>
      <trkpt lat="44.52694" lon="1.37284">
        <ele>245.5</ele>
        <time>2018-06-24T12:43:33Z</time>
      </trkpt>
      <trkpt lat="44.52699" lon="1.37285">
        <ele>245.2</ele>
        <time>2018-06-24T12:43:37Z</time>
      </trkpt>
      <trkpt lat="44.52704" lon="1.37284">
        <ele>244.8</ele>
        <time>2018-06-24T12:43:41Z</time>
      </trkpt>
      <trkpt lat="44.52709" lon="1.37284">
        <ele>244.4</ele>
        <time>2018-06-24T12:43:46Z</time>
      </trkpt>
      <trkpt lat="44.52714" lon="1.37284">
        <ele>244.2</ele>
        <time>2018-06-24T12:43:50Z</time>
      </trkpt>
      <trkpt lat="44.52719" lon="1.37282">
        <ele>244</ele>
        <time>2018-06-24T12:43:55Z</time>
      </trkpt>
      <trkpt lat="44.52725" lon="1.37281">
        <ele>243.8</ele>
        <time>2018-06-24T12:44:01Z</time>
      </trkpt>
      <trkpt lat="44.5273" lon="1.3728">
        <ele>243.7</ele>
        <time>2018-06-24T12:44:07Z</time>
      </trkpt>
      <trkpt lat="44.52735" lon="1.37279">
        <ele>243.6</ele>
        <time>2018-06-24T12:44:13Z</time>
      </trkpt>
      <trkpt lat="44.5274" lon="1.3728">
        <ele>243.5</ele>
        <time>2018-06-24T12:44:17Z</time>
      </trkpt>
      <trkpt lat="44.52747" lon="1.37281">
        <ele>243.3</ele>
        <time>2018-06-24T12:44:22Z</time>
      </trkpt>
      <trkpt lat="44.52752" lon="1.37283">
        <ele>243.2</ele>
        <time>2018-06-24T12:44:26Z</time>
      </trkpt>
      <trkpt lat="44.52757" lon="1.37284">
        <ele>243.1</ele>
        <time>2018-06-24T12:44:32Z</time>
      </trkpt>
      <trkpt lat="44.52762" lon="1.37286">
        <ele>243.1</ele>
        <time>2018-06-24T12:44:36Z</time>
      </trkpt>
      <trkpt lat="44.52766" lon="1.37286">
        <ele>243.3</ele>
        <time>2018-06-24T12:44:39Z</time>
      </trkpt>
      <trkpt lat="44.52771" lon="1.37289">
        <ele>243.7</ele>
        <time>2018-06-24T12:44:43Z</time>
      </trkpt>
      <trkpt lat="44.52776" lon="1.3729">
        <ele>244.3</ele>
        <time>2018-06-24T12:44:49Z</time>
      </trkpt>
      <trkpt lat="44.5278" lon="1.37289">
        <ele>245.1</ele>
        <time>2018-06-24T12:44:56Z</time>
      </trkpt>
      <trkpt lat="44.52786" lon="1.37288">
        <ele>246.2</ele>
        <time>2018-06-24T12:45:01Z</time>
      </trkpt>
      <trkpt lat="44.52792" lon="1.37285">
        <ele>247.3</ele>
        <time>2018-06-24T12:45:06Z</time>
      </trkpt>
      <trkpt lat="44.52796" lon="1.37283">
        <ele>248.4</ele>
        <time>2018-06-24T12:45:10Z</time>
      </trkpt>
      <trkpt lat="44.52801" lon="1.37281">
        <ele>249.4</ele>
        <time>2018-06-24T12:45:15Z</time>
      </trkpt>
      <trkpt lat="44.52806" lon="1.3728">
        <ele>250</ele>
        <time>2018-06-24T12:45:21Z</time>
      </trkpt>
      <trkpt lat="44.52811" lon="1.37278">
        <ele>250.5</ele>
        <time>2018-06-24T12:45:25Z</time>
      </trkpt>
      <trkpt lat="44.52816" lon="1.37277">
        <ele>250.8</ele>
        <time>2018-06-24T12:45:29Z</time>
      </trkpt>
      <trkpt lat="44.5282" lon="1.37273">
        <ele>251</ele>
        <time>2018-06-24T12:45:33Z</time>
      </trkpt>
      <trkpt lat="44.52825" lon="1.37273">
        <ele>251.1</ele>
        <time>2018-06-24T12:45:38Z</time>
      </trkpt>
      <trkpt lat="44.5283" lon="1.37273">
        <ele>251.2</ele>
        <time>2018-06-24T12:45:43Z</time>
      </trkpt>
      <trkpt lat="44.52836" lon="1.37272">
        <ele>251</ele>
        <time>2018-06-24T12:45:47Z</time>
      </trkpt>
      <trkpt lat="44.52841" lon="1.3727">
        <ele>250.9</ele>
        <time>2018-06-24T12:45:50Z</time>
      </trkpt>
      <trkpt lat="44.52847" lon="1.37268">
        <ele>250.7</ele>
        <time>2018-06-24T12:45:53Z</time>
      </trkpt>
      <trkpt lat="44.52851" lon="1.37265">
        <ele>250.7</ele>
        <time>2018-06-24T12:45:57Z</time>
      </trkpt>
      <trkpt lat="44.52857" lon="1.37263">
        <ele>250.6</ele>
        <time>2018-06-24T12:46:05Z</time>
      </trkpt>
      <trkpt lat="44.52861" lon="1.37261">
        <ele>250.7</ele>
        <time>2018-06-24T12:46:08Z</time>
      </trkpt>
      <trkpt lat="44.52866" lon="1.37259">
        <ele>250.7</ele>
        <time>2018-06-24T12:46:14Z</time>
      </trkpt>
      <trkpt lat="44.52871" lon="1.37256">
        <ele>250.6</ele>
        <time>2018-06-24T12:46:21Z</time>
      </trkpt>
      <trkpt lat="44.52875" lon="1.37253">
        <ele>250.5</ele>
        <time>2018-06-24T12:46:24Z</time>
      </trkpt>
      <trkpt lat="44.52879" lon="1.3725">
        <ele>250.3</ele>
        <time>2018-06-24T12:46:27Z</time>
      </trkpt>
      <trkpt lat="44.52884" lon="1.37248">
        <ele>250</ele>
        <time>2018-06-24T12:46:32Z</time>
      </trkpt>
      <trkpt lat="44.52889" lon="1.37247">
        <ele>249.7</ele>
        <time>2018-06-24T12:46:36Z</time>
      </trkpt>
      <trkpt lat="44.52893" lon="1.37246">
        <ele>249.2</ele>
        <time>2018-06-24T12:46:40Z</time>
      </trkpt>
      <trkpt lat="44.52899" lon="1.37245">
        <ele>248.7</ele>
        <time>2018-06-24T12:46:45Z</time>
      </trkpt>
      <trkpt lat="44.52904" lon="1.37245">
        <ele>248.1</ele>
        <time>2018-06-24T12:46:50Z</time>
      </trkpt>
      <trkpt lat="44.52909" lon="1.37245">
        <ele>247.5</ele>
        <time>2018-06-24T12:46:53Z</time>
      </trkpt>
      <trkpt lat="44.52914" lon="1.37246">
        <ele>246.9</ele>
        <time>2018-06-24T12:46:57Z</time>
      </trkpt>
      <trkpt lat="44.5292" lon="1.37248">
        <ele>246.4</ele>
        <time>2018-06-24T12:47:01Z</time>
      </trkpt>
      <trkpt lat="44.52925" lon="1.37249">
        <ele>245.9</ele>
        <time>2018-06-24T12:47:07Z</time>
      </trkpt>
      <trkpt lat="44.5293" lon="1.37248">
        <ele>245.5</ele>
        <time>2018-06-24T12:47:10Z</time>
      </trkpt>
      <trkpt lat="44.52936" lon="1.37251">
        <ele>245.1</ele>
        <time>2018-06-24T12:47:16Z</time>
      </trkpt>
      <trkpt lat="44.5294" lon="1.37253">
        <ele>244.8</ele>
        <time>2018-06-24T12:47:21Z</time>
      </trkpt>
      <trkpt lat="44.52945" lon="1.37253">
        <ele>244.5</ele>
        <time>2018-06-24T12:47:24Z</time>
      </trkpt>
      <trkpt lat="44.52951" lon="1.37252">
        <ele>244.1</ele>
        <time>2018-06-24T12:47:29Z</time>
      </trkpt>
      <trkpt lat="44.52955" lon="1.37252">
        <ele>243.5</ele>
        <time>2018-06-24T12:47:32Z</time>
      </trkpt>
      <trkpt lat="44.5296" lon="1.37251">
        <ele>242.9</ele>
        <time>2018-06-24T12:47:35Z</time>
      </trkpt>
      <trkpt lat="44.52966" lon="1.37251">
        <ele>242.2</ele>
        <time>2018-06-24T12:47:40Z</time>
      </trkpt>
      <trkpt lat="44.52971" lon="1.3725">
        <ele>241.6</ele>
        <time>2018-06-24T12:47:45Z</time>
      </trkpt>
      <trkpt lat="44.52976" lon="1.3725">
        <ele>240.9</ele>
        <time>2018-06-24T12:47:49Z</time>
      </trkpt>
      <trkpt lat="44.52981" lon="1.37249">
        <ele>240.4</ele>
        <time>2018-06-24T12:47:55Z</time>
      </trkpt>
      <trkpt lat="44.52986" lon="1.3725">
        <ele>240.1</ele>
        <time>2018-06-24T12:47:59Z</time>
      </trkpt>
      <trkpt lat="44.52991" lon="1.37252">
        <ele>239.7</ele>
        <time>2018-06-24T12:48:03Z</time>
      </trkpt>
      <trkpt lat="44.52996" lon="1.37254">
        <ele>239.5</ele>
        <time>2018-06-24T12:48:08Z</time>
      </trkpt>
      <trkpt lat="44.53001" lon="1.37255">
        <ele>239.4</ele>
        <time>2018-06-24T12:48:13Z</time>
      </trkpt>
      <trkpt lat="44.53005" lon="1.37256">
        <ele>239.3</ele>
        <time>2018-06-24T12:48:17Z</time>
      </trkpt>
      <trkpt lat="44.5301" lon="1.37256">
        <ele>239.2</ele>
        <time>2018-06-24T12:48:22Z</time>
      </trkpt>
      <trkpt lat="44.53015" lon="1.37258">
        <ele>239.1</ele>
        <time>2018-06-24T12:48:27Z</time>
      </trkpt>
      <trkpt lat="44.5302" lon="1.37259">
        <ele>239</ele>
        <time>2018-06-24T12:48:33Z</time>
      </trkpt>
      <trkpt lat="44.53026" lon="1.37259">
        <ele>238.8</ele>
        <time>2018-06-24T12:48:40Z</time>
      </trkpt>
      <trkpt lat="44.53031" lon="1.37259">
        <ele>238.8</ele>
        <time>2018-06-24T12:48:44Z</time>
      </trkpt>
      <trkpt lat="44.53037" lon="1.3726">
        <ele>238.8</ele>
        <time>2018-06-24T12:48:48Z</time>
      </trkpt>
      <trkpt lat="44.53041" lon="1.37263">
        <ele>239</ele>
        <time>2018-06-24T12:48:52Z</time>
      </trkpt>
      <trkpt lat="44.53046" lon="1.37263">
        <ele>239.2</ele>
        <time>2018-06-24T12:49:08Z</time>
      </trkpt>
      <trkpt lat="44.5305" lon="1.37262">
        <ele>239.5</ele>
        <time>2018-06-24T12:52:16Z</time>
      </trkpt>
      <trkpt lat="44.53055" lon="1.37265">
        <ele>239.7</ele>
        <time>2018-06-24T12:52:20Z</time>
      </trkpt>
      <trkpt lat="44.53059" lon="1.37268">
        <ele>239.9</ele>
        <time>2018-06-24T12:52:33Z</time>
      </trkpt>
      <trkpt lat="44.53063" lon="1.37271">
        <ele>240.2</ele>
        <time>2018-06-24T12:52:43Z</time>
      </trkpt>
      <trkpt lat="44.53068" lon="1.37272">
        <ele>240.5</ele>
        <time>2018-06-24T12:52:49Z</time>
      </trkpt>
      <trkpt lat="44.53074" lon="1.37272">
        <ele>240.8</ele>
        <time>2018-06-24T12:52:52Z</time>
      </trkpt>
      <trkpt lat="44.53079" lon="1.37273">
        <ele>241.2</ele>
        <time>2018-06-24T12:52:54Z</time>
      </trkpt>
      <trkpt lat="44.53085" lon="1.37273">
        <ele>241.3</ele>
        <time>2018-06-24T12:52:58Z</time>
      </trkpt>
      <trkpt lat="44.53089" lon="1.37272">
        <ele>241.1</ele>
        <time>2018-06-24T12:53:04Z</time>
      </trkpt>
      <trkpt lat="44.53093" lon="1.37268">
        <ele>240.8</ele>
        <time>2018-06-24T12:53:09Z</time>
      </trkpt>
      <trkpt lat="44.53097" lon="1.37264">
        <ele>240.3</ele>
        <time>2018-06-24T12:53:25Z</time>
      </trkpt>
      <trkpt lat="44.53099" lon="1.37257">
        <ele>239.8</ele>
        <time>2018-06-24T12:53:35Z</time>
      </trkpt>
      <trkpt lat="44.53101" lon="1.3725">
        <ele>239.3</ele>
        <time>2018-06-24T12:53:39Z</time>
      </trkpt>
      <trkpt lat="44.53104" lon="1.37243">
        <ele>239</ele>
        <time>2018-06-24T12:53:43Z</time>
      </trkpt>
      <trkpt lat="44.53106" lon="1.37237">
        <ele>238.7</ele>
        <time>2018-06-24T12:53:51Z</time>
      </trkpt>
      <trkpt lat="44.53109" lon="1.37231">
        <ele>238.6</ele>
        <time>2018-06-24T12:53:54Z</time>
      </trkpt>
      <trkpt lat="44.53112" lon="1.37224">
        <ele>238.5</ele>
        <time>2018-06-24T12:53:59Z</time>
      </trkpt>
      <trkpt lat="44.53114" lon="1.37218">
        <ele>238.5</ele>
        <time>2018-06-24T12:54:04Z</time>
      </trkpt>
      <trkpt lat="44.53117" lon="1.37211">
        <ele>238.6</ele>
        <time>2018-06-24T12:54:09Z</time>
      </trkpt>
      <trkpt lat="44.5312" lon="1.37206">
        <ele>238.7</ele>
        <time>2018-06-24T12:54:15Z</time>
      </trkpt>
      <trkpt lat="44.53123" lon="1.37199">
        <ele>238.7</ele>
        <time>2018-06-24T12:54:21Z</time>
      </trkpt>
      <trkpt lat="44.53126" lon="1.37192">
        <ele>238.8</ele>
        <time>2018-06-24T12:54:26Z</time>
      </trkpt>
      <trkpt lat="44.53129" lon="1.37186">
        <ele>238.8</ele>
        <time>2018-06-24T12:54:31Z</time>
      </trkpt>
      <trkpt lat="44.53133" lon="1.3718">
        <ele>238.8</ele>
        <time>2018-06-24T12:54:35Z</time>
      </trkpt>
      <trkpt lat="44.53136" lon="1.37175">
        <ele>238.8</ele>
        <time>2018-06-24T12:54:40Z</time>
      </trkpt>
      <trkpt lat="44.53138" lon="1.37168">
        <ele>238.8</ele>
        <time>2018-06-24T12:54:47Z</time>
      </trkpt>
      <trkpt lat="44.53141" lon="1.37163">
        <ele>238.9</ele>
        <time>2018-06-24T12:54:52Z</time>
      </trkpt>
      <trkpt lat="44.53143" lon="1.37157">
        <ele>239</ele>
        <time>2018-06-24T12:54:56Z</time>
      </trkpt>
      <trkpt lat="44.53146" lon="1.3715">
        <ele>239.2</ele>
        <time>2018-06-24T12:55:00Z</time>
      </trkpt>
      <trkpt lat="44.5315" lon="1.37146">
        <ele>239.4</ele>
        <time>2018-06-24T12:55:06Z</time>
      </trkpt>
      <trkpt lat="44.53153" lon="1.3714">
        <ele>239.5</ele>
        <time>2018-06-24T12:55:12Z</time>
      </trkpt>
      <trkpt lat="44.53158" lon="1.37137">
        <ele>239.6</ele>
        <time>2018-06-24T12:55:17Z</time>
      </trkpt>
      <trkpt lat="44.53163" lon="1.37133">
        <ele>239.6</ele>
        <time>2018-06-24T12:55:23Z</time>
      </trkpt>
      <trkpt lat="44.53167" lon="1.3713">
        <ele>239.5</ele>
        <time>2018-06-24T12:55:27Z</time>
      </trkpt>
      <trkpt lat="44.53171" lon="1.37127">
        <ele>239.3</ele>
        <time>2018-06-24T12:55:31Z</time>
      </trkpt>
      <trkpt lat="44.53176" lon="1.37123">
        <ele>239.1</ele>
        <time>2018-06-24T12:55:39Z</time>
      </trkpt>
      <trkpt lat="44.53181" lon="1.3712">
        <ele>238.7</ele>
        <time>2018-06-24T12:55:44Z</time>
      </trkpt>
      <trkpt lat="44.53185" lon="1.37117">
        <ele>238.2</ele>
        <time>2018-06-24T12:55:48Z</time>
      </trkpt>
      <trkpt lat="44.53189" lon="1.37113">
        <ele>237.6</ele>
        <time>2018-06-24T12:55:53Z</time>
      </trkpt>
      <trkpt lat="44.53193" lon="1.37109">
        <ele>237.1</ele>
        <time>2018-06-24T12:55:57Z</time>
      </trkpt>
      <trkpt lat="44.53198" lon="1.37107">
        <ele>236.5</ele>
        <time>2018-06-24T12:56:02Z</time>
      </trkpt>
      <trkpt lat="44.53203" lon="1.37103">
        <ele>236.1</ele>
        <time>2018-06-24T12:56:06Z</time>
      </trkpt>
      <trkpt lat="44.53207" lon="1.371">
        <ele>235.7</ele>
        <time>2018-06-24T12:56:14Z</time>
      </trkpt>
      <trkpt lat="44.53212" lon="1.37096">
        <ele>235.5</ele>
        <time>2018-06-24T12:56:18Z</time>
      </trkpt>
      <trkpt lat="44.53215" lon="1.37093">
        <ele>235.4</ele>
        <time>2018-06-24T12:56:22Z</time>
      </trkpt>
      <trkpt lat="44.53219" lon="1.37089">
        <ele>235.5</ele>
        <time>2018-06-24T12:56:26Z</time>
      </trkpt>
      <trkpt lat="44.53222" lon="1.37084">
        <ele>235.8</ele>
        <time>2018-06-24T12:56:30Z</time>
      </trkpt>
      <trkpt lat="44.53225" lon="1.37078">
        <ele>236.2</ele>
        <time>2018-06-24T12:56:35Z</time>
      </trkpt>
      <trkpt lat="44.53228" lon="1.37073">
        <ele>236.6</ele>
        <time>2018-06-24T12:56:40Z</time>
      </trkpt>
      <trkpt lat="44.53232" lon="1.37069">
        <ele>237</ele>
        <time>2018-06-24T12:56:45Z</time>
      </trkpt>
      <trkpt lat="44.53237" lon="1.37066">
        <ele>237.4</ele>
        <time>2018-06-24T12:56:49Z</time>
      </trkpt>
      <trkpt lat="44.53241" lon="1.37061">
        <ele>237.7</ele>
        <time>2018-06-24T12:56:53Z</time>
      </trkpt>
      <trkpt lat="44.53245" lon="1.37058">
        <ele>238.1</ele>
        <time>2018-06-24T12:56:58Z</time>
      </trkpt>
      <trkpt lat="44.53249" lon="1.37053">
        <ele>238.5</ele>
        <time>2018-06-24T12:57:04Z</time>
      </trkpt>
      <trkpt lat="44.53252" lon="1.37048">
        <ele>238.9</ele>
        <time>2018-06-24T12:57:07Z</time>
      </trkpt>
      <trkpt lat="44.53254" lon="1.37043">
        <ele>239.4</ele>
        <time>2018-06-24T12:57:12Z</time>
      </trkpt>
      <trkpt lat="44.53257" lon="1.37038">
        <ele>239.9</ele>
        <time>2018-06-24T12:57:18Z</time>
      </trkpt>
      <trkpt lat="44.53262" lon="1.37034">
        <ele>240.3</ele>
        <time>2018-06-24T12:57:23Z</time>
      </trkpt>
      <trkpt lat="44.53266" lon="1.3703">
        <ele>240.7</ele>
        <time>2018-06-24T12:57:28Z</time>
      </trkpt>
      <trkpt lat="44.5327" lon="1.37025">
        <ele>241.1</ele>
        <time>2018-06-24T12:57:33Z</time>
      </trkpt>
      <trkpt lat="44.53273" lon="1.37021">
        <ele>241.4</ele>
        <time>2018-06-24T12:57:37Z</time>
      </trkpt>
      <trkpt lat="44.53278" lon="1.37016">
        <ele>241.7</ele>
        <time>2018-06-24T12:57:41Z</time>
      </trkpt>
      <trkpt lat="44.53281" lon="1.37012">
        <ele>242</ele>
        <time>2018-06-24T12:57:46Z</time>
      </trkpt>
      <trkpt lat="44.53285" lon="1.37008">
        <ele>242.2</ele>
        <time>2018-06-24T12:57:50Z</time>
      </trkpt>
      <trkpt lat="44.53289" lon="1.37005">
        <ele>242.5</ele>
        <time>2018-06-24T12:57:55Z</time>
      </trkpt>
      <trkpt lat="44.53293" lon="1.37">
        <ele>242.8</ele>
        <time>2018-06-24T12:58:00Z</time>
      </trkpt>
      <trkpt lat="44.53296" lon="1.36996">
        <ele>243.2</ele>
        <time>2018-06-24T12:58:04Z</time>
      </trkpt>
      <trkpt lat="44.533" lon="1.3699">
        <ele>243.7</ele>
        <time>2018-06-24T12:58:08Z</time>
      </trkpt>
      <trkpt lat="44.53303" lon="1.36986">
        <ele>244.1</ele>
        <time>2018-06-24T12:58:13Z</time>
      </trkpt>
      <trkpt lat="44.53307" lon="1.36981">
        <ele>244.5</ele>
        <time>2018-06-24T12:58:16Z</time>
      </trkpt>
      <trkpt lat="44.5331" lon="1.36977">
        <ele>245</ele>
        <time>2018-06-24T12:58:24Z</time>
      </trkpt>
      <trkpt lat="44.53315" lon="1.36972">
        <ele>245.5</ele>
        <time>2018-06-24T12:58:28Z</time>
      </trkpt>
      <trkpt lat="44.53318" lon="1.36967">
        <ele>245.9</ele>
        <time>2018-06-24T12:58:34Z</time>
      </trkpt>
      <trkpt lat="44.53322" lon="1.36962">
        <ele>246.4</ele>
        <time>2018-06-24T12:58:40Z</time>
      </trkpt>
      <trkpt lat="44.53325" lon="1.36957">
        <ele>246.9</ele>
        <time>2018-06-24T12:58:45Z</time>
      </trkpt>
      <trkpt lat="44.53329" lon="1.36952">
        <ele>247.4</ele>
        <time>2018-06-24T12:58:50Z</time>
      </trkpt>
      <trkpt lat="44.53332" lon="1.36947">
        <ele>247.8</ele>
        <time>2018-06-24T12:58:54Z</time>
      </trkpt>
      <trkpt lat="44.53336" lon="1.36943">
        <ele>248.1</ele>
        <time>2018-06-24T12:58:57Z</time>
      </trkpt>
      <trkpt lat="44.5334" lon="1.36938">
        <ele>248.5</ele>
        <time>2018-06-24T12:59:03Z</time>
      </trkpt>
      <trkpt lat="44.53343" lon="1.36935">
        <ele>248.8</ele>
        <time>2018-06-24T12:59:06Z</time>
      </trkpt>
      <trkpt lat="44.53348" lon="1.36931">
        <ele>249.2</ele>
        <time>2018-06-24T12:59:11Z</time>
      </trkpt>
      <trkpt lat="44.53352" lon="1.36927">
        <ele>249.6</ele>
        <time>2018-06-24T12:59:17Z</time>
      </trkpt>
      <trkpt lat="44.53357" lon="1.36924">
        <ele>250</ele>
        <time>2018-06-24T12:59:22Z</time>
      </trkpt>
      <trkpt lat="44.53362" lon="1.3692">
        <ele>250.3</ele>
        <time>2018-06-24T12:59:27Z</time>
      </trkpt>
      <trkpt lat="44.53365" lon="1.36917">
        <ele>250.5</ele>
        <time>2018-06-24T12:59:33Z</time>
      </trkpt>
      <trkpt lat="44.53369" lon="1.36914">
        <ele>250.8</ele>
        <time>2018-06-24T13:00:01Z</time>
      </trkpt>
      <trkpt lat="44.53374" lon="1.36911">
        <ele>250.9</ele>
        <time>2018-06-24T13:00:11Z</time>
      </trkpt>
      <trkpt lat="44.53378" lon="1.36909">
        <ele>251.1</ele>
        <time>2018-06-24T13:00:26Z</time>
      </trkpt>
      <trkpt lat="44.53382" lon="1.36906">
        <ele>251.3</ele>
        <time>2018-06-24T13:00:32Z</time>
      </trkpt>
      <trkpt lat="44.53387" lon="1.36902">
        <ele>251.3</ele>
        <time>2018-06-24T13:00:39Z</time>
      </trkpt>
      <trkpt lat="44.53392" lon="1.369">
        <ele>251.4</ele>
        <time>2018-06-24T13:00:45Z</time>
      </trkpt>
      <trkpt lat="44.53398" lon="1.36897">
        <ele>251.3</ele>
        <time>2018-06-24T13:00:51Z</time>
      </trkpt>
      <trkpt lat="44.53402" lon="1.36895">
        <ele>251.2</ele>
        <time>2018-06-24T13:00:55Z</time>
      </trkpt>
      <trkpt lat="44.53407" lon="1.36892">
        <ele>251.1</ele>
        <time>2018-06-24T13:01:01Z</time>
      </trkpt>
      <trkpt lat="44.53412" lon="1.36889">
        <ele>251.1</ele>
        <time>2018-06-24T13:01:06Z</time>
      </trkpt>
      <trkpt lat="44.53417" lon="1.36893">
        <ele>251.1</ele>
        <time>2018-06-24T13:01:11Z</time>
      </trkpt>
      <trkpt lat="44.53419" lon="1.369">
        <ele>251.1</ele>
        <time>2018-06-24T13:01:17Z</time>
      </trkpt>
      <trkpt lat="44.53421" lon="1.36907">
        <ele>251.2</ele>
        <time>2018-06-24T13:01:23Z</time>
      </trkpt>
      <trkpt lat="44.53422" lon="1.36914">
        <ele>251.3</ele>
        <time>2018-06-24T13:01:28Z</time>
      </trkpt>
      <trkpt lat="44.53423" lon="1.36921">
        <ele>251.5</ele>
        <time>2018-06-24T13:01:33Z</time>
      </trkpt>
      <trkpt lat="44.53426" lon="1.36928">
        <ele>251.7</ele>
        <time>2018-06-24T13:01:37Z</time>
      </trkpt>
      <trkpt lat="44.53427" lon="1.36934">
        <ele>252</ele>
        <time>2018-06-24T13:01:41Z</time>
      </trkpt>
      <trkpt lat="44.5343" lon="1.3694">
        <ele>252.2</ele>
        <time>2018-06-24T13:01:46Z</time>
      </trkpt>
      <trkpt lat="44.53433" lon="1.36946">
        <ele>252.4</ele>
        <time>2018-06-24T13:01:51Z</time>
      </trkpt>
      <trkpt lat="44.53436" lon="1.36951">
        <ele>252.5</ele>
        <time>2018-06-24T13:01:55Z</time>
      </trkpt>
      <trkpt lat="44.5344" lon="1.36955">
        <ele>252.5</ele>
        <time>2018-06-24T13:01:59Z</time>
      </trkpt>
      <trkpt lat="44.53443" lon="1.3696">
        <ele>252.4</ele>
        <time>2018-06-24T13:02:03Z</time>
      </trkpt>
      <trkpt lat="44.53446" lon="1.36967">
        <ele>252.3</ele>
        <time>2018-06-24T13:02:07Z</time>
      </trkpt>
      <trkpt lat="44.53449" lon="1.36972">
        <ele>252.2</ele>
        <time>2018-06-24T13:02:11Z</time>
      </trkpt>
      <trkpt lat="44.53452" lon="1.36977">
        <ele>252.2</ele>
        <time>2018-06-24T13:02:15Z</time>
      </trkpt>
      <trkpt lat="44.53456" lon="1.36981">
        <ele>252.3</ele>
        <time>2018-06-24T13:02:20Z</time>
      </trkpt>
      <trkpt lat="44.5346" lon="1.36986">
        <ele>252.5</ele>
        <time>2018-06-24T13:02:25Z</time>
      </trkpt>
      <trkpt lat="44.53464" lon="1.3699">
        <ele>252.5</ele>
        <time>2018-06-24T13:02:29Z</time>
      </trkpt>
      <trkpt lat="44.53468" lon="1.36996">
        <ele>252.5</ele>
        <time>2018-06-24T13:02:34Z</time>
      </trkpt>
      <trkpt lat="44.5347" lon="1.37002">
        <ele>252.4</ele>
        <time>2018-06-24T13:02:39Z</time>
      </trkpt>
      <trkpt lat="44.53473" lon="1.37008">
        <ele>252.2</ele>
        <time>2018-06-24T13:02:44Z</time>
      </trkpt>
      <trkpt lat="44.53476" lon="1.37013">
        <ele>251.9</ele>
        <time>2018-06-24T13:02:50Z</time>
      </trkpt>
      <trkpt lat="44.5348" lon="1.37018">
        <ele>251.7</ele>
        <time>2018-06-24T13:02:55Z</time>
      </trkpt>
      <trkpt lat="44.53482" lon="1.37023">
        <ele>251.7</ele>
        <time>2018-06-24T13:03:01Z</time>
      </trkpt>
      <trkpt lat="44.53484" lon="1.3703">
        <ele>251.8</ele>
        <time>2018-06-24T13:03:06Z</time>
      </trkpt>
      <trkpt lat="44.53485" lon="1.37036">
        <ele>252</ele>
        <time>2018-06-24T13:03:29Z</time>
      </trkpt>
      <trkpt lat="44.53482" lon="1.37042">
        <ele>252.4</ele>
        <time>2018-06-24T13:03:34Z</time>
      </trkpt>
      <trkpt lat="44.53479" lon="1.37047">
        <ele>252.7</ele>
        <time>2018-06-24T13:03:39Z</time>
      </trkpt>
      <trkpt lat="44.53477" lon="1.37053">
        <ele>252.9</ele>
        <time>2018-06-24T13:03:45Z</time>
      </trkpt>
      <trkpt lat="44.53473" lon="1.37057">
        <ele>253.1</ele>
        <time>2018-06-24T13:03:49Z</time>
      </trkpt>
      <trkpt lat="44.53471" lon="1.37063">
        <ele>253.2</ele>
        <time>2018-06-24T13:03:57Z</time>
      </trkpt>
      <trkpt lat="44.53469" lon="1.3707">
        <ele>253.3</ele>
        <time>2018-06-24T13:04:03Z</time>
      </trkpt>
      <trkpt lat="44.53467" lon="1.37077">
        <ele>253.4</ele>
        <time>2018-06-24T13:04:07Z</time>
      </trkpt>
      <trkpt lat="44.53465" lon="1.37084">
        <ele>253.6</ele>
        <time>2018-06-24T13:04:12Z</time>
      </trkpt>
      <trkpt lat="44.53463" lon="1.37091">
        <ele>253.7</ele>
        <time>2018-06-24T13:04:18Z</time>
      </trkpt>
      <trkpt lat="44.53462" lon="1.37098">
        <ele>253.9</ele>
        <time>2018-06-24T13:04:23Z</time>
      </trkpt>
      <trkpt lat="44.53462" lon="1.37104">
        <ele>254</ele>
        <time>2018-06-24T13:04:30Z</time>
      </trkpt>
      <trkpt lat="44.5346" lon="1.37112">
        <ele>254.1</ele>
        <time>2018-06-24T13:04:37Z</time>
      </trkpt>
      <trkpt lat="44.53457" lon="1.37118">
        <ele>254</ele>
        <time>2018-06-24T13:04:41Z</time>
      </trkpt>
      <trkpt lat="44.53455" lon="1.37124">
        <ele>253.8</ele>
        <time>2018-06-24T13:04:45Z</time>
      </trkpt>
      <trkpt lat="44.53453" lon="1.37131">
        <ele>253.1</ele>
        <time>2018-06-24T13:04:50Z</time>
      </trkpt>
      <trkpt lat="44.5345" lon="1.37136">
        <ele>252.4</ele>
        <time>2018-06-24T13:04:57Z</time>
      </trkpt>
      <trkpt lat="44.53446" lon="1.3714">
        <ele>251.6</ele>
        <time>2018-06-24T13:05:03Z</time>
      </trkpt>
      <trkpt lat="44.53441" lon="1.37141">
        <ele>251</ele>
        <time>2018-06-24T13:05:14Z</time>
      </trkpt>
      <trkpt lat="44.53437" lon="1.37144">
        <ele>250.7</ele>
        <time>2018-06-24T13:05:25Z</time>
      </trkpt>
      <trkpt lat="44.53434" lon="1.37151">
        <ele>250.8</ele>
        <time>2018-06-24T13:05:30Z</time>
      </trkpt>
      <trkpt lat="44.53431" lon="1.37157">
        <ele>250.8</ele>
        <time>2018-06-24T13:05:36Z</time>
      </trkpt>
      <trkpt lat="44.53428" lon="1.37162">
        <ele>251</ele>
        <time>2018-06-24T13:05:43Z</time>
      </trkpt>
      <trkpt lat="44.53424" lon="1.37168">
        <ele>251</ele>
        <time>2018-06-24T13:05:50Z</time>
      </trkpt>
      <trkpt lat="44.53421" lon="1.37173">
        <ele>251</ele>
        <time>2018-06-24T13:05:57Z</time>
      </trkpt>
      <trkpt lat="44.53416" lon="1.37177">
        <ele>250.9</ele>
        <time>2018-06-24T13:06:01Z</time>
      </trkpt>
      <trkpt lat="44.53413" lon="1.37182">
        <ele>250.9</ele>
        <time>2018-06-24T13:06:06Z</time>
      </trkpt>
      <trkpt lat="44.5341" lon="1.37187">
        <ele>250.9</ele>
        <time>2018-06-24T13:06:11Z</time>
      </trkpt>
      <trkpt lat="44.53406" lon="1.37192">
        <ele>250.7</ele>
        <time>2018-06-24T13:06:17Z</time>
      </trkpt>
      <trkpt lat="44.53402" lon="1.37197">
        <ele>250</ele>
        <time>2018-06-24T13:06:22Z</time>
      </trkpt>
      <trkpt lat="44.534" lon="1.37204">
        <ele>249.4</ele>
        <time>2018-06-24T13:06:27Z</time>
      </trkpt>
      <trkpt lat="44.53398" lon="1.37211">
        <ele>248.8</ele>
        <time>2018-06-24T13:06:32Z</time>
      </trkpt>
      <trkpt lat="44.53403" lon="1.37212">
        <ele>248.1</ele>
        <time>2018-06-24T13:06:46Z</time>
      </trkpt>
      <trkpt lat="44.53405" lon="1.37218">
        <ele>247.5</ele>
        <time>2018-06-24T13:09:13Z</time>
      </trkpt>
      <trkpt lat="44.53407" lon="1.37224">
        <ele>247.3</ele>
        <time>2018-06-24T13:09:18Z</time>
      </trkpt>
      <trkpt lat="44.5341" lon="1.37231">
        <ele>246.9</ele>
        <time>2018-06-24T13:09:21Z</time>
      </trkpt>
      <trkpt lat="44.53414" lon="1.37235">
        <ele>246.4</ele>
        <time>2018-06-24T13:09:28Z</time>
      </trkpt>
      <trkpt lat="44.53417" lon="1.3724">
        <ele>245.9</ele>
        <time>2018-06-24T13:09:32Z</time>
      </trkpt>
      <trkpt lat="44.5342" lon="1.37245">
        <ele>245.2</ele>
        <time>2018-06-24T13:09:36Z</time>
      </trkpt>
      <trkpt lat="44.53424" lon="1.3725">
        <ele>244.6</ele>
        <time>2018-06-24T13:09:42Z</time>
      </trkpt>
      <trkpt lat="44.53427" lon="1.37256">
        <ele>244</ele>
        <time>2018-06-24T13:09:47Z</time>
      </trkpt>
      <trkpt lat="44.53432" lon="1.37262">
        <ele>243.4</ele>
        <time>2018-06-24T13:09:50Z</time>
      </trkpt>
      <trkpt lat="44.53436" lon="1.37265">
        <ele>242.8</ele>
        <time>2018-06-24T13:09:57Z</time>
      </trkpt>
      <trkpt lat="44.53442" lon="1.37267">
        <ele>242.4</ele>
        <time>2018-06-24T13:10:04Z</time>
      </trkpt>
      <trkpt lat="44.53447" lon="1.3727">
        <ele>241.8</ele>
        <time>2018-06-24T13:10:10Z</time>
      </trkpt>
      <trkpt lat="44.5345" lon="1.37275">
        <ele>241.3</ele>
        <time>2018-06-24T13:10:15Z</time>
      </trkpt>
      <trkpt lat="44.53453" lon="1.37281">
        <ele>240.8</ele>
        <time>2018-06-24T13:10:22Z</time>
      </trkpt>
      <trkpt lat="44.53454" lon="1.37288">
        <ele>240.4</ele>
        <time>2018-06-24T13:10:27Z</time>
      </trkpt>
      <trkpt lat="44.53455" lon="1.37295">
        <ele>239.9</ele>
        <time>2018-06-24T13:10:30Z</time>
      </trkpt>
      <trkpt lat="44.53455" lon="1.37302">
        <ele>239.6</ele>
        <time>2018-06-24T13:10:33Z</time>
      </trkpt>
      <trkpt lat="44.53455" lon="1.3731">
        <ele>239</ele>
        <time>2018-06-24T13:10:39Z</time>
      </trkpt>
      <trkpt lat="44.53454" lon="1.37316">
        <ele>238.2</ele>
        <time>2018-06-24T13:10:44Z</time>
      </trkpt>
      <trkpt lat="44.53453" lon="1.37324">
        <ele>237</ele>
        <time>2018-06-24T13:10:49Z</time>
      </trkpt>
      <trkpt lat="44.53454" lon="1.3733">
        <ele>235.4</ele>
        <time>2018-06-24T13:10:53Z</time>
      </trkpt>
      <trkpt lat="44.53457" lon="1.37334">
        <ele>233.2</ele>
        <time>2018-06-24T13:10:59Z</time>
      </trkpt>
      <trkpt lat="44.53462" lon="1.37331">
        <ele>230.8</ele>
        <time>2018-06-24T13:11:06Z</time>
      </trkpt>
      <trkpt lat="44.53467" lon="1.3733">
        <ele>228.7</ele>
        <time>2018-06-24T13:11:14Z</time>
      </trkpt>
      <trkpt lat="44.53471" lon="1.37327">
        <ele>227.1</ele>
        <time>2018-06-24T13:11:21Z</time>
      </trkpt>
      <trkpt lat="44.53475" lon="1.37323">
        <ele>226.1</ele>
        <time>2018-06-24T13:11:28Z</time>
      </trkpt>
      <trkpt lat="44.53479" lon="1.37326">
        <ele>225.6</ele>
        <time>2018-06-24T13:11:37Z</time>
      </trkpt>
      <trkpt lat="44.53479" lon="1.37333">
        <ele>225.4</ele>
        <time>2018-06-24T13:11:47Z</time>
      </trkpt>
      <trkpt lat="44.5348" lon="1.37339">
        <ele>225.1</ele>
        <time>2018-06-24T13:11:58Z</time>
      </trkpt>
      <trkpt lat="44.53484" lon="1.37343">
        <ele>224.3</ele>
        <time>2018-06-24T13:12:05Z</time>
      </trkpt>
      <trkpt lat="44.53488" lon="1.37338">
        <ele>223.2</ele>
        <time>2018-06-24T13:12:15Z</time>
      </trkpt>
      <trkpt lat="44.53492" lon="1.37336">
        <ele>221.9</ele>
        <time>2018-06-24T13:12:21Z</time>
      </trkpt>
      <trkpt lat="44.53497" lon="1.37332">
        <ele>220.6</ele>
        <time>2018-06-24T13:12:26Z</time>
      </trkpt>
      <trkpt lat="44.53501" lon="1.37329">
        <ele>219.4</ele>
        <time>2018-06-24T13:12:34Z</time>
      </trkpt>
      <trkpt lat="44.53503" lon="1.37323">
        <ele>218.7</ele>
        <time>2018-06-24T13:12:40Z</time>
      </trkpt>
      <trkpt lat="44.53503" lon="1.37316">
        <ele>218.1</ele>
        <time>2018-06-24T13:12:46Z</time>
      </trkpt>
      <trkpt lat="44.53501" lon="1.37311">
        <ele>217.7</ele>
        <time>2018-06-24T13:12:48Z</time>
      </trkpt>
      <trkpt lat="44.53505" lon="1.37306">
        <ele>217.3</ele>
        <time>2018-06-24T13:12:58Z</time>
      </trkpt>
      <trkpt lat="44.53507" lon="1.373">
        <ele>217</ele>
        <time>2018-06-24T13:13:01Z</time>
      </trkpt>
      <trkpt lat="44.53508" lon="1.37293">
        <ele>216.7</ele>
        <time>2018-06-24T13:13:08Z</time>
      </trkpt>
      <trkpt lat="44.53508" lon="1.37285">
        <ele>216.3</ele>
        <time>2018-06-24T13:13:13Z</time>
      </trkpt>
      <trkpt lat="44.53508" lon="1.37277">
        <ele>215.9</ele>
        <time>2018-06-24T13:13:16Z</time>
      </trkpt>
      <trkpt lat="44.53506" lon="1.37269">
        <ele>215.2</ele>
        <time>2018-06-24T13:13:22Z</time>
      </trkpt>
      <trkpt lat="44.53503" lon="1.37263">
        <ele>214.2</ele>
        <time>2018-06-24T13:13:24Z</time>
      </trkpt>
      <trkpt lat="44.53504" lon="1.37255">
        <ele>212.7</ele>
        <time>2018-06-24T13:13:30Z</time>
      </trkpt>
      <trkpt lat="44.53506" lon="1.37248">
        <ele>211.2</ele>
        <time>2018-06-24T13:13:33Z</time>
      </trkpt>
      <trkpt lat="44.5351" lon="1.37245">
        <ele>209.5</ele>
        <time>2018-06-24T13:13:43Z</time>
      </trkpt>
      <trkpt lat="44.53514" lon="1.37242">
        <ele>207.9</ele>
        <time>2018-06-24T13:13:51Z</time>
      </trkpt>
      <trkpt lat="44.53518" lon="1.37238">
        <ele>206.5</ele>
        <time>2018-06-24T13:13:58Z</time>
      </trkpt>
      <trkpt lat="44.53523" lon="1.37233">
        <ele>205.5</ele>
        <time>2018-06-24T13:14:03Z</time>
      </trkpt>
      <trkpt lat="44.53524" lon="1.37223">
        <ele>204.7</ele>
        <time>2018-06-24T13:14:05Z</time>
      </trkpt>
      <trkpt lat="44.53528" lon="1.37219">
        <ele>204.1</ele>
        <time>2018-06-24T13:14:11Z</time>
      </trkpt>
      <trkpt lat="44.53532" lon="1.37217">
        <ele>203.8</ele>
        <time>2018-06-24T13:14:20Z</time>
      </trkpt>
      <trkpt lat="44.53537" lon="1.37214">
        <ele>203.6</ele>
        <time>2018-06-24T13:14:22Z</time>
      </trkpt>
      <trkpt lat="44.53541" lon="1.3721">
        <ele>203.4</ele>
        <time>2018-06-24T13:14:27Z</time>
      </trkpt>
      <trkpt lat="44.53547" lon="1.37212">
        <ele>203.4</ele>
        <time>2018-06-24T13:14:33Z</time>
      </trkpt>
      <trkpt lat="44.53553" lon="1.37211">
        <ele>203.3</ele>
        <time>2018-06-24T13:14:36Z</time>
      </trkpt>
      <trkpt lat="44.53557" lon="1.37212">
        <ele>203.8</ele>
        <time>2018-06-24T13:14:40Z</time>
      </trkpt>
      <trkpt lat="44.53562" lon="1.37214">
        <ele>202.9</ele>
        <time>2018-06-24T13:14:44Z</time>
      </trkpt>
      <trkpt lat="44.53563" lon="1.37221">
        <ele>201.9</ele>
        <time>2018-06-24T13:14:50Z</time>
      </trkpt>
      <trkpt lat="44.53562" lon="1.37228">
        <ele>200.8</ele>
        <time>2018-06-24T13:14:56Z</time>
      </trkpt>
      <trkpt lat="44.53565" lon="1.37233">
        <ele>199.8</ele>
        <time>2018-06-24T13:15:44Z</time>
      </trkpt>
      <trkpt lat="44.53567" lon="1.37238">
        <ele>198.4</ele>
        <time>2018-06-24T13:21:17Z</time>
      </trkpt>
      <trkpt lat="44.53566" lon="1.37245">
        <ele>198.3</ele>
        <time>2018-06-24T13:21:23Z</time>
      </trkpt>
      <trkpt lat="44.53566" lon="1.37252">
        <ele>198.2</ele>
        <time>2018-06-24T13:21:28Z</time>
      </trkpt>
      <trkpt lat="44.53566" lon="1.37259">
        <ele>198.3</ele>
        <time>2018-06-24T13:21:34Z</time>
      </trkpt>
      <trkpt lat="44.53567" lon="1.37265">
        <ele>198.1</ele>
        <time>2018-06-24T13:21:39Z</time>
      </trkpt>
      <trkpt lat="44.53568" lon="1.37272">
        <ele>197.9</ele>
        <time>2018-06-24T13:21:44Z</time>
      </trkpt>
      <trkpt lat="44.53569" lon="1.37279">
        <ele>197.7</ele>
        <time>2018-06-24T13:21:50Z</time>
      </trkpt>
      <trkpt lat="44.53569" lon="1.37286">
        <ele>197.5</ele>
        <time>2018-06-24T13:21:55Z</time>
      </trkpt>
      <trkpt lat="44.53571" lon="1.37293">
        <ele>197.2</ele>
        <time>2018-06-24T13:22:00Z</time>
      </trkpt>
      <trkpt lat="44.5357" lon="1.373">
        <ele>196.8</ele>
        <time>2018-06-24T13:22:06Z</time>
      </trkpt>
      <trkpt lat="44.5357" lon="1.37307">
        <ele>196.3</ele>
        <time>2018-06-24T13:22:12Z</time>
      </trkpt>
      <trkpt lat="44.5357" lon="1.37315">
        <ele>195.8</ele>
        <time>2018-06-24T13:22:16Z</time>
      </trkpt>
      <trkpt lat="44.5357" lon="1.37323">
        <ele>195.2</ele>
        <time>2018-06-24T13:22:19Z</time>
      </trkpt>
      <trkpt lat="44.53572" lon="1.37329">
        <ele>194.4</ele>
        <time>2018-06-24T13:22:24Z</time>
      </trkpt>
      <trkpt lat="44.53575" lon="1.37337">
        <ele>193.9</ele>
        <time>2018-06-24T13:22:29Z</time>
      </trkpt>
      <trkpt lat="44.53576" lon="1.37344">
        <ele>193.5</ele>
        <time>2018-06-24T13:22:33Z</time>
      </trkpt>
      <trkpt lat="44.53577" lon="1.37351">
        <ele>193.4</ele>
        <time>2018-06-24T13:22:39Z</time>
      </trkpt>
      <trkpt lat="44.53577" lon="1.37358">
        <ele>193.5</ele>
        <time>2018-06-24T13:22:46Z</time>
      </trkpt>
      <trkpt lat="44.5358" lon="1.37363">
        <ele>193.6</ele>
        <time>2018-06-24T13:22:51Z</time>
      </trkpt>
      <trkpt lat="44.53581" lon="1.3737">
        <ele>193.6</ele>
        <time>2018-06-24T13:22:59Z</time>
      </trkpt>
      <trkpt lat="44.53583" lon="1.37377">
        <ele>193.4</ele>
        <time>2018-06-24T13:23:04Z</time>
      </trkpt>
      <trkpt lat="44.53585" lon="1.37383">
        <ele>193.1</ele>
        <time>2018-06-24T13:23:08Z</time>
      </trkpt>
      <trkpt lat="44.53587" lon="1.3739">
        <ele>192.7</ele>
        <time>2018-06-24T13:23:12Z</time>
      </trkpt>
      <trkpt lat="44.53588" lon="1.37396">
        <ele>192.4</ele>
        <time>2018-06-24T13:23:16Z</time>
      </trkpt>
      <trkpt lat="44.53585" lon="1.37403">
        <ele>192.1</ele>
        <time>2018-06-24T13:23:22Z</time>
      </trkpt>
      <trkpt lat="44.53584" lon="1.37409">
        <ele>191.9</ele>
        <time>2018-06-24T13:23:28Z</time>
      </trkpt>
      <trkpt lat="44.53585" lon="1.37417">
        <ele>191.8</ele>
        <time>2018-06-24T13:23:33Z</time>
      </trkpt>
      <trkpt lat="44.53586" lon="1.37423">
        <ele>191.6</ele>
        <time>2018-06-24T13:23:35Z</time>
      </trkpt>
      <trkpt lat="44.53587" lon="1.37429">
        <ele>191.5</ele>
        <time>2018-06-24T13:23:40Z</time>
      </trkpt>
      <trkpt lat="44.53585" lon="1.37437">
        <ele>191.6</ele>
        <time>2018-06-24T13:23:46Z</time>
      </trkpt>
      <trkpt lat="44.53584" lon="1.37443">
        <ele>191.7</ele>
        <time>2018-06-24T13:23:50Z</time>
      </trkpt>
      <trkpt lat="44.53585" lon="1.3745">
        <ele>192</ele>
        <time>2018-06-24T13:23:54Z</time>
      </trkpt>
      <trkpt lat="44.53585" lon="1.37457">
        <ele>192.6</ele>
        <time>2018-06-24T13:24:00Z</time>
      </trkpt>
      <trkpt lat="44.53582" lon="1.37465">
        <ele>193.1</ele>
        <time>2018-06-24T13:24:04Z</time>
      </trkpt>
      <trkpt lat="44.53581" lon="1.37472">
        <ele>193.6</ele>
        <time>2018-06-24T13:24:08Z</time>
      </trkpt>
      <trkpt lat="44.53581" lon="1.37479">
        <ele>193.9</ele>
        <time>2018-06-24T13:24:12Z</time>
      </trkpt>
      <trkpt lat="44.5358" lon="1.37486">
        <ele>194</ele>
        <time>2018-06-24T13:24:19Z</time>
      </trkpt>
      <trkpt lat="44.53577" lon="1.37491">
        <ele>193.7</ele>
        <time>2018-06-24T13:24:25Z</time>
      </trkpt>
      <trkpt lat="44.53576" lon="1.37498">
        <ele>193.3</ele>
        <time>2018-06-24T13:24:30Z</time>
      </trkpt>
      <trkpt lat="44.53576" lon="1.37507">
        <ele>192.9</ele>
        <time>2018-06-24T13:24:33Z</time>
      </trkpt>
      <trkpt lat="44.53578" lon="1.37514">
        <ele>192.5</ele>
        <time>2018-06-24T13:24:37Z</time>
      </trkpt>
      <trkpt lat="44.53577" lon="1.37521">
        <ele>192.3</ele>
        <time>2018-06-24T13:24:43Z</time>
      </trkpt>
      <trkpt lat="44.53577" lon="1.37527">
        <ele>192.1</ele>
        <time>2018-06-24T13:24:46Z</time>
      </trkpt>
      <trkpt lat="44.53577" lon="1.37534">
        <ele>191.8</ele>
        <time>2018-06-24T13:24:48Z</time>
      </trkpt>
      <trkpt lat="44.53577" lon="1.3754">
        <ele>191.5</ele>
        <time>2018-06-24T13:24:53Z</time>
      </trkpt>
      <trkpt lat="44.53578" lon="1.37548">
        <ele>191.2</ele>
        <time>2018-06-24T13:24:58Z</time>
      </trkpt>
      <trkpt lat="44.53579" lon="1.37554">
        <ele>190.8</ele>
        <time>2018-06-24T13:25:00Z</time>
      </trkpt>
      <trkpt lat="44.5358" lon="1.37561">
        <ele>190.4</ele>
        <time>2018-06-24T13:25:06Z</time>
      </trkpt>
      <trkpt lat="44.53579" lon="1.37567">
        <ele>190.1</ele>
        <time>2018-06-24T13:25:12Z</time>
      </trkpt>
      <trkpt lat="44.5358" lon="1.37574">
        <ele>189.8</ele>
        <time>2018-06-24T13:25:16Z</time>
      </trkpt>
      <trkpt lat="44.53579" lon="1.3758">
        <ele>189.7</ele>
        <time>2018-06-24T13:25:21Z</time>
      </trkpt>
      <trkpt lat="44.53579" lon="1.37588">
        <ele>189.6</ele>
        <time>2018-06-24T13:25:26Z</time>
      </trkpt>
      <trkpt lat="44.53579" lon="1.37595">
        <ele>189.6</ele>
        <time>2018-06-24T13:25:29Z</time>
      </trkpt>
      <trkpt lat="44.53577" lon="1.37606">
        <ele>189.7</ele>
        <time>2018-06-24T13:25:37Z</time>
      </trkpt>
      <trkpt lat="44.53575" lon="1.37619">
        <ele>189.7</ele>
        <time>2018-06-24T13:25:46Z</time>
      </trkpt>
      <trkpt lat="44.53573" lon="1.37626">
        <ele>189.5</ele>
        <time>2018-06-24T13:25:54Z</time>
      </trkpt>
      <trkpt lat="44.53569" lon="1.37637">
        <ele>189.4</ele>
        <time>2018-06-24T13:26:00Z</time>
      </trkpt>
      <trkpt lat="44.53568" lon="1.37643">
        <ele>189.2</ele>
        <time>2018-06-24T13:26:08Z</time>
      </trkpt>
      <trkpt lat="44.53566" lon="1.37649">
        <ele>188.9</ele>
        <time>2018-06-24T13:26:12Z</time>
      </trkpt>
      <trkpt lat="44.53565" lon="1.37656">
        <ele>188.6</ele>
        <time>2018-06-24T13:26:19Z</time>
      </trkpt>
      <trkpt lat="44.53565" lon="1.37665">
        <ele>188.2</ele>
        <time>2018-06-24T13:26:24Z</time>
      </trkpt>
      <trkpt lat="44.53565" lon="1.37676">
        <ele>187.9</ele>
        <time>2018-06-24T13:26:29Z</time>
      </trkpt>
      <trkpt lat="44.53566" lon="1.37683">
        <ele>187.6</ele>
        <time>2018-06-24T13:26:33Z</time>
      </trkpt>
      <trkpt lat="44.53567" lon="1.37689">
        <ele>187.5</ele>
        <time>2018-06-24T13:26:37Z</time>
      </trkpt>
      <trkpt lat="44.53566" lon="1.37697">
        <ele>187.4</ele>
        <time>2018-06-24T13:26:43Z</time>
      </trkpt>
      <trkpt lat="44.53569" lon="1.37705">
        <ele>187.4</ele>
        <time>2018-06-24T13:26:46Z</time>
      </trkpt>
      <trkpt lat="44.5357" lon="1.37712">
        <ele>187.3</ele>
        <time>2018-06-24T13:26:52Z</time>
      </trkpt>
      <trkpt lat="44.53571" lon="1.37719">
        <ele>187.3</ele>
        <time>2018-06-24T13:26:58Z</time>
      </trkpt>
      <trkpt lat="44.53571" lon="1.37726">
        <ele>187.3</ele>
        <time>2018-06-24T13:27:04Z</time>
      </trkpt>
      <trkpt lat="44.53572" lon="1.37734">
        <ele>187.3</ele>
        <time>2018-06-24T13:27:09Z</time>
      </trkpt>
      <trkpt lat="44.53571" lon="1.37741">
        <ele>187.2</ele>
        <time>2018-06-24T13:27:14Z</time>
      </trkpt>
      <trkpt lat="44.5357" lon="1.37748">
        <ele>186.9</ele>
        <time>2018-06-24T13:27:19Z</time>
      </trkpt>
      <trkpt lat="44.53569" lon="1.37755">
        <ele>186.5</ele>
        <time>2018-06-24T13:27:23Z</time>
      </trkpt>
      <trkpt lat="44.53569" lon="1.37761">
        <ele>186</ele>
        <time>2018-06-24T13:27:27Z</time>
      </trkpt>
      <trkpt lat="44.5357" lon="1.37768">
        <ele>185.4</ele>
        <time>2018-06-24T13:27:32Z</time>
      </trkpt>
      <trkpt lat="44.53572" lon="1.37775">
        <ele>184.8</ele>
        <time>2018-06-24T13:27:39Z</time>
      </trkpt>
      <trkpt lat="44.53574" lon="1.37781">
        <ele>184.2</ele>
        <time>2018-06-24T13:27:41Z</time>
      </trkpt>
      <trkpt lat="44.53575" lon="1.37787">
        <ele>183.6</ele>
        <time>2018-06-24T13:27:45Z</time>
      </trkpt>
      <trkpt lat="44.53577" lon="1.37794">
        <ele>182.9</ele>
        <time>2018-06-24T13:27:50Z</time>
      </trkpt>
      <trkpt lat="44.53579" lon="1.378">
        <ele>182.3</ele>
        <time>2018-06-24T13:27:55Z</time>
      </trkpt>
      <trkpt lat="44.5358" lon="1.37806">
        <ele>181.7</ele>
        <time>2018-06-24T13:27:58Z</time>
      </trkpt>
      <trkpt lat="44.5358" lon="1.37813">
        <ele>181.3</ele>
        <time>2018-06-24T13:28:02Z</time>
      </trkpt>
      <trkpt lat="44.53579" lon="1.3782">
        <ele>180.9</ele>
        <time>2018-06-24T13:28:07Z</time>
      </trkpt>
      <trkpt lat="44.53581" lon="1.37828">
        <ele>180.5</ele>
        <time>2018-06-24T13:28:10Z</time>
      </trkpt>
      <trkpt lat="44.53582" lon="1.37836">
        <ele>180.2</ele>
        <time>2018-06-24T13:28:16Z</time>
      </trkpt>
      <trkpt lat="44.53582" lon="1.37843">
        <ele>179.9</ele>
        <time>2018-06-24T13:28:20Z</time>
      </trkpt>
      <trkpt lat="44.5358" lon="1.3785">
        <ele>179.5</ele>
        <time>2018-06-24T13:28:25Z</time>
      </trkpt>
      <trkpt lat="44.5358" lon="1.37856">
        <ele>179.3</ele>
        <time>2018-06-24T13:28:29Z</time>
      </trkpt>
      <trkpt lat="44.53581" lon="1.37863">
        <ele>179.1</ele>
        <time>2018-06-24T13:28:33Z</time>
      </trkpt>
      <trkpt lat="44.5358" lon="1.3787">
        <ele>179</ele>
        <time>2018-06-24T13:28:38Z</time>
      </trkpt>
      <trkpt lat="44.5358" lon="1.37878">
        <ele>178.9</ele>
        <time>2018-06-24T13:28:44Z</time>
      </trkpt>
      <trkpt lat="44.53578" lon="1.37886">
        <ele>178.8</ele>
        <time>2018-06-24T13:28:52Z</time>
      </trkpt>
      <trkpt lat="44.53578" lon="1.37892">
        <ele>178.6</ele>
        <time>2018-06-24T13:28:55Z</time>
      </trkpt>
      <trkpt lat="44.53578" lon="1.37899">
        <ele>178.3</ele>
        <time>2018-06-24T13:28:59Z</time>
      </trkpt>
      <trkpt lat="44.53578" lon="1.37908">
        <ele>177.9</ele>
        <time>2018-06-24T13:29:02Z</time>
      </trkpt>
      <trkpt lat="44.53576" lon="1.37914">
        <ele>177.4</ele>
        <time>2018-06-24T13:29:08Z</time>
      </trkpt>
      <trkpt lat="44.53576" lon="1.37921">
        <ele>176.9</ele>
        <time>2018-06-24T13:29:14Z</time>
      </trkpt>
      <trkpt lat="44.53576" lon="1.37928">
        <ele>176.3</ele>
        <time>2018-06-24T13:29:18Z</time>
      </trkpt>
      <trkpt lat="44.53575" lon="1.37935">
        <ele>175.7</ele>
        <time>2018-06-24T13:29:22Z</time>
      </trkpt>
      <trkpt lat="44.53574" lon="1.37942">
        <ele>174.9</ele>
        <time>2018-06-24T13:29:26Z</time>
      </trkpt>
      <trkpt lat="44.53573" lon="1.37948">
        <ele>173.8</ele>
        <time>2018-06-24T13:29:33Z</time>
      </trkpt>
      <trkpt lat="44.53571" lon="1.37955">
        <ele>172.7</ele>
        <time>2018-06-24T13:29:38Z</time>
      </trkpt>
      <trkpt lat="44.53568" lon="1.37962">
        <ele>171.5</ele>
        <time>2018-06-24T13:29:42Z</time>
      </trkpt>
      <trkpt lat="44.53565" lon="1.37966">
        <ele>170.4</ele>
        <time>2018-06-24T13:29:47Z</time>
      </trkpt>
      <trkpt lat="44.53563" lon="1.37973">
        <ele>169.2</ele>
        <time>2018-06-24T13:29:53Z</time>
      </trkpt>
      <trkpt lat="44.53562" lon="1.3798">
        <ele>168.2</ele>
        <time>2018-06-24T13:29:58Z</time>
      </trkpt>
      <trkpt lat="44.53561" lon="1.37986">
        <ele>167.4</ele>
        <time>2018-06-24T13:30:02Z</time>
      </trkpt>
      <trkpt lat="44.5356" lon="1.37993">
        <ele>166.6</ele>
        <time>2018-06-24T13:30:08Z</time>
      </trkpt>
      <trkpt lat="44.53558" lon="1.37999">
        <ele>166.1</ele>
        <time>2018-06-24T13:30:14Z</time>
      </trkpt>
      <trkpt lat="44.53556" lon="1.38005">
        <ele>165.9</ele>
        <time>2018-06-24T13:30:19Z</time>
      </trkpt>
      <trkpt lat="44.53556" lon="1.38012">
        <ele>165.9</ele>
        <time>2018-06-24T13:30:23Z</time>
      </trkpt>
      <trkpt lat="44.53554" lon="1.38018">
        <ele>166.1</ele>
        <time>2018-06-24T13:30:26Z</time>
      </trkpt>
      <trkpt lat="44.53554" lon="1.38025">
        <ele>166.2</ele>
        <time>2018-06-24T13:30:30Z</time>
      </trkpt>
      <trkpt lat="44.53553" lon="1.38033">
        <ele>166.2</ele>
        <time>2018-06-24T13:30:34Z</time>
      </trkpt>
      <trkpt lat="44.53552" lon="1.3804">
        <ele>166.3</ele>
        <time>2018-06-24T13:30:40Z</time>
      </trkpt>
      <trkpt lat="44.5355" lon="1.38046">
        <ele>167.3</ele>
        <time>2018-06-24T13:30:46Z</time>
      </trkpt>
      <trkpt lat="44.5355" lon="1.38054">
        <ele>168.5</ele>
        <time>2018-06-24T13:30:51Z</time>
      </trkpt>
      <trkpt lat="44.53549" lon="1.3806">
        <ele>169.7</ele>
        <time>2018-06-24T13:30:56Z</time>
      </trkpt>
      <trkpt lat="44.53547" lon="1.38066">
        <ele>171</ele>
        <time>2018-06-24T13:31:06Z</time>
      </trkpt>
      <trkpt lat="44.53551" lon="1.3807">
        <ele>172</ele>
        <time>2018-06-24T13:32:24Z</time>
      </trkpt>
      <trkpt lat="44.53554" lon="1.38076">
        <ele>171.9</ele>
        <time>2018-06-24T13:32:29Z</time>
      </trkpt>
      <trkpt lat="44.53559" lon="1.38079">
        <ele>171.5</ele>
        <time>2018-06-24T13:32:35Z</time>
      </trkpt>
      <trkpt lat="44.53562" lon="1.38084">
        <ele>171</ele>
        <time>2018-06-24T13:32:44Z</time>
      </trkpt>
      <trkpt lat="44.53566" lon="1.38087">
        <ele>170.4</ele>
        <time>2018-06-24T13:32:49Z</time>
      </trkpt>
      <trkpt lat="44.53571" lon="1.38089">
        <ele>169.8</ele>
        <time>2018-06-24T13:32:57Z</time>
      </trkpt>
      <trkpt lat="44.53575" lon="1.38088">
        <ele>169.3</ele>
        <time>2018-06-24T13:33:03Z</time>
      </trkpt>
      <trkpt lat="44.5358" lon="1.38089">
        <ele>168.9</ele>
        <time>2018-06-24T13:33:08Z</time>
      </trkpt>
      <trkpt lat="44.53585" lon="1.38089">
        <ele>168.5</ele>
        <time>2018-06-24T13:33:16Z</time>
      </trkpt>
      <trkpt lat="44.5359" lon="1.3809">
        <ele>168.4</ele>
        <time>2018-06-24T13:33:21Z</time>
      </trkpt>
      <trkpt lat="44.53595" lon="1.38091">
        <ele>168.4</ele>
        <time>2018-06-24T13:33:26Z</time>
      </trkpt>
      <trkpt lat="44.536" lon="1.38093">
        <ele>168.4</ele>
        <time>2018-06-24T13:33:30Z</time>
      </trkpt>
      <trkpt lat="44.53606" lon="1.38095">
        <ele>168.5</ele>
        <time>2018-06-24T13:33:35Z</time>
      </trkpt>
      <trkpt lat="44.53612" lon="1.38095">
        <ele>168.6</ele>
        <time>2018-06-24T13:33:42Z</time>
      </trkpt>
      <trkpt lat="44.53617" lon="1.38099">
        <ele>168.6</ele>
        <time>2018-06-24T13:33:48Z</time>
      </trkpt>
      <trkpt lat="44.53621" lon="1.38102">
        <ele>168.4</ele>
        <time>2018-06-24T13:33:53Z</time>
      </trkpt>
      <trkpt lat="44.53627" lon="1.38102">
        <ele>168.1</ele>
        <time>2018-06-24T13:33:57Z</time>
      </trkpt>
      <trkpt lat="44.53631" lon="1.38106">
        <ele>167.7</ele>
        <time>2018-06-24T13:34:01Z</time>
      </trkpt>
      <trkpt lat="44.53635" lon="1.3811">
        <ele>167.4</ele>
        <time>2018-06-24T13:34:04Z</time>
      </trkpt>
      <trkpt lat="44.5364" lon="1.38112">
        <ele>167</ele>
        <time>2018-06-24T13:34:11Z</time>
      </trkpt>
      <trkpt lat="44.53645" lon="1.38115">
        <ele>166.6</ele>
        <time>2018-06-24T13:34:18Z</time>
      </trkpt>
      <trkpt lat="44.5365" lon="1.38117">
        <ele>166.5</ele>
        <time>2018-06-24T13:34:23Z</time>
      </trkpt>
      <trkpt lat="44.53655" lon="1.38119">
        <ele>166.4</ele>
        <time>2018-06-24T13:34:28Z</time>
      </trkpt>
      <trkpt lat="44.5366" lon="1.38121">
        <ele>166.3</ele>
        <time>2018-06-24T13:34:32Z</time>
      </trkpt>
      <trkpt lat="44.53665" lon="1.38121">
        <ele>166.4</ele>
        <time>2018-06-24T13:34:35Z</time>
      </trkpt>
      <trkpt lat="44.5367" lon="1.38123">
        <ele>166.5</ele>
        <time>2018-06-24T13:34:41Z</time>
      </trkpt>
      <trkpt lat="44.53674" lon="1.38126">
        <ele>166.6</ele>
        <time>2018-06-24T13:34:47Z</time>
      </trkpt>
      <trkpt lat="44.53678" lon="1.38125">
        <ele>166.7</ele>
        <time>2018-06-24T13:34:52Z</time>
      </trkpt>
      <trkpt lat="44.53684" lon="1.38123">
        <ele>166.8</ele>
        <time>2018-06-24T13:34:58Z</time>
      </trkpt>
      <trkpt lat="44.53689" lon="1.38122">
        <ele>166.9</ele>
        <time>2018-06-24T13:35:01Z</time>
      </trkpt>
      <trkpt lat="44.53694" lon="1.38119">
        <ele>166.9</ele>
        <time>2018-06-24T13:35:03Z</time>
      </trkpt>
      <trkpt lat="44.53698" lon="1.38118">
        <ele>166.9</ele>
        <time>2018-06-24T13:35:08Z</time>
      </trkpt>
      <trkpt lat="44.53703" lon="1.38114">
        <ele>166.8</ele>
        <time>2018-06-24T13:35:17Z</time>
      </trkpt>
      <trkpt lat="44.53708" lon="1.38112">
        <ele>166.8</ele>
        <time>2018-06-24T13:35:23Z</time>
      </trkpt>
      <trkpt lat="44.53714" lon="1.38109">
        <ele>166.9</ele>
        <time>2018-06-24T13:35:27Z</time>
      </trkpt>
      <trkpt lat="44.53717" lon="1.38105">
        <ele>167.4</ele>
        <time>2018-06-24T13:35:31Z</time>
      </trkpt>
      <trkpt lat="44.53721" lon="1.38099">
        <ele>168.1</ele>
        <time>2018-06-24T13:35:37Z</time>
      </trkpt>
      <trkpt lat="44.53726" lon="1.38095">
        <ele>169.2</ele>
        <time>2018-06-24T13:35:42Z</time>
      </trkpt>
      <trkpt lat="44.53731" lon="1.38092">
        <ele>170.4</ele>
        <time>2018-06-24T13:35:47Z</time>
      </trkpt>
      <trkpt lat="44.53735" lon="1.38087">
        <ele>171.5</ele>
        <time>2018-06-24T13:35:53Z</time>
      </trkpt>
      <trkpt lat="44.53737" lon="1.38082">
        <ele>172.5</ele>
        <time>2018-06-24T13:36:01Z</time>
      </trkpt>
      <trkpt lat="44.53743" lon="1.38082">
        <ele>173.3</ele>
        <time>2018-06-24T13:36:35Z</time>
      </trkpt>
      <trkpt lat="44.53748" lon="1.38081">
        <ele>173.9</ele>
        <time>2018-06-24T13:36:40Z</time>
      </trkpt>
      <trkpt lat="44.53751" lon="1.38077">
        <ele>174.6</ele>
        <time>2018-06-24T13:36:46Z</time>
      </trkpt>
      <trkpt lat="44.53756" lon="1.38073">
        <ele>175.2</ele>
        <time>2018-06-24T13:36:50Z</time>
      </trkpt>
      <trkpt lat="44.53759" lon="1.38068">
        <ele>176.2</ele>
        <time>2018-06-24T13:36:54Z</time>
      </trkpt>
      <trkpt lat="44.53763" lon="1.38061">
        <ele>177.3</ele>
        <time>2018-06-24T13:37:02Z</time>
      </trkpt>
      <trkpt lat="44.53765" lon="1.38056">
        <ele>178.6</ele>
        <time>2018-06-24T13:37:07Z</time>
      </trkpt>
      <trkpt lat="44.53769" lon="1.38052">
        <ele>179.9</ele>
        <time>2018-06-24T13:37:12Z</time>
      </trkpt>
      <trkpt lat="44.53771" lon="1.38044">
        <ele>181.3</ele>
        <time>2018-06-24T13:37:19Z</time>
      </trkpt>
      <trkpt lat="44.53774" lon="1.38039">
        <ele>182.6</ele>
        <time>2018-06-24T13:37:24Z</time>
      </trkpt>
      <trkpt lat="44.53777" lon="1.38034">
        <ele>183.8</ele>
        <time>2018-06-24T13:37:28Z</time>
      </trkpt>
      <trkpt lat="44.5378" lon="1.38027">
        <ele>184.9</ele>
        <time>2018-06-24T13:37:32Z</time>
      </trkpt>
      <trkpt lat="44.53784" lon="1.38023">
        <ele>185.8</ele>
        <time>2018-06-24T13:37:37Z</time>
      </trkpt>
      <trkpt lat="44.53786" lon="1.38017">
        <ele>186.6</ele>
        <time>2018-06-24T13:37:43Z</time>
      </trkpt>
      <trkpt lat="44.5379" lon="1.38011">
        <ele>187</ele>
        <time>2018-06-24T13:37:48Z</time>
      </trkpt>
      <trkpt lat="44.53793" lon="1.38006">
        <ele>187.2</ele>
        <time>2018-06-24T13:37:52Z</time>
      </trkpt>
      <trkpt lat="44.53796" lon="1.38">
        <ele>187.6</ele>
        <time>2018-06-24T13:37:57Z</time>
      </trkpt>
      <trkpt lat="44.53793" lon="1.37996">
        <ele>187.8</ele>
        <time>2018-06-24T13:38:10Z</time>
      </trkpt>
      <trkpt lat="44.53788" lon="1.37993">
        <ele>188.1</ele>
        <time>2018-06-24T13:38:16Z</time>
      </trkpt>
      <trkpt lat="44.53784" lon="1.37988">
        <ele>188.6</ele>
        <time>2018-06-24T13:38:22Z</time>
      </trkpt>
      <trkpt lat="44.53782" lon="1.37982">
        <ele>189.2</ele>
        <time>2018-06-24T13:38:27Z</time>
      </trkpt>
      <trkpt lat="44.5378" lon="1.37976">
        <ele>189.7</ele>
        <time>2018-06-24T13:38:32Z</time>
      </trkpt>
      <trkpt lat="44.53778" lon="1.3797">
        <ele>190.1</ele>
        <time>2018-06-24T13:38:38Z</time>
      </trkpt>
      <trkpt lat="44.53776" lon="1.37964">
        <ele>190.7</ele>
        <time>2018-06-24T13:38:53Z</time>
      </trkpt>
      <trkpt lat="44.53779" lon="1.37957">
        <ele>191.2</ele>
        <time>2018-06-24T13:38:58Z</time>
      </trkpt>
      <trkpt lat="44.53781" lon="1.37952">
        <ele>191.8</ele>
        <time>2018-06-24T13:39:02Z</time>
      </trkpt>
      <trkpt lat="44.53783" lon="1.37945">
        <ele>192.7</ele>
        <time>2018-06-24T13:39:06Z</time>
      </trkpt>
      <trkpt lat="44.53786" lon="1.37939">
        <ele>193.6</ele>
        <time>2018-06-24T13:39:12Z</time>
      </trkpt>
      <trkpt lat="44.53788" lon="1.37932">
        <ele>194.6</ele>
        <time>2018-06-24T13:39:16Z</time>
      </trkpt>
      <trkpt lat="44.53792" lon="1.37928">
        <ele>195.4</ele>
        <time>2018-06-24T13:39:21Z</time>
      </trkpt>
      <trkpt lat="44.53793" lon="1.3792">
        <ele>196.1</ele>
        <time>2018-06-24T13:39:27Z</time>
      </trkpt>
      <trkpt lat="44.53796" lon="1.37915">
        <ele>195.9</ele>
        <time>2018-06-24T13:39:34Z</time>
      </trkpt>
      <trkpt lat="44.53795" lon="1.37909">
        <ele>195.3</ele>
        <time>2018-06-24T13:40:15Z</time>
      </trkpt>
      <trkpt lat="44.53794" lon="1.37915">
        <ele>194.4</ele>
        <time>2018-06-24T13:43:53Z</time>
      </trkpt>
      <trkpt lat="44.53796" lon="1.37909">
        <ele>193.5</ele>
        <time>2018-06-24T13:44:17Z</time>
      </trkpt>
      <trkpt lat="44.53796" lon="1.37902">
        <ele>192.6</ele>
        <time>2018-06-24T13:45:14Z</time>
      </trkpt>
      <trkpt lat="44.53801" lon="1.379">
        <ele>192.3</ele>
        <time>2018-06-24T13:45:21Z</time>
      </trkpt>
      <trkpt lat="44.53804" lon="1.37904">
        <ele>192.2</ele>
        <time>2018-06-24T13:45:49Z</time>
      </trkpt>
      <trkpt lat="44.53809" lon="1.37905">
        <ele>192.4</ele>
        <time>2018-06-24T13:45:56Z</time>
      </trkpt>
      <trkpt lat="44.53811" lon="1.37924">
        <ele>192.8</ele>
        <time>2018-06-24T13:46:05Z</time>
      </trkpt>
      <trkpt lat="44.53812" lon="1.37917">
        <ele>193.1</ele>
        <time>2018-06-24T13:46:18Z</time>
      </trkpt>
      <trkpt lat="44.53812" lon="1.3791">
        <ele>193.5</ele>
        <time>2018-06-24T13:46:27Z</time>
      </trkpt>
      <trkpt lat="44.53814" lon="1.37916">
        <ele>193.8</ele>
        <time>2018-06-24T13:46:32Z</time>
      </trkpt>
      <trkpt lat="44.53814" lon="1.37923">
        <ele>194</ele>
        <time>2018-06-24T13:46:37Z</time>
      </trkpt>
      <trkpt lat="44.53815" lon="1.3793">
        <ele>194</ele>
        <time>2018-06-24T13:46:43Z</time>
      </trkpt>
      <trkpt lat="44.53816" lon="1.37937">
        <ele>194</ele>
        <time>2018-06-24T13:46:55Z</time>
      </trkpt>
      <trkpt lat="44.5382" lon="1.3794">
        <ele>193.5</ele>
        <time>2018-06-24T13:47:10Z</time>
      </trkpt>
      <trkpt lat="44.53826" lon="1.37939">
        <ele>192.7</ele>
        <time>2018-06-24T13:47:16Z</time>
      </trkpt>
      <trkpt lat="44.53831" lon="1.3794">
        <ele>191.8</ele>
        <time>2018-06-24T13:47:23Z</time>
      </trkpt>
      <trkpt lat="44.53835" lon="1.37938">
        <ele>190.7</ele>
        <time>2018-06-24T13:47:27Z</time>
      </trkpt>
      <trkpt lat="44.5384" lon="1.37936">
        <ele>189.7</ele>
        <time>2018-06-24T13:47:41Z</time>
      </trkpt>
      <trkpt lat="44.53846" lon="1.37936">
        <ele>188.9</ele>
        <time>2018-06-24T13:47:47Z</time>
      </trkpt>
      <trkpt lat="44.5385" lon="1.37935">
        <ele>188.3</ele>
        <time>2018-06-24T13:47:54Z</time>
      </trkpt>
      <trkpt lat="44.53855" lon="1.37936">
        <ele>188</ele>
        <time>2018-06-24T13:48:01Z</time>
      </trkpt>
      <trkpt lat="44.5386" lon="1.37938">
        <ele>187.7</ele>
        <time>2018-06-24T13:48:08Z</time>
      </trkpt>
      <trkpt lat="44.53864" lon="1.37936">
        <ele>187.6</ele>
        <time>2018-06-24T13:48:26Z</time>
      </trkpt>
      <trkpt lat="44.53868" lon="1.37932">
        <ele>187.7</ele>
        <time>2018-06-24T13:48:30Z</time>
      </trkpt>
      <trkpt lat="44.53868" lon="1.37925">
        <ele>187.8</ele>
        <time>2018-06-24T13:48:35Z</time>
      </trkpt>
      <trkpt lat="44.53868" lon="1.37917">
        <ele>188</ele>
        <time>2018-06-24T13:48:39Z</time>
      </trkpt>
      <trkpt lat="44.53866" lon="1.37911">
        <ele>188.1</ele>
        <time>2018-06-24T13:48:43Z</time>
      </trkpt>
      <trkpt lat="44.53868" lon="1.37903">
        <ele>188.2</ele>
        <time>2018-06-24T13:48:47Z</time>
      </trkpt>
      <trkpt lat="44.5387" lon="1.37897">
        <ele>188.4</ele>
        <time>2018-06-24T13:48:53Z</time>
      </trkpt>
      <trkpt lat="44.53871" lon="1.37889">
        <ele>188.7</ele>
        <time>2018-06-24T13:48:59Z</time>
      </trkpt>
      <trkpt lat="44.53872" lon="1.37882">
        <ele>188.9</ele>
        <time>2018-06-24T13:49:03Z</time>
      </trkpt>
      <trkpt lat="44.53872" lon="1.37875">
        <ele>189.1</ele>
        <time>2018-06-24T13:49:07Z</time>
      </trkpt>
      <trkpt lat="44.53877" lon="1.3787">
        <ele>189.4</ele>
        <time>2018-06-24T13:49:12Z</time>
      </trkpt>
      <trkpt lat="44.53882" lon="1.37869">
        <ele>189.5</ele>
        <time>2018-06-24T13:49:20Z</time>
      </trkpt>
      <trkpt lat="44.53887" lon="1.37868">
        <ele>189.5</ele>
        <time>2018-06-24T13:49:25Z</time>
      </trkpt>
      <trkpt lat="44.53891" lon="1.37867">
        <ele>189.5</ele>
        <time>2018-06-24T13:49:29Z</time>
      </trkpt>
      <trkpt lat="44.53896" lon="1.37866">
        <ele>189.4</ele>
        <time>2018-06-24T13:49:34Z</time>
      </trkpt>
      <trkpt lat="44.53901" lon="1.37864">
        <ele>188.7</ele>
        <time>2018-06-24T13:49:38Z</time>
      </trkpt>
      <trkpt lat="44.53905" lon="1.37864">
        <ele>187.8</ele>
        <time>2018-06-24T13:49:44Z</time>
      </trkpt>
      <trkpt lat="44.53911" lon="1.37864">
        <ele>187.3</ele>
        <time>2018-06-24T13:49:49Z</time>
      </trkpt>
      <trkpt lat="44.53916" lon="1.37864">
        <ele>186.7</ele>
        <time>2018-06-24T13:49:54Z</time>
      </trkpt>
      <trkpt lat="44.5392" lon="1.37865">
        <ele>186.2</ele>
        <time>2018-06-24T13:50:08Z</time>
      </trkpt>
      <trkpt lat="44.53924" lon="1.37869">
        <ele>186.4</ele>
        <time>2018-06-24T13:50:24Z</time>
      </trkpt>
      <trkpt lat="44.53929" lon="1.3787">
        <ele>187</ele>
        <time>2018-06-24T13:50:47Z</time>
      </trkpt>
      <trkpt lat="44.53924" lon="1.37867">
        <ele>186.9</ele>
        <time>2018-06-24T13:50:54Z</time>
      </trkpt>
      <trkpt lat="44.53921" lon="1.37863">
        <ele>187</ele>
        <time>2018-06-24T13:51:04Z</time>
      </trkpt>
      <trkpt lat="44.53917" lon="1.37858">
        <ele>187.4</ele>
        <time>2018-06-24T13:51:14Z</time>
      </trkpt>
      <trkpt lat="44.53921" lon="1.37862">
        <ele>188.1</ele>
        <time>2018-06-24T13:51:55Z</time>
      </trkpt>
      <trkpt lat="44.53917" lon="1.3786">
        <ele>188.4</ele>
        <time>2018-06-24T13:53:18Z</time>
      </trkpt>
      <trkpt lat="44.53912" lon="1.37859">
        <ele>189</ele>
        <time>2018-06-24T13:53:36Z</time>
      </trkpt>
      <trkpt lat="44.5391" lon="1.37854">
        <ele>189.6</ele>
        <time>2018-06-24T13:53:57Z</time>
      </trkpt>
      <trkpt lat="44.53905" lon="1.37857">
        <ele>189.9</ele>
        <time>2018-06-24T13:56:48Z</time>
      </trkpt>
      <trkpt lat="44.53901" lon="1.3786">
        <ele>189.9</ele>
        <time>2018-06-24T13:56:57Z</time>
      </trkpt>
      <trkpt lat="44.53896" lon="1.37863">
        <ele>190</ele>
        <time>2018-06-24T13:57:07Z</time>
      </trkpt>
      <trkpt lat="44.53893" lon="1.37868">
        <ele>190</ele>
        <time>2018-06-24T13:57:12Z</time>
      </trkpt>
      <trkpt lat="44.53891" lon="1.37874">
        <ele>189.7</ele>
        <time>2018-06-24T13:57:16Z</time>
      </trkpt>
      <trkpt lat="44.53887" lon="1.37878">
        <ele>189.3</ele>
        <time>2018-06-24T13:57:26Z</time>
      </trkpt>
      <trkpt lat="44.53882" lon="1.37878">
        <ele>188.7</ele>
        <time>2018-06-24T13:57:35Z</time>
      </trkpt>
      <trkpt lat="44.53877" lon="1.37878">
        <ele>188.1</ele>
        <time>2018-06-24T13:57:41Z</time>
      </trkpt>
      <trkpt lat="44.53874" lon="1.37884">
        <ele>187.5</ele>
        <time>2018-06-24T13:57:49Z</time>
      </trkpt>
      <trkpt lat="44.53875" lon="1.37891">
        <ele>187.1</ele>
        <time>2018-06-24T13:57:53Z</time>
      </trkpt>
      <trkpt lat="44.53874" lon="1.37897">
        <ele>186.8</ele>
        <time>2018-06-24T13:57:58Z</time>
      </trkpt>
      <trkpt lat="44.53872" lon="1.37903">
        <ele>186.5</ele>
        <time>2018-06-24T13:58:01Z</time>
      </trkpt>
      <trkpt lat="44.53872" lon="1.3791">
        <ele>186.3</ele>
        <time>2018-06-24T13:58:05Z</time>
      </trkpt>
      <trkpt lat="44.53872" lon="1.37916">
        <ele>186.1</ele>
        <time>2018-06-24T13:58:08Z</time>
      </trkpt>
      <trkpt lat="44.53871" lon="1.37923">
        <ele>186.1</ele>
        <time>2018-06-24T13:58:12Z</time>
      </trkpt>
      <trkpt lat="44.53868" lon="1.37929">
        <ele>186</ele>
        <time>2018-06-24T13:58:18Z</time>
      </trkpt>
      <trkpt lat="44.53864" lon="1.37933">
        <ele>186</ele>
        <time>2018-06-24T13:58:23Z</time>
      </trkpt>
      <trkpt lat="44.53859" lon="1.37933">
        <ele>185.8</ele>
        <time>2018-06-24T13:58:29Z</time>
      </trkpt>
      <trkpt lat="44.53854" lon="1.37932">
        <ele>185.6</ele>
        <time>2018-06-24T13:58:33Z</time>
      </trkpt>
      <trkpt lat="44.53849" lon="1.37932">
        <ele>185.5</ele>
        <time>2018-06-24T13:58:39Z</time>
      </trkpt>
      <trkpt lat="44.53845" lon="1.37931">
        <ele>185.3</ele>
        <time>2018-06-24T13:58:46Z</time>
      </trkpt>
      <trkpt lat="44.53839" lon="1.3793">
        <ele>185.3</ele>
        <time>2018-06-24T13:58:51Z</time>
      </trkpt>
      <trkpt lat="44.53835" lon="1.37933">
        <ele>185.4</ele>
        <time>2018-06-24T13:58:57Z</time>
      </trkpt>
      <trkpt lat="44.53831" lon="1.37935">
        <ele>185.6</ele>
        <time>2018-06-24T13:59:01Z</time>
      </trkpt>
      <trkpt lat="44.53826" lon="1.37936">
        <ele>186</ele>
        <time>2018-06-24T13:59:05Z</time>
      </trkpt>
      <trkpt lat="44.53821" lon="1.37936">
        <ele>186.4</ele>
        <time>2018-06-24T13:59:10Z</time>
      </trkpt>
      <trkpt lat="44.53817" lon="1.37939">
        <ele>187.1</ele>
        <time>2018-06-24T13:59:18Z</time>
      </trkpt>
      <trkpt lat="44.53812" lon="1.37941">
        <ele>187.8</ele>
        <time>2018-06-24T13:59:26Z</time>
      </trkpt>
      <trkpt lat="44.53808" lon="1.37962">
        <ele>188.4</ele>
        <time>2018-06-24T13:59:36Z</time>
      </trkpt>
      <trkpt lat="44.53807" lon="1.37968">
        <ele>188.9</ele>
        <time>2018-06-24T13:59:38Z</time>
      </trkpt>
      <trkpt lat="44.53811" lon="1.37975">
        <ele>189.4</ele>
        <time>2018-06-24T13:59:47Z</time>
      </trkpt>
      <trkpt lat="44.53814" lon="1.3798">
        <ele>189.4</ele>
        <time>2018-06-24T13:59:52Z</time>
      </trkpt>
      <trkpt lat="44.53819" lon="1.37982">
        <ele>189.1</ele>
        <time>2018-06-24T13:59:56Z</time>
      </trkpt>
      <trkpt lat="44.53814" lon="1.37979">
        <ele>188.8</ele>
        <time>2018-06-24T14:00:16Z</time>
      </trkpt>
      <trkpt lat="44.53808" lon="1.3798">
        <ele>188.2</ele>
        <time>2018-06-24T14:00:21Z</time>
      </trkpt>
      <trkpt lat="44.53809" lon="1.37987">
        <ele>187.6</ele>
        <time>2018-06-24T14:00:31Z</time>
      </trkpt>
      <trkpt lat="44.5381" lon="1.37994">
        <ele>187.2</ele>
        <time>2018-06-24T14:00:37Z</time>
      </trkpt>
      <trkpt lat="44.53806" lon="1.37997">
        <ele>186.9</ele>
        <time>2018-06-24T14:00:42Z</time>
      </trkpt>
      <trkpt lat="44.53801" lon="1.38001">
        <ele>186.7</ele>
        <time>2018-06-24T14:00:47Z</time>
      </trkpt>
      <trkpt lat="44.53797" lon="1.38003">
        <ele>186.5</ele>
        <time>2018-06-24T14:00:55Z</time>
      </trkpt>
      <trkpt lat="44.53793" lon="1.38008">
        <ele>186.3</ele>
        <time>2018-06-24T14:01:01Z</time>
      </trkpt>
      <trkpt lat="44.5379" lon="1.38013">
        <ele>186.1</ele>
        <time>2018-06-24T14:01:05Z</time>
      </trkpt>
      <trkpt lat="44.53787" lon="1.38019">
        <ele>185.9</ele>
        <time>2018-06-24T14:01:10Z</time>
      </trkpt>
      <trkpt lat="44.53783" lon="1.38025">
        <ele>185.7</ele>
        <time>2018-06-24T14:01:13Z</time>
      </trkpt>
      <trkpt lat="44.5378" lon="1.38031">
        <ele>185.7</ele>
        <time>2018-06-24T14:01:18Z</time>
      </trkpt>
      <trkpt lat="44.53778" lon="1.38037">
        <ele>185.7</ele>
        <time>2018-06-24T14:01:25Z</time>
      </trkpt>
      <trkpt lat="44.53775" lon="1.38043">
        <ele>185.8</ele>
        <time>2018-06-24T14:01:32Z</time>
      </trkpt>
      <trkpt lat="44.53772" lon="1.38048">
        <ele>185.9</ele>
        <time>2018-06-24T14:01:37Z</time>
      </trkpt>
      <trkpt lat="44.53769" lon="1.38053">
        <ele>186</ele>
        <time>2018-06-24T14:01:44Z</time>
      </trkpt>
      <trkpt lat="44.53766" lon="1.38059">
        <ele>185.9</ele>
        <time>2018-06-24T14:01:48Z</time>
      </trkpt>
      <trkpt lat="44.53763" lon="1.38063">
        <ele>185.8</ele>
        <time>2018-06-24T14:01:53Z</time>
      </trkpt>
      <trkpt lat="44.53759" lon="1.38068">
        <ele>185.4</ele>
        <time>2018-06-24T14:01:58Z</time>
      </trkpt>
      <trkpt lat="44.53754" lon="1.38072">
        <ele>184.9</ele>
        <time>2018-06-24T14:02:04Z</time>
      </trkpt>
      <trkpt lat="44.53749" lon="1.38074">
        <ele>184.1</ele>
        <time>2018-06-24T14:02:12Z</time>
      </trkpt>
      <trkpt lat="44.53745" lon="1.38079">
        <ele>183.2</ele>
        <time>2018-06-24T14:02:16Z</time>
      </trkpt>
      <trkpt lat="44.53741" lon="1.38079">
        <ele>182</ele>
        <time>2018-06-24T14:02:22Z</time>
      </trkpt>
      <trkpt lat="44.53735" lon="1.38079">
        <ele>180.9</ele>
        <time>2018-06-24T14:02:27Z</time>
      </trkpt>
      <trkpt lat="44.53731" lon="1.38083">
        <ele>179.4</ele>
        <time>2018-06-24T14:02:33Z</time>
      </trkpt>
      <trkpt lat="44.53727" lon="1.38085">
        <ele>177.7</ele>
        <time>2018-06-24T14:02:37Z</time>
      </trkpt>
      <trkpt lat="44.53722" lon="1.38087">
        <ele>176</ele>
        <time>2018-06-24T14:02:42Z</time>
      </trkpt>
      <trkpt lat="44.53718" lon="1.38093">
        <ele>174</ele>
        <time>2018-06-24T14:02:47Z</time>
      </trkpt>
      <trkpt lat="44.53714" lon="1.38097">
        <ele>171.9</ele>
        <time>2018-06-24T14:02:54Z</time>
      </trkpt>
      <trkpt lat="44.53709" lon="1.38101">
        <ele>170.1</ele>
        <time>2018-06-24T14:02:59Z</time>
      </trkpt>
      <trkpt lat="44.53705" lon="1.38104">
        <ele>168.6</ele>
        <time>2018-06-24T14:03:04Z</time>
      </trkpt>
      <trkpt lat="44.537" lon="1.38105">
        <ele>167.1</ele>
        <time>2018-06-24T14:03:11Z</time>
      </trkpt>
      <trkpt lat="44.53695" lon="1.38107">
        <ele>166.3</ele>
        <time>2018-06-24T14:03:16Z</time>
      </trkpt>
      <trkpt lat="44.5369" lon="1.38108">
        <ele>165.7</ele>
        <time>2018-06-24T14:03:21Z</time>
      </trkpt>
      <trkpt lat="44.53684" lon="1.38109">
        <ele>165.1</ele>
        <time>2018-06-24T14:03:24Z</time>
      </trkpt>
      <trkpt lat="44.53679" lon="1.38107">
        <ele>164.6</ele>
        <time>2018-06-24T14:03:31Z</time>
      </trkpt>
      <trkpt lat="44.53675" lon="1.38107">
        <ele>164.3</ele>
        <time>2018-06-24T14:03:35Z</time>
      </trkpt>
      <trkpt lat="44.5367" lon="1.38105">
        <ele>164</ele>
        <time>2018-06-24T14:03:39Z</time>
      </trkpt>
      <trkpt lat="44.53665" lon="1.38104">
        <ele>163.7</ele>
        <time>2018-06-24T14:03:49Z</time>
      </trkpt>
      <trkpt lat="44.5366" lon="1.38102">
        <ele>163.7</ele>
        <time>2018-06-24T14:03:53Z</time>
      </trkpt>
      <trkpt lat="44.53656" lon="1.38099">
        <ele>163.7</ele>
        <time>2018-06-24T14:03:56Z</time>
      </trkpt>
      <trkpt lat="44.53651" lon="1.38096">
        <ele>163.7</ele>
        <time>2018-06-24T14:04:02Z</time>
      </trkpt>
      <trkpt lat="44.53646" lon="1.38094">
        <ele>163.8</ele>
        <time>2018-06-24T14:04:07Z</time>
      </trkpt>
      <trkpt lat="44.53641" lon="1.38093">
        <ele>163.7</ele>
        <time>2018-06-24T14:04:10Z</time>
      </trkpt>
      <trkpt lat="44.53636" lon="1.3809">
        <ele>163.7</ele>
        <time>2018-06-24T14:04:15Z</time>
      </trkpt>
      <trkpt lat="44.53631" lon="1.38089">
        <ele>163.6</ele>
        <time>2018-06-24T14:04:22Z</time>
      </trkpt>
      <trkpt lat="44.53625" lon="1.38087">
        <ele>163.5</ele>
        <time>2018-06-24T14:04:26Z</time>
      </trkpt>
      <trkpt lat="44.53621" lon="1.38086">
        <ele>163.2</ele>
        <time>2018-06-24T14:04:33Z</time>
      </trkpt>
      <trkpt lat="44.53616" lon="1.38086">
        <ele>163.1</ele>
        <time>2018-06-24T14:04:37Z</time>
      </trkpt>
      <trkpt lat="44.53611" lon="1.38085">
        <ele>162.9</ele>
        <time>2018-06-24T14:04:42Z</time>
      </trkpt>
      <trkpt lat="44.53605" lon="1.38084">
        <ele>162.7</ele>
        <time>2018-06-24T14:04:47Z</time>
      </trkpt>
      <trkpt lat="44.536" lon="1.38081">
        <ele>162.7</ele>
        <time>2018-06-24T14:04:53Z</time>
      </trkpt>
      <trkpt lat="44.53594" lon="1.38081">
        <ele>162.6</ele>
        <time>2018-06-24T14:04:59Z</time>
      </trkpt>
      <trkpt lat="44.53588" lon="1.38082">
        <ele>162.5</ele>
        <time>2018-06-24T14:05:03Z</time>
      </trkpt>
      <trkpt lat="44.53584" lon="1.38083">
        <ele>162.2</ele>
        <time>2018-06-24T14:05:07Z</time>
      </trkpt>
      <trkpt lat="44.53579" lon="1.38082">
        <ele>162</ele>
        <time>2018-06-24T14:05:13Z</time>
      </trkpt>
      <trkpt lat="44.53573" lon="1.38082">
        <ele>161.8</ele>
        <time>2018-06-24T14:05:17Z</time>
      </trkpt>
      <trkpt lat="44.53569" lon="1.38079">
        <ele>161.7</ele>
        <time>2018-06-24T14:05:25Z</time>
      </trkpt>
      <trkpt lat="44.53566" lon="1.38074">
        <ele>162</ele>
        <time>2018-06-24T14:05:32Z</time>
      </trkpt>
      <trkpt lat="44.53562" lon="1.38072">
        <ele>162.4</ele>
        <time>2018-06-24T14:05:37Z</time>
      </trkpt>
      <trkpt lat="44.53557" lon="1.38069">
        <ele>163</ele>
        <time>2018-06-24T14:05:42Z</time>
      </trkpt>
      <trkpt lat="44.53552" lon="1.38068">
        <ele>163.8</ele>
        <time>2018-06-24T14:05:56Z</time>
      </trkpt>
      <trkpt lat="44.53548" lon="1.38073">
        <ele>164.8</ele>
        <time>2018-06-24T14:06:32Z</time>
      </trkpt>
      <trkpt lat="44.53547" lon="1.38079">
        <ele>165.6</ele>
        <time>2018-06-24T14:06:34Z</time>
      </trkpt>
      <trkpt lat="44.53546" lon="1.38086">
        <ele>166.4</ele>
        <time>2018-06-24T14:06:37Z</time>
      </trkpt>
      <trkpt lat="44.53544" lon="1.38093">
        <ele>166.9</ele>
        <time>2018-06-24T14:06:41Z</time>
      </trkpt>
      <trkpt lat="44.53542" lon="1.38099">
        <ele>167.3</ele>
        <time>2018-06-24T14:06:46Z</time>
      </trkpt>
      <trkpt lat="44.53541" lon="1.38106">
        <ele>167.5</ele>
        <time>2018-06-24T14:06:54Z</time>
      </trkpt>
      <trkpt lat="44.5354" lon="1.38113">
        <ele>167.4</ele>
        <time>2018-06-24T14:07:02Z</time>
      </trkpt>
      <trkpt lat="44.53537" lon="1.38119">
        <ele>167.4</ele>
        <time>2018-06-24T14:07:07Z</time>
      </trkpt>
      <trkpt lat="44.53535" lon="1.38126">
        <ele>167.3</ele>
        <time>2018-06-24T14:07:13Z</time>
      </trkpt>
      <trkpt lat="44.53533" lon="1.38133">
        <ele>167.2</ele>
        <time>2018-06-24T14:07:19Z</time>
      </trkpt>
      <trkpt lat="44.53531" lon="1.38138">
        <ele>167.1</ele>
        <time>2018-06-24T14:07:25Z</time>
      </trkpt>
      <trkpt lat="44.53529" lon="1.38145">
        <ele>166.9</ele>
        <time>2018-06-24T14:07:30Z</time>
      </trkpt>
      <trkpt lat="44.53527" lon="1.38151">
        <ele>166.7</ele>
        <time>2018-06-24T14:07:35Z</time>
      </trkpt>
      <trkpt lat="44.53526" lon="1.38157">
        <ele>166.4</ele>
        <time>2018-06-24T14:07:40Z</time>
      </trkpt>
      <trkpt lat="44.53524" lon="1.38163">
        <ele>166</ele>
        <time>2018-06-24T14:07:45Z</time>
      </trkpt>
      <trkpt lat="44.53522" lon="1.3817">
        <ele>165.5</ele>
        <time>2018-06-24T14:07:50Z</time>
      </trkpt>
      <trkpt lat="44.53521" lon="1.38176">
        <ele>165</ele>
        <time>2018-06-24T14:07:56Z</time>
      </trkpt>
      <trkpt lat="44.53519" lon="1.38184">
        <ele>164.3</ele>
        <time>2018-06-24T14:08:01Z</time>
      </trkpt>
      <trkpt lat="44.53519" lon="1.38191">
        <ele>163.7</ele>
        <time>2018-06-24T14:08:06Z</time>
      </trkpt>
      <trkpt lat="44.53519" lon="1.38198">
        <ele>163.1</ele>
        <time>2018-06-24T14:08:10Z</time>
      </trkpt>
      <trkpt lat="44.53518" lon="1.38205">
        <ele>162.5</ele>
        <time>2018-06-24T14:08:14Z</time>
      </trkpt>
      <trkpt lat="44.53516" lon="1.38211">
        <ele>161.9</ele>
        <time>2018-06-24T14:08:18Z</time>
      </trkpt>
      <trkpt lat="44.53512" lon="1.38215">
        <ele>161.4</ele>
        <time>2018-06-24T14:08:23Z</time>
      </trkpt>
      <trkpt lat="44.53508" lon="1.38219">
        <ele>160.9</ele>
        <time>2018-06-24T14:08:28Z</time>
      </trkpt>
      <trkpt lat="44.53502" lon="1.38219">
        <ele>160.3</ele>
        <time>2018-06-24T14:08:32Z</time>
      </trkpt>
      <trkpt lat="44.53497" lon="1.38219">
        <ele>159.7</ele>
        <time>2018-06-24T14:08:38Z</time>
      </trkpt>
      <trkpt lat="44.53492" lon="1.38218">
        <ele>159</ele>
        <time>2018-06-24T14:08:41Z</time>
      </trkpt>
      <trkpt lat="44.53487" lon="1.38218">
        <ele>158.3</ele>
        <time>2018-06-24T14:08:46Z</time>
      </trkpt>
      <trkpt lat="44.53482" lon="1.38217">
        <ele>157.6</ele>
        <time>2018-06-24T14:08:51Z</time>
      </trkpt>
      <trkpt lat="44.53477" lon="1.38219">
        <ele>156.9</ele>
        <time>2018-06-24T14:08:56Z</time>
      </trkpt>
      <trkpt lat="44.53472" lon="1.38222">
        <ele>156.3</ele>
        <time>2018-06-24T14:09:01Z</time>
      </trkpt>
      <trkpt lat="44.53468" lon="1.38226">
        <ele>155.8</ele>
        <time>2018-06-24T14:09:05Z</time>
      </trkpt>
      <trkpt lat="44.53464" lon="1.38231">
        <ele>155.5</ele>
        <time>2018-06-24T14:09:10Z</time>
      </trkpt>
      <trkpt lat="44.5346" lon="1.38235">
        <ele>155.2</ele>
        <time>2018-06-24T14:09:14Z</time>
      </trkpt>
      <trkpt lat="44.53456" lon="1.3824">
        <ele>155</ele>
        <time>2018-06-24T14:09:20Z</time>
      </trkpt>
      <trkpt lat="44.53452" lon="1.38244">
        <ele>154.9</ele>
        <time>2018-06-24T14:09:26Z</time>
      </trkpt>
      <trkpt lat="44.53448" lon="1.38249">
        <ele>154.8</ele>
        <time>2018-06-24T14:09:29Z</time>
      </trkpt>
      <trkpt lat="44.53444" lon="1.38254">
        <ele>154.7</ele>
        <time>2018-06-24T14:09:32Z</time>
      </trkpt>
      <trkpt lat="44.5344" lon="1.38258">
        <ele>154.5</ele>
        <time>2018-06-24T14:09:41Z</time>
      </trkpt>
      <trkpt lat="44.53435" lon="1.38261">
        <ele>154.5</ele>
        <time>2018-06-24T14:09:46Z</time>
      </trkpt>
      <trkpt lat="44.53431" lon="1.38264">
        <ele>154.4</ele>
        <time>2018-06-24T14:09:51Z</time>
      </trkpt>
      <trkpt lat="44.53427" lon="1.38269">
        <ele>154.2</ele>
        <time>2018-06-24T14:09:55Z</time>
      </trkpt>
      <trkpt lat="44.53422" lon="1.38272">
        <ele>154</ele>
        <time>2018-06-24T14:09:59Z</time>
      </trkpt>
      <trkpt lat="44.53418" lon="1.38276">
        <ele>153.7</ele>
        <time>2018-06-24T14:10:04Z</time>
      </trkpt>
      <trkpt lat="44.53414" lon="1.38279">
        <ele>153.4</ele>
        <time>2018-06-24T14:10:07Z</time>
      </trkpt>
      <trkpt lat="44.5341" lon="1.38284">
        <ele>153.1</ele>
        <time>2018-06-24T14:10:10Z</time>
      </trkpt>
      <trkpt lat="44.53407" lon="1.38288">
        <ele>152.7</ele>
        <time>2018-06-24T14:10:13Z</time>
      </trkpt>
      <trkpt lat="44.53403" lon="1.38293">
        <ele>152.4</ele>
        <time>2018-06-24T14:10:17Z</time>
      </trkpt>
      <trkpt lat="44.534" lon="1.38298">
        <ele>152.1</ele>
        <time>2018-06-24T14:10:21Z</time>
      </trkpt>
      <trkpt lat="44.53396" lon="1.38303">
        <ele>152</ele>
        <time>2018-06-24T14:10:26Z</time>
      </trkpt>
      <trkpt lat="44.53392" lon="1.3831">
        <ele>151.9</ele>
        <time>2018-06-24T14:10:31Z</time>
      </trkpt>
      <trkpt lat="44.53388" lon="1.38315">
        <ele>151.9</ele>
        <time>2018-06-24T14:10:37Z</time>
      </trkpt>
      <trkpt lat="44.53384" lon="1.38319">
        <ele>151.9</ele>
        <time>2018-06-24T14:10:42Z</time>
      </trkpt>
      <trkpt lat="44.5338" lon="1.38321">
        <ele>151.9</ele>
        <time>2018-06-24T14:10:48Z</time>
      </trkpt>
      <trkpt lat="44.53376" lon="1.38323">
        <ele>152</ele>
        <time>2018-06-24T14:10:51Z</time>
      </trkpt>
      <trkpt lat="44.53371" lon="1.38326">
        <ele>152</ele>
        <time>2018-06-24T14:10:54Z</time>
      </trkpt>
      <trkpt lat="44.53366" lon="1.38329">
        <ele>151.9</ele>
        <time>2018-06-24T14:11:00Z</time>
      </trkpt>
      <trkpt lat="44.53362" lon="1.38332">
        <ele>151.9</ele>
        <time>2018-06-24T14:11:06Z</time>
      </trkpt>
      <trkpt lat="44.53357" lon="1.38334">
        <ele>151.8</ele>
        <time>2018-06-24T14:11:11Z</time>
      </trkpt>
      <trkpt lat="44.53352" lon="1.38334">
        <ele>151.6</ele>
        <time>2018-06-24T14:11:15Z</time>
      </trkpt>
      <trkpt lat="44.53347" lon="1.38334">
        <ele>151.3</ele>
        <time>2018-06-24T14:11:21Z</time>
      </trkpt>
      <trkpt lat="44.53341" lon="1.38337">
        <ele>150.9</ele>
        <time>2018-06-24T14:11:25Z</time>
      </trkpt>
      <trkpt lat="44.53336" lon="1.38339">
        <ele>150.4</ele>
        <time>2018-06-24T14:11:28Z</time>
      </trkpt>
      <trkpt lat="44.5333" lon="1.38341">
        <ele>149.7</ele>
        <time>2018-06-24T14:11:33Z</time>
      </trkpt>
      <trkpt lat="44.53326" lon="1.38342">
        <ele>149.1</ele>
        <time>2018-06-24T14:11:36Z</time>
      </trkpt>
      <trkpt lat="44.5332" lon="1.38341">
        <ele>148.5</ele>
        <time>2018-06-24T14:11:41Z</time>
      </trkpt>
      <trkpt lat="44.53316" lon="1.38342">
        <ele>148</ele>
        <time>2018-06-24T14:11:48Z</time>
      </trkpt>
      <trkpt lat="44.53311" lon="1.38342">
        <ele>147.5</ele>
        <time>2018-06-24T14:11:52Z</time>
      </trkpt>
      <trkpt lat="44.53306" lon="1.38344">
        <ele>147</ele>
        <time>2018-06-24T14:11:55Z</time>
      </trkpt>
      <trkpt lat="44.533" lon="1.38343">
        <ele>146.5</ele>
        <time>2018-06-24T14:11:59Z</time>
      </trkpt>
      <trkpt lat="44.53295" lon="1.38342">
        <ele>146</ele>
        <time>2018-06-24T14:12:04Z</time>
      </trkpt>
      <trkpt lat="44.5329" lon="1.38341">
        <ele>145.7</ele>
        <time>2018-06-24T14:12:10Z</time>
      </trkpt>
      <trkpt lat="44.53286" lon="1.38341">
        <ele>145.6</ele>
        <time>2018-06-24T14:12:13Z</time>
      </trkpt>
      <trkpt lat="44.53279" lon="1.38341">
        <ele>145.7</ele>
        <time>2018-06-24T14:12:16Z</time>
      </trkpt>
      <trkpt lat="44.53274" lon="1.38342">
        <ele>145.8</ele>
        <time>2018-06-24T14:12:20Z</time>
      </trkpt>
      <trkpt lat="44.53269" lon="1.38343">
        <ele>146.1</ele>
        <time>2018-06-24T14:12:24Z</time>
      </trkpt>
      <trkpt lat="44.53265" lon="1.38342">
        <ele>146.4</ele>
        <time>2018-06-24T14:12:28Z</time>
      </trkpt>
      <trkpt lat="44.5326" lon="1.38342">
        <ele>146.6</ele>
        <time>2018-06-24T14:12:31Z</time>
      </trkpt>
      <trkpt lat="44.53255" lon="1.38343">
        <ele>146.9</ele>
        <time>2018-06-24T14:12:35Z</time>
      </trkpt>
      <trkpt lat="44.53251" lon="1.38343">
        <ele>147.2</ele>
        <time>2018-06-24T14:12:39Z</time>
      </trkpt>
      <trkpt lat="44.53245" lon="1.38341">
        <ele>147.4</ele>
        <time>2018-06-24T14:12:44Z</time>
      </trkpt>
      <trkpt lat="44.5324" lon="1.3834">
        <ele>147.6</ele>
        <time>2018-06-24T14:12:50Z</time>
      </trkpt>
      <trkpt lat="44.53235" lon="1.38341">
        <ele>147.7</ele>
        <time>2018-06-24T14:12:55Z</time>
      </trkpt>
      <trkpt lat="44.5323" lon="1.38344">
        <ele>147.6</ele>
        <time>2018-06-24T14:13:00Z</time>
      </trkpt>
      <trkpt lat="44.53225" lon="1.38345">
        <ele>147.4</ele>
        <time>2018-06-24T14:13:03Z</time>
      </trkpt>
      <trkpt lat="44.5322" lon="1.38345">
        <ele>147.2</ele>
        <time>2018-06-24T14:13:07Z</time>
      </trkpt>
      <trkpt lat="44.53215" lon="1.38345">
        <ele>147</ele>
        <time>2018-06-24T14:13:11Z</time>
      </trkpt>
      <trkpt lat="44.5321" lon="1.38343">
        <ele>146.8</ele>
        <time>2018-06-24T14:13:16Z</time>
      </trkpt>
      <trkpt lat="44.53204" lon="1.38346">
        <ele>146.7</ele>
        <time>2018-06-24T14:13:20Z</time>
      </trkpt>
      <trkpt lat="44.53199" lon="1.38346">
        <ele>146.7</ele>
        <time>2018-06-24T14:13:24Z</time>
      </trkpt>
      <trkpt lat="44.53194" lon="1.38345">
        <ele>146.7</ele>
        <time>2018-06-24T14:13:28Z</time>
      </trkpt>
      <trkpt lat="44.53189" lon="1.38346">
        <ele>146.8</ele>
        <time>2018-06-24T14:13:32Z</time>
      </trkpt>
      <trkpt lat="44.53185" lon="1.38351">
        <ele>147</ele>
        <time>2018-06-24T14:13:37Z</time>
      </trkpt>
      <trkpt lat="44.53182" lon="1.38356">
        <ele>147.3</ele>
        <time>2018-06-24T14:13:41Z</time>
      </trkpt>
      <trkpt lat="44.53177" lon="1.38358">
        <ele>147.5</ele>
        <time>2018-06-24T14:13:46Z</time>
      </trkpt>
      <trkpt lat="44.53172" lon="1.38361">
        <ele>147.7</ele>
        <time>2018-06-24T14:13:50Z</time>
      </trkpt>
      <trkpt lat="44.53167" lon="1.38363">
        <ele>147.7</ele>
        <time>2018-06-24T14:13:54Z</time>
      </trkpt>
      <trkpt lat="44.53162" lon="1.38367">
        <ele>147.6</ele>
        <time>2018-06-24T14:14:00Z</time>
      </trkpt>
      <trkpt lat="44.53157" lon="1.3837">
        <ele>147.4</ele>
        <time>2018-06-24T14:14:04Z</time>
      </trkpt>
      <trkpt lat="44.53153" lon="1.38374">
        <ele>147.2</ele>
        <time>2018-06-24T14:14:08Z</time>
      </trkpt>
      <trkpt lat="44.53148" lon="1.38379">
        <ele>147</ele>
        <time>2018-06-24T14:14:14Z</time>
      </trkpt>
      <trkpt lat="44.53143" lon="1.38383">
        <ele>146.9</ele>
        <time>2018-06-24T14:14:18Z</time>
      </trkpt>
      <trkpt lat="44.53139" lon="1.38387">
        <ele>146.9</ele>
        <time>2018-06-24T14:14:22Z</time>
      </trkpt>
      <trkpt lat="44.53134" lon="1.3839">
        <ele>146.9</ele>
        <time>2018-06-24T14:14:26Z</time>
      </trkpt>
      <trkpt lat="44.53129" lon="1.38395">
        <ele>146.9</ele>
        <time>2018-06-24T14:14:30Z</time>
      </trkpt>
      <trkpt lat="44.53125" lon="1.384">
        <ele>146.9</ele>
        <time>2018-06-24T14:14:36Z</time>
      </trkpt>
      <trkpt lat="44.53122" lon="1.38405">
        <ele>146.9</ele>
        <time>2018-06-24T14:14:40Z</time>
      </trkpt>
      <trkpt lat="44.53117" lon="1.38411">
        <ele>146.9</ele>
        <time>2018-06-24T14:14:44Z</time>
      </trkpt>
      <trkpt lat="44.53113" lon="1.38417">
        <ele>147</ele>
        <time>2018-06-24T14:14:47Z</time>
      </trkpt>
      <trkpt lat="44.5311" lon="1.38422">
        <ele>147.1</ele>
        <time>2018-06-24T14:14:49Z</time>
      </trkpt>
      <trkpt lat="44.53106" lon="1.38427">
        <ele>146.9</ele>
        <time>2018-06-24T14:14:54Z</time>
      </trkpt>
      <trkpt lat="44.53103" lon="1.38433">
        <ele>146.5</ele>
        <time>2018-06-24T14:15:02Z</time>
      </trkpt>
      <trkpt lat="44.53098" lon="1.38436">
        <ele>145.8</ele>
        <time>2018-06-24T14:15:08Z</time>
      </trkpt>
      <trkpt lat="44.53094" lon="1.3844">
        <ele>146</ele>
        <time>2018-06-24T14:15:13Z</time>
      </trkpt>
      <trkpt lat="44.53089" lon="1.38444">
        <ele>146.3</ele>
        <time>2018-06-24T14:15:19Z</time>
      </trkpt>
      <trkpt lat="44.53085" lon="1.3845">
        <ele>147</ele>
        <time>2018-06-24T14:15:22Z</time>
      </trkpt>
      <trkpt lat="44.53081" lon="1.38453">
        <ele>147.9</ele>
        <time>2018-06-24T14:15:29Z</time>
      </trkpt>
      <trkpt lat="44.53076" lon="1.38456">
        <ele>149.2</ele>
        <time>2018-06-24T14:18:08Z</time>
      </trkpt>
      <trkpt lat="44.53072" lon="1.38461">
        <ele>149.7</ele>
        <time>2018-06-24T14:18:11Z</time>
      </trkpt>
      <trkpt lat="44.53069" lon="1.38468">
        <ele>150.1</ele>
        <time>2018-06-24T14:18:15Z</time>
      </trkpt>
      <trkpt lat="44.53066" lon="1.38474">
        <ele>150.4</ele>
        <time>2018-06-24T14:18:19Z</time>
      </trkpt>
      <trkpt lat="44.53062" lon="1.38479">
        <ele>150.8</ele>
        <time>2018-06-24T14:18:26Z</time>
      </trkpt>
      <trkpt lat="44.53058" lon="1.38483">
        <ele>151.1</ele>
        <time>2018-06-24T14:18:29Z</time>
      </trkpt>
      <trkpt lat="44.53054" lon="1.38487">
        <ele>151.4</ele>
        <time>2018-06-24T14:18:33Z</time>
      </trkpt>
      <trkpt lat="44.53051" lon="1.38491">
        <ele>151.7</ele>
        <time>2018-06-24T14:18:38Z</time>
      </trkpt>
      <trkpt lat="44.53047" lon="1.38496">
        <ele>152.1</ele>
        <time>2018-06-24T14:18:41Z</time>
      </trkpt>
      <trkpt lat="44.53043" lon="1.385">
        <ele>152.4</ele>
        <time>2018-06-24T14:18:49Z</time>
      </trkpt>
      <trkpt lat="44.53039" lon="1.38502">
        <ele>152.6</ele>
        <time>2018-06-24T14:18:53Z</time>
      </trkpt>
      <trkpt lat="44.53034" lon="1.38505">
        <ele>152.4</ele>
        <time>2018-06-24T14:18:56Z</time>
      </trkpt>
      <trkpt lat="44.5303" lon="1.38508">
        <ele>152.1</ele>
        <time>2018-06-24T14:19:01Z</time>
      </trkpt>
      <trkpt lat="44.53025" lon="1.38512">
        <ele>151.6</ele>
        <time>2018-06-24T14:19:06Z</time>
      </trkpt>
      <trkpt lat="44.53021" lon="1.38515">
        <ele>150.9</ele>
        <time>2018-06-24T14:19:13Z</time>
      </trkpt>
      <trkpt lat="44.53018" lon="1.3852">
        <ele>150.1</ele>
        <time>2018-06-24T14:19:18Z</time>
      </trkpt>
      <trkpt lat="44.53013" lon="1.38523">
        <ele>149.4</ele>
        <time>2018-06-24T14:19:22Z</time>
      </trkpt>
      <trkpt lat="44.5301" lon="1.38529">
        <ele>148.7</ele>
        <time>2018-06-24T14:19:27Z</time>
      </trkpt>
      <trkpt lat="44.53007" lon="1.38536">
        <ele>148.1</ele>
        <time>2018-06-24T14:19:31Z</time>
      </trkpt>
      <trkpt lat="44.53003" lon="1.3854">
        <ele>147.6</ele>
        <time>2018-06-24T14:19:35Z</time>
      </trkpt>
      <trkpt lat="44.52998" lon="1.38543">
        <ele>147.1</ele>
        <time>2018-06-24T14:19:41Z</time>
      </trkpt>
      <trkpt lat="44.52994" lon="1.38549">
        <ele>146.7</ele>
        <time>2018-06-24T14:19:45Z</time>
      </trkpt>
      <trkpt lat="44.52991" lon="1.38553">
        <ele>146.3</ele>
        <time>2018-06-24T14:19:49Z</time>
      </trkpt>
      <trkpt lat="44.52986" lon="1.38556">
        <ele>146</ele>
        <time>2018-06-24T14:19:55Z</time>
      </trkpt>
      <trkpt lat="44.52983" lon="1.38561">
        <ele>145.6</ele>
        <time>2018-06-24T14:19:58Z</time>
      </trkpt>
      <trkpt lat="44.52979" lon="1.38566">
        <ele>145.1</ele>
        <time>2018-06-24T14:20:05Z</time>
      </trkpt>
      <trkpt lat="44.52973" lon="1.3857">
        <ele>144.6</ele>
        <time>2018-06-24T14:20:09Z</time>
      </trkpt>
      <trkpt lat="44.52969" lon="1.38576">
        <ele>143.9</ele>
        <time>2018-06-24T14:20:13Z</time>
      </trkpt>
      <trkpt lat="44.52965" lon="1.3858">
        <ele>143.1</ele>
        <time>2018-06-24T14:20:18Z</time>
      </trkpt>
      <trkpt lat="44.5296" lon="1.38582">
        <ele>142.2</ele>
        <time>2018-06-24T14:20:24Z</time>
      </trkpt>
      <trkpt lat="44.52957" lon="1.38588">
        <ele>141.4</ele>
        <time>2018-06-24T14:20:27Z</time>
      </trkpt>
      <trkpt lat="44.52953" lon="1.38592">
        <ele>140.7</ele>
        <time>2018-06-24T14:20:32Z</time>
      </trkpt>
      <trkpt lat="44.52949" lon="1.38595">
        <ele>140.3</ele>
        <time>2018-06-24T14:20:37Z</time>
      </trkpt>
      <trkpt lat="44.52945" lon="1.386">
        <ele>140.1</ele>
        <time>2018-06-24T14:20:42Z</time>
      </trkpt>
      <trkpt lat="44.52941" lon="1.38602">
        <ele>140.1</ele>
        <time>2018-06-24T14:20:45Z</time>
      </trkpt>
      <trkpt lat="44.52937" lon="1.38608">
        <ele>140.2</ele>
        <time>2018-06-24T14:20:49Z</time>
      </trkpt>
      <trkpt lat="44.52933" lon="1.38613">
        <ele>140.4</ele>
        <time>2018-06-24T14:20:53Z</time>
      </trkpt>
      <trkpt lat="44.52928" lon="1.38616">
        <ele>140.7</ele>
        <time>2018-06-24T14:20:56Z</time>
      </trkpt>
      <trkpt lat="44.52925" lon="1.3862">
        <ele>140.9</ele>
        <time>2018-06-24T14:21:01Z</time>
      </trkpt>
      <trkpt lat="44.5292" lon="1.38624">
        <ele>141.1</ele>
        <time>2018-06-24T14:21:06Z</time>
      </trkpt>
      <trkpt lat="44.52916" lon="1.3863">
        <ele>141.2</ele>
        <time>2018-06-24T14:21:10Z</time>
      </trkpt>
      <trkpt lat="44.52912" lon="1.38633">
        <ele>141.4</ele>
        <time>2018-06-24T14:21:15Z</time>
      </trkpt>
      <trkpt lat="44.52908" lon="1.38636">
        <ele>141.5</ele>
        <time>2018-06-24T14:21:20Z</time>
      </trkpt>
      <trkpt lat="44.52903" lon="1.3864">
        <ele>141.5</ele>
        <time>2018-06-24T14:21:26Z</time>
      </trkpt>
      <trkpt lat="44.52898" lon="1.38644">
        <ele>141.5</ele>
        <time>2018-06-24T14:21:30Z</time>
      </trkpt>
      <trkpt lat="44.52893" lon="1.38646">
        <ele>141.5</ele>
        <time>2018-06-24T14:21:34Z</time>
      </trkpt>
      <trkpt lat="44.52889" lon="1.3865">
        <ele>141.6</ele>
        <time>2018-06-24T14:21:38Z</time>
      </trkpt>
      <trkpt lat="44.52886" lon="1.38654">
        <ele>141.7</ele>
        <time>2018-06-24T14:21:43Z</time>
      </trkpt>
      <trkpt lat="44.52882" lon="1.38659">
        <ele>141.8</ele>
        <time>2018-06-24T14:21:48Z</time>
      </trkpt>
      <trkpt lat="44.52879" lon="1.38664">
        <ele>141.9</ele>
        <time>2018-06-24T14:21:53Z</time>
      </trkpt>
      <trkpt lat="44.52875" lon="1.38669">
        <ele>142</ele>
        <time>2018-06-24T14:21:56Z</time>
      </trkpt>
      <trkpt lat="44.52871" lon="1.38672">
        <ele>142</ele>
        <time>2018-06-24T14:22:01Z</time>
      </trkpt>
      <trkpt lat="44.52866" lon="1.38676">
        <ele>141.8</ele>
        <time>2018-06-24T14:22:07Z</time>
      </trkpt>
      <trkpt lat="44.52861" lon="1.38678">
        <ele>141.5</ele>
        <time>2018-06-24T14:22:13Z</time>
      </trkpt>
      <trkpt lat="44.52856" lon="1.38683">
        <ele>141.4</ele>
        <time>2018-06-24T14:22:17Z</time>
      </trkpt>
      <trkpt lat="44.52852" lon="1.38687">
        <ele>141.3</ele>
        <time>2018-06-24T14:22:21Z</time>
      </trkpt>
      <trkpt lat="44.52846" lon="1.38689">
        <ele>141.3</ele>
        <time>2018-06-24T14:22:25Z</time>
      </trkpt>
      <trkpt lat="44.52841" lon="1.38692">
        <ele>141.4</ele>
        <time>2018-06-24T14:22:31Z</time>
      </trkpt>
      <trkpt lat="44.52837" lon="1.38695">
        <ele>141.5</ele>
        <time>2018-06-24T14:22:36Z</time>
      </trkpt>
      <trkpt lat="44.52832" lon="1.38698">
        <ele>141.6</ele>
        <time>2018-06-24T14:22:42Z</time>
      </trkpt>
      <trkpt lat="44.52828" lon="1.38702">
        <ele>141.6</ele>
        <time>2018-06-24T14:22:45Z</time>
      </trkpt>
      <trkpt lat="44.52824" lon="1.38705">
        <ele>141.5</ele>
        <time>2018-06-24T14:22:49Z</time>
      </trkpt>
      <trkpt lat="44.5282" lon="1.3871">
        <ele>141.4</ele>
        <time>2018-06-24T14:22:52Z</time>
      </trkpt>
      <trkpt lat="44.52816" lon="1.38713">
        <ele>141.3</ele>
        <time>2018-06-24T14:22:55Z</time>
      </trkpt>
      <trkpt lat="44.52812" lon="1.38718">
        <ele>141.2</ele>
        <time>2018-06-24T14:22:58Z</time>
      </trkpt>
      <trkpt lat="44.52807" lon="1.38721">
        <ele>141.2</ele>
        <time>2018-06-24T14:23:02Z</time>
      </trkpt>
      <trkpt lat="44.52803" lon="1.38725">
        <ele>141.2</ele>
        <time>2018-06-24T14:23:08Z</time>
      </trkpt>
      <trkpt lat="44.52798" lon="1.38729">
        <ele>141.2</ele>
        <time>2018-06-24T14:23:12Z</time>
      </trkpt>
      <trkpt lat="44.52793" lon="1.38731">
        <ele>141.3</ele>
        <time>2018-06-24T14:23:17Z</time>
      </trkpt>
      <trkpt lat="44.52787" lon="1.38733">
        <ele>141.3</ele>
        <time>2018-06-24T14:23:21Z</time>
      </trkpt>
      <trkpt lat="44.52783" lon="1.38733">
        <ele>141.4</ele>
        <time>2018-06-24T14:23:26Z</time>
      </trkpt>
      <trkpt lat="44.52777" lon="1.38735">
        <ele>141.5</ele>
        <time>2018-06-24T14:23:31Z</time>
      </trkpt>
      <trkpt lat="44.52774" lon="1.38738">
        <ele>141.5</ele>
        <time>2018-06-24T14:23:34Z</time>
      </trkpt>
      <trkpt lat="44.52769" lon="1.38743">
        <ele>141.5</ele>
        <time>2018-06-24T14:23:41Z</time>
      </trkpt>
      <trkpt lat="44.52763" lon="1.38745">
        <ele>141.4</ele>
        <time>2018-06-24T14:23:45Z</time>
      </trkpt>
      <trkpt lat="44.52758" lon="1.38747">
        <ele>141.2</ele>
        <time>2018-06-24T14:23:49Z</time>
      </trkpt>
      <trkpt lat="44.52753" lon="1.3875">
        <ele>141</ele>
        <time>2018-06-24T14:23:53Z</time>
      </trkpt>
      <trkpt lat="44.52749" lon="1.38754">
        <ele>140.8</ele>
        <time>2018-06-24T14:23:56Z</time>
      </trkpt>
      <trkpt lat="44.52745" lon="1.38757">
        <ele>140.6</ele>
        <time>2018-06-24T14:24:00Z</time>
      </trkpt>
      <trkpt lat="44.5274" lon="1.38761">
        <ele>140.4</ele>
        <time>2018-06-24T14:24:05Z</time>
      </trkpt>
      <trkpt lat="44.52735" lon="1.38763">
        <ele>140.3</ele>
        <time>2018-06-24T14:24:08Z</time>
      </trkpt>
      <trkpt lat="44.52731" lon="1.38765">
        <ele>140.1</ele>
        <time>2018-06-24T14:24:12Z</time>
      </trkpt>
      <trkpt lat="44.52725" lon="1.38769">
        <ele>140</ele>
        <time>2018-06-24T14:24:18Z</time>
      </trkpt>
      <trkpt lat="44.5272" lon="1.38771">
        <ele>139.9</ele>
        <time>2018-06-24T14:24:21Z</time>
      </trkpt>
      <trkpt lat="44.52715" lon="1.38774">
        <ele>139.9</ele>
        <time>2018-06-24T14:24:26Z</time>
      </trkpt>
      <trkpt lat="44.52711" lon="1.38775">
        <ele>140</ele>
        <time>2018-06-24T14:24:32Z</time>
      </trkpt>
      <trkpt lat="44.52706" lon="1.38777">
        <ele>140.2</ele>
        <time>2018-06-24T14:24:37Z</time>
      </trkpt>
      <trkpt lat="44.527" lon="1.38779">
        <ele>140.4</ele>
        <time>2018-06-24T14:24:41Z</time>
      </trkpt>
      <trkpt lat="44.52695" lon="1.3878">
        <ele>140.6</ele>
        <time>2018-06-24T14:24:45Z</time>
      </trkpt>
      <trkpt lat="44.52691" lon="1.3878">
        <ele>140.7</ele>
        <time>2018-06-24T14:24:50Z</time>
      </trkpt>
      <trkpt lat="44.52685" lon="1.38782">
        <ele>140.7</ele>
        <time>2018-06-24T14:24:54Z</time>
      </trkpt>
      <trkpt lat="44.5268" lon="1.38783">
        <ele>140.7</ele>
        <time>2018-06-24T14:24:58Z</time>
      </trkpt>
      <trkpt lat="44.52675" lon="1.38785">
        <ele>140.7</ele>
        <time>2018-06-24T14:25:04Z</time>
      </trkpt>
      <trkpt lat="44.5267" lon="1.38787">
        <ele>140.7</ele>
        <time>2018-06-24T14:25:09Z</time>
      </trkpt>
      <trkpt lat="44.52666" lon="1.38789">
        <ele>140.6</ele>
        <time>2018-06-24T14:25:12Z</time>
      </trkpt>
      <trkpt lat="44.52662" lon="1.38789">
        <ele>140.5</ele>
        <time>2018-06-24T14:25:16Z</time>
      </trkpt>
      <trkpt lat="44.52657" lon="1.38789">
        <ele>140.3</ele>
        <time>2018-06-24T14:25:20Z</time>
      </trkpt>
      <trkpt lat="44.52652" lon="1.3879">
        <ele>140.1</ele>
        <time>2018-06-24T14:25:23Z</time>
      </trkpt>
      <trkpt lat="44.52647" lon="1.38793">
        <ele>140.1</ele>
        <time>2018-06-24T14:25:28Z</time>
      </trkpt>
      <trkpt lat="44.52642" lon="1.38792">
        <ele>140</ele>
        <time>2018-06-24T14:25:32Z</time>
      </trkpt>
      <trkpt lat="44.52636" lon="1.38791">
        <ele>140</ele>
        <time>2018-06-24T14:25:36Z</time>
      </trkpt>
      <trkpt lat="44.52631" lon="1.38791">
        <ele>139.9</ele>
        <time>2018-06-24T14:25:41Z</time>
      </trkpt>
      <trkpt lat="44.52625" lon="1.38793">
        <ele>139.8</ele>
        <time>2018-06-24T14:25:45Z</time>
      </trkpt>
      <trkpt lat="44.5262" lon="1.38792">
        <ele>139.6</ele>
        <time>2018-06-24T14:25:50Z</time>
      </trkpt>
      <trkpt lat="44.52615" lon="1.38791">
        <ele>139.4</ele>
        <time>2018-06-24T14:25:54Z</time>
      </trkpt>
      <trkpt lat="44.5261" lon="1.38791">
        <ele>139.4</ele>
        <time>2018-06-24T14:25:58Z</time>
      </trkpt>
      <trkpt lat="44.52605" lon="1.38791">
        <ele>139.6</ele>
        <time>2018-06-24T14:26:03Z</time>
      </trkpt>
      <trkpt lat="44.526" lon="1.38791">
        <ele>140</ele>
        <time>2018-06-24T14:26:07Z</time>
      </trkpt>
      <trkpt lat="44.52595" lon="1.38791">
        <ele>140.4</ele>
        <time>2018-06-24T14:26:11Z</time>
      </trkpt>
      <trkpt lat="44.52591" lon="1.38789">
        <ele>140.7</ele>
        <time>2018-06-24T14:26:17Z</time>
      </trkpt>
      <trkpt lat="44.52585" lon="1.3879">
        <ele>140.8</ele>
        <time>2018-06-24T14:26:21Z</time>
      </trkpt>
      <trkpt lat="44.5258" lon="1.38793">
        <ele>140.7</ele>
        <time>2018-06-24T14:26:27Z</time>
      </trkpt>
      <trkpt lat="44.52575" lon="1.38794">
        <ele>140.5</ele>
        <time>2018-06-24T14:26:31Z</time>
      </trkpt>
      <trkpt lat="44.5257" lon="1.38792">
        <ele>140.2</ele>
        <time>2018-06-24T14:26:36Z</time>
      </trkpt>
      <trkpt lat="44.52564" lon="1.38793">
        <ele>140</ele>
        <time>2018-06-24T14:26:40Z</time>
      </trkpt>
      <trkpt lat="44.5256" lon="1.38793">
        <ele>139.8</ele>
        <time>2018-06-24T14:26:46Z</time>
      </trkpt>
      <trkpt lat="44.52555" lon="1.38794">
        <ele>139.7</ele>
        <time>2018-06-24T14:26:49Z</time>
      </trkpt>
      <trkpt lat="44.52551" lon="1.38795">
        <ele>139.6</ele>
        <time>2018-06-24T14:26:52Z</time>
      </trkpt>
      <trkpt lat="44.52545" lon="1.38797">
        <ele>139.4</ele>
        <time>2018-06-24T14:26:56Z</time>
      </trkpt>
      <trkpt lat="44.52541" lon="1.38799">
        <ele>139.3</ele>
        <time>2018-06-24T14:27:00Z</time>
      </trkpt>
      <trkpt lat="44.52536" lon="1.38799">
        <ele>139.3</ele>
        <time>2018-06-24T14:27:04Z</time>
      </trkpt>
      <trkpt lat="44.52531" lon="1.388">
        <ele>139.2</ele>
        <time>2018-06-24T14:27:08Z</time>
      </trkpt>
      <trkpt lat="44.52527" lon="1.38803">
        <ele>139</ele>
        <time>2018-06-24T14:27:12Z</time>
      </trkpt>
      <trkpt lat="44.52521" lon="1.38803">
        <ele>138.9</ele>
        <time>2018-06-24T14:27:16Z</time>
      </trkpt>
      <trkpt lat="44.52516" lon="1.38802">
        <ele>138.9</ele>
        <time>2018-06-24T14:27:20Z</time>
      </trkpt>
      <trkpt lat="44.52511" lon="1.388">
        <ele>138.5</ele>
        <time>2018-06-24T14:27:24Z</time>
      </trkpt>
      <trkpt lat="44.52506" lon="1.388">
        <ele>138.1</ele>
        <time>2018-06-24T14:27:29Z</time>
      </trkpt>
      <trkpt lat="44.52502" lon="1.38801">
        <ele>137.8</ele>
        <time>2018-06-24T14:27:35Z</time>
      </trkpt>
      <trkpt lat="44.52497" lon="1.388">
        <ele>137.6</ele>
        <time>2018-06-24T14:27:42Z</time>
      </trkpt>
      <trkpt lat="44.52493" lon="1.38797">
        <ele>137.6</ele>
        <time>2018-06-24T14:29:32Z</time>
      </trkpt>
      <trkpt lat="44.52489" lon="1.38794">
        <ele>138.1</ele>
        <time>2018-06-24T14:29:39Z</time>
      </trkpt>
      <trkpt lat="44.52485" lon="1.38792">
        <ele>138.7</ele>
        <time>2018-06-24T14:29:44Z</time>
      </trkpt>
      <trkpt lat="44.52481" lon="1.38788">
        <ele>139.4</ele>
        <time>2018-06-24T14:29:53Z</time>
      </trkpt>
      <trkpt lat="44.52476" lon="1.38784">
        <ele>139.9</ele>
        <time>2018-06-24T14:29:59Z</time>
      </trkpt>
      <trkpt lat="44.52473" lon="1.3878">
        <ele>140.5</ele>
        <time>2018-06-24T14:30:04Z</time>
      </trkpt>
      <trkpt lat="44.52469" lon="1.38774">
        <ele>141</ele>
        <time>2018-06-24T14:30:08Z</time>
      </trkpt>
      <trkpt lat="44.52465" lon="1.38768">
        <ele>141.4</ele>
        <time>2018-06-24T14:30:13Z</time>
      </trkpt>
      <trkpt lat="44.52462" lon="1.38763">
        <ele>141.6</ele>
        <time>2018-06-24T14:30:16Z</time>
      </trkpt>
      <trkpt lat="44.52458" lon="1.38758">
        <ele>141.4</ele>
        <time>2018-06-24T14:30:21Z</time>
      </trkpt>
      <trkpt lat="44.52454" lon="1.38754">
        <ele>141.1</ele>
        <time>2018-06-24T14:30:26Z</time>
      </trkpt>
      <trkpt lat="44.5245" lon="1.38752">
        <ele>140.8</ele>
        <time>2018-06-24T14:30:30Z</time>
      </trkpt>
      <trkpt lat="44.52445" lon="1.38749">
        <ele>140.6</ele>
        <time>2018-06-24T14:30:39Z</time>
      </trkpt>
      <trkpt lat="44.52441" lon="1.38746">
        <ele>140.7</ele>
        <time>2018-06-24T14:30:47Z</time>
      </trkpt>
      <trkpt lat="44.52436" lon="1.38744">
        <ele>140.8</ele>
        <time>2018-06-24T14:30:52Z</time>
      </trkpt>
      <trkpt lat="44.52431" lon="1.38741">
        <ele>140.9</ele>
        <time>2018-06-24T14:30:59Z</time>
      </trkpt>
      <trkpt lat="44.52426" lon="1.38738">
        <ele>140.8</ele>
        <time>2018-06-24T14:31:04Z</time>
      </trkpt>
      <trkpt lat="44.52422" lon="1.38735">
        <ele>140.4</ele>
        <time>2018-06-24T14:31:09Z</time>
      </trkpt>
      <trkpt lat="44.52417" lon="1.38732">
        <ele>140</ele>
        <time>2018-06-24T14:31:14Z</time>
      </trkpt>
      <trkpt lat="44.52413" lon="1.38729">
        <ele>139.7</ele>
        <time>2018-06-24T14:31:20Z</time>
      </trkpt>
      <trkpt lat="44.52408" lon="1.38724">
        <ele>139.6</ele>
        <time>2018-06-24T14:31:24Z</time>
      </trkpt>
      <trkpt lat="44.52404" lon="1.38722">
        <ele>139.6</ele>
        <time>2018-06-24T14:31:28Z</time>
      </trkpt>
      <trkpt lat="44.52399" lon="1.38719">
        <ele>139.7</ele>
        <time>2018-06-24T14:31:35Z</time>
      </trkpt>
      <trkpt lat="44.52395" lon="1.38715">
        <ele>139.9</ele>
        <time>2018-06-24T14:31:39Z</time>
      </trkpt>
      <trkpt lat="44.52391" lon="1.38711">
        <ele>140</ele>
        <time>2018-06-24T14:31:43Z</time>
      </trkpt>
      <trkpt lat="44.52387" lon="1.38705">
        <ele>140.2</ele>
        <time>2018-06-24T14:31:48Z</time>
      </trkpt>
      <trkpt lat="44.52383" lon="1.38699">
        <ele>140.4</ele>
        <time>2018-06-24T14:31:53Z</time>
      </trkpt>
      <trkpt lat="44.52379" lon="1.38695">
        <ele>140.6</ele>
        <time>2018-06-24T14:31:55Z</time>
      </trkpt>
      <trkpt lat="44.52376" lon="1.3869">
        <ele>140.8</ele>
        <time>2018-06-24T14:32:00Z</time>
      </trkpt>
      <trkpt lat="44.5237" lon="1.38686">
        <ele>140.9</ele>
        <time>2018-06-24T14:32:04Z</time>
      </trkpt>
      <trkpt lat="44.52365" lon="1.38683">
        <ele>141</ele>
        <time>2018-06-24T14:32:09Z</time>
      </trkpt>
      <trkpt lat="44.52361" lon="1.38679">
        <ele>141.1</ele>
        <time>2018-06-24T14:32:13Z</time>
      </trkpt>
      <trkpt lat="44.52356" lon="1.38677">
        <ele>141.1</ele>
        <time>2018-06-24T14:32:19Z</time>
      </trkpt>
      <trkpt lat="44.52352" lon="1.38675">
        <ele>141.2</ele>
        <time>2018-06-24T14:32:24Z</time>
      </trkpt>
      <trkpt lat="44.52347" lon="1.38673">
        <ele>141.4</ele>
        <time>2018-06-24T14:32:29Z</time>
      </trkpt>
      <trkpt lat="44.52343" lon="1.3867">
        <ele>141.5</ele>
        <time>2018-06-24T14:32:33Z</time>
      </trkpt>
      <trkpt lat="44.52339" lon="1.38667">
        <ele>141.7</ele>
        <time>2018-06-24T14:32:37Z</time>
      </trkpt>
      <trkpt lat="44.52334" lon="1.38664">
        <ele>141.8</ele>
        <time>2018-06-24T14:32:41Z</time>
      </trkpt>
      <trkpt lat="44.52331" lon="1.3866">
        <ele>141.8</ele>
        <time>2018-06-24T14:32:45Z</time>
      </trkpt>
      <trkpt lat="44.52327" lon="1.38655">
        <ele>141.9</ele>
        <time>2018-06-24T14:32:49Z</time>
      </trkpt>
      <trkpt lat="44.52324" lon="1.3865">
        <ele>141.9</ele>
        <time>2018-06-24T14:32:53Z</time>
      </trkpt>
      <trkpt lat="44.52321" lon="1.38645">
        <ele>142</ele>
        <time>2018-06-24T14:32:57Z</time>
      </trkpt>
      <trkpt lat="44.52317" lon="1.38641">
        <ele>142</ele>
        <time>2018-06-24T14:33:01Z</time>
      </trkpt>
      <trkpt lat="44.52314" lon="1.38636">
        <ele>142</ele>
        <time>2018-06-24T14:33:06Z</time>
      </trkpt>
      <trkpt lat="44.5231" lon="1.38631">
        <ele>142.1</ele>
        <time>2018-06-24T14:33:11Z</time>
      </trkpt>
      <trkpt lat="44.52307" lon="1.38625">
        <ele>142.2</ele>
        <time>2018-06-24T14:33:16Z</time>
      </trkpt>
      <trkpt lat="44.52303" lon="1.38621">
        <ele>142.4</ele>
        <time>2018-06-24T14:33:19Z</time>
      </trkpt>
      <trkpt lat="44.523" lon="1.38616">
        <ele>142.6</ele>
        <time>2018-06-24T14:33:23Z</time>
      </trkpt>
      <trkpt lat="44.52297" lon="1.38611">
        <ele>142.7</ele>
        <time>2018-06-24T14:33:28Z</time>
      </trkpt>
      <trkpt lat="44.52294" lon="1.38605">
        <ele>142.8</ele>
        <time>2018-06-24T14:33:32Z</time>
      </trkpt>
      <trkpt lat="44.5229" lon="1.38599">
        <ele>142.7</ele>
        <time>2018-06-24T14:33:37Z</time>
      </trkpt>
      <trkpt lat="44.52287" lon="1.38595">
        <ele>142.6</ele>
        <time>2018-06-24T14:33:41Z</time>
      </trkpt>
      <trkpt lat="44.52283" lon="1.3859">
        <ele>142.4</ele>
        <time>2018-06-24T14:33:45Z</time>
      </trkpt>
      <trkpt lat="44.52279" lon="1.38585">
        <ele>142.3</ele>
        <time>2018-06-24T14:33:50Z</time>
      </trkpt>
      <trkpt lat="44.52275" lon="1.3858">
        <ele>142.2</ele>
        <time>2018-06-24T14:33:55Z</time>
      </trkpt>
      <trkpt lat="44.52271" lon="1.38575">
        <ele>142</ele>
        <time>2018-06-24T14:34:00Z</time>
      </trkpt>
      <trkpt lat="44.52268" lon="1.38569">
        <ele>141.9</ele>
        <time>2018-06-24T14:34:04Z</time>
      </trkpt>
      <trkpt lat="44.52264" lon="1.38564">
        <ele>141.8</ele>
        <time>2018-06-24T14:34:08Z</time>
      </trkpt>
      <trkpt lat="44.5226" lon="1.38559">
        <ele>141.8</ele>
        <time>2018-06-24T14:34:12Z</time>
      </trkpt>
      <trkpt lat="44.52256" lon="1.38553">
        <ele>141.8</ele>
        <time>2018-06-24T14:34:17Z</time>
      </trkpt>
      <trkpt lat="44.52253" lon="1.38549">
        <ele>141.9</ele>
        <time>2018-06-24T14:34:21Z</time>
      </trkpt>
      <trkpt lat="44.5225" lon="1.38544">
        <ele>142</ele>
        <time>2018-06-24T14:34:25Z</time>
      </trkpt>
      <trkpt lat="44.52247" lon="1.38539">
        <ele>142</ele>
        <time>2018-06-24T14:34:28Z</time>
      </trkpt>
      <trkpt lat="44.52243" lon="1.38532">
        <ele>141.9</ele>
        <time>2018-06-24T14:34:33Z</time>
      </trkpt>
      <trkpt lat="44.5224" lon="1.38527">
        <ele>141.9</ele>
        <time>2018-06-24T14:34:38Z</time>
      </trkpt>
      <trkpt lat="44.52237" lon="1.3852">
        <ele>141.8</ele>
        <time>2018-06-24T14:34:42Z</time>
      </trkpt>
      <trkpt lat="44.52233" lon="1.38514">
        <ele>141.8</ele>
        <time>2018-06-24T14:34:47Z</time>
      </trkpt>
      <trkpt lat="44.52229" lon="1.38509">
        <ele>141.8</ele>
        <time>2018-06-24T14:34:52Z</time>
      </trkpt>
      <trkpt lat="44.52225" lon="1.38504">
        <ele>141.8</ele>
        <time>2018-06-24T14:34:57Z</time>
      </trkpt>
      <trkpt lat="44.52222" lon="1.38498">
        <ele>141.8</ele>
        <time>2018-06-24T14:35:02Z</time>
      </trkpt>
      <trkpt lat="44.52218" lon="1.38493">
        <ele>141.6</ele>
        <time>2018-06-24T14:35:06Z</time>
      </trkpt>
      <trkpt lat="44.52215" lon="1.38489">
        <ele>141.5</ele>
        <time>2018-06-24T14:35:11Z</time>
      </trkpt>
      <trkpt lat="44.52211" lon="1.38483">
        <ele>141.2</ele>
        <time>2018-06-24T14:35:15Z</time>
      </trkpt>
      <trkpt lat="44.52207" lon="1.38478">
        <ele>141</ele>
        <time>2018-06-24T14:35:18Z</time>
      </trkpt>
      <trkpt lat="44.52203" lon="1.38472">
        <ele>140.7</ele>
        <time>2018-06-24T14:35:22Z</time>
      </trkpt>
      <trkpt lat="44.52199" lon="1.38468">
        <ele>140.3</ele>
        <time>2018-06-24T14:35:27Z</time>
      </trkpt>
      <trkpt lat="44.52195" lon="1.38464">
        <ele>140</ele>
        <time>2018-06-24T14:35:31Z</time>
      </trkpt>
      <trkpt lat="44.52191" lon="1.3846">
        <ele>139.8</ele>
        <time>2018-06-24T14:35:34Z</time>
      </trkpt>
      <trkpt lat="44.52188" lon="1.38455">
        <ele>139.6</ele>
        <time>2018-06-24T14:35:40Z</time>
      </trkpt>
      <trkpt lat="44.52185" lon="1.3845">
        <ele>139.5</ele>
        <time>2018-06-24T14:35:44Z</time>
      </trkpt>
      <trkpt lat="44.52181" lon="1.38444">
        <ele>139.4</ele>
        <time>2018-06-24T14:35:48Z</time>
      </trkpt>
      <trkpt lat="44.52178" lon="1.38438">
        <ele>139.5</ele>
        <time>2018-06-24T14:35:52Z</time>
      </trkpt>
      <trkpt lat="44.52175" lon="1.38433">
        <ele>139.5</ele>
        <time>2018-06-24T14:35:57Z</time>
      </trkpt>
      <trkpt lat="44.52171" lon="1.38428">
        <ele>139.6</ele>
        <time>2018-06-24T14:36:02Z</time>
      </trkpt>
      <trkpt lat="44.52169" lon="1.38422">
        <ele>139.8</ele>
        <time>2018-06-24T14:36:06Z</time>
      </trkpt>
      <trkpt lat="44.52165" lon="1.38416">
        <ele>139.9</ele>
        <time>2018-06-24T14:36:11Z</time>
      </trkpt>
      <trkpt lat="44.52161" lon="1.38412">
        <ele>140.1</ele>
        <time>2018-06-24T14:36:14Z</time>
      </trkpt>
      <trkpt lat="44.52157" lon="1.38407">
        <ele>140.2</ele>
        <time>2018-06-24T14:36:19Z</time>
      </trkpt>
      <trkpt lat="44.52153" lon="1.38403">
        <ele>140.3</ele>
        <time>2018-06-24T14:36:22Z</time>
      </trkpt>
      <trkpt lat="44.52149" lon="1.38398">
        <ele>140.3</ele>
        <time>2018-06-24T14:36:27Z</time>
      </trkpt>
      <trkpt lat="44.52145" lon="1.38393">
        <ele>140.2</ele>
        <time>2018-06-24T14:36:31Z</time>
      </trkpt>
      <trkpt lat="44.52141" lon="1.38389">
        <ele>140.1</ele>
        <time>2018-06-24T14:36:36Z</time>
      </trkpt>
      <trkpt lat="44.52136" lon="1.38385">
        <ele>140.2</ele>
        <time>2018-06-24T14:36:41Z</time>
      </trkpt>
      <trkpt lat="44.52133" lon="1.38381">
        <ele>140.3</ele>
        <time>2018-06-24T14:36:45Z</time>
      </trkpt>
      <trkpt lat="44.52128" lon="1.38378">
        <ele>140.5</ele>
        <time>2018-06-24T14:36:50Z</time>
      </trkpt>
      <trkpt lat="44.52123" lon="1.38376">
        <ele>140.8</ele>
        <time>2018-06-24T14:36:54Z</time>
      </trkpt>
      <trkpt lat="44.52118" lon="1.38373">
        <ele>141.1</ele>
        <time>2018-06-24T14:36:58Z</time>
      </trkpt>
      <trkpt lat="44.52113" lon="1.38369">
        <ele>141.3</ele>
        <time>2018-06-24T14:37:03Z</time>
      </trkpt>
      <trkpt lat="44.52109" lon="1.38368">
        <ele>141.5</ele>
        <time>2018-06-24T14:37:06Z</time>
      </trkpt>
      <trkpt lat="44.52104" lon="1.38365">
        <ele>141.6</ele>
        <time>2018-06-24T14:37:10Z</time>
      </trkpt>
      <trkpt lat="44.521" lon="1.38363">
        <ele>141.6</ele>
        <time>2018-06-24T14:37:13Z</time>
      </trkpt>
      <trkpt lat="44.52094" lon="1.3836">
        <ele>141.6</ele>
        <time>2018-06-24T14:37:19Z</time>
      </trkpt>
      <trkpt lat="44.52089" lon="1.3836">
        <ele>141.6</ele>
        <time>2018-06-24T14:37:22Z</time>
      </trkpt>
      <trkpt lat="44.52084" lon="1.38359">
        <ele>141.5</ele>
        <time>2018-06-24T14:37:26Z</time>
      </trkpt>
      <trkpt lat="44.52079" lon="1.38358">
        <ele>141.2</ele>
        <time>2018-06-24T14:37:30Z</time>
      </trkpt>
      <trkpt lat="44.52074" lon="1.38356">
        <ele>140.9</ele>
        <time>2018-06-24T14:37:35Z</time>
      </trkpt>
      <trkpt lat="44.52069" lon="1.38355">
        <ele>140.6</ele>
        <time>2018-06-24T14:37:40Z</time>
      </trkpt>
      <trkpt lat="44.52065" lon="1.38352">
        <ele>140.3</ele>
        <time>2018-06-24T14:37:43Z</time>
      </trkpt>
      <trkpt lat="44.5206" lon="1.38349">
        <ele>140.1</ele>
        <time>2018-06-24T14:37:48Z</time>
      </trkpt>
      <trkpt lat="44.52055" lon="1.38346">
        <ele>140.1</ele>
        <time>2018-06-24T14:37:53Z</time>
      </trkpt>
      <trkpt lat="44.5205" lon="1.38345">
        <ele>140.2</ele>
        <time>2018-06-24T14:37:57Z</time>
      </trkpt>
      <trkpt lat="44.52045" lon="1.38343">
        <ele>140.3</ele>
        <time>2018-06-24T14:38:01Z</time>
      </trkpt>
      <trkpt lat="44.5204" lon="1.38341">
        <ele>140.5</ele>
        <time>2018-06-24T14:38:06Z</time>
      </trkpt>
      <trkpt lat="44.52035" lon="1.3834">
        <ele>140.5</ele>
        <time>2018-06-24T14:38:10Z</time>
      </trkpt>
      <trkpt lat="44.5203" lon="1.38338">
        <ele>140.4</ele>
        <time>2018-06-24T14:38:14Z</time>
      </trkpt>
      <trkpt lat="44.52025" lon="1.38338">
        <ele>140.3</ele>
        <time>2018-06-24T14:38:18Z</time>
      </trkpt>
      <trkpt lat="44.5202" lon="1.38336">
        <ele>140.2</ele>
        <time>2018-06-24T14:38:22Z</time>
      </trkpt>
      <trkpt lat="44.52015" lon="1.38333">
        <ele>140.1</ele>
        <time>2018-06-24T14:38:27Z</time>
      </trkpt>
      <trkpt lat="44.5201" lon="1.38332">
        <ele>140.1</ele>
        <time>2018-06-24T14:38:33Z</time>
      </trkpt>
      <trkpt lat="44.52005" lon="1.3833">
        <ele>140.2</ele>
        <time>2018-06-24T14:38:36Z</time>
      </trkpt>
      <trkpt lat="44.52" lon="1.38329">
        <ele>140.2</ele>
        <time>2018-06-24T14:38:41Z</time>
      </trkpt>
      <trkpt lat="44.51995" lon="1.38326">
        <ele>140.1</ele>
        <time>2018-06-24T14:38:46Z</time>
      </trkpt>
      <trkpt lat="44.51991" lon="1.38324">
        <ele>139.9</ele>
        <time>2018-06-24T14:38:51Z</time>
      </trkpt>
      <trkpt lat="44.51985" lon="1.38322">
        <ele>139.7</ele>
        <time>2018-06-24T14:38:55Z</time>
      </trkpt>
      <trkpt lat="44.5198" lon="1.38319">
        <ele>139.4</ele>
        <time>2018-06-24T14:38:59Z</time>
      </trkpt>
      <trkpt lat="44.51976" lon="1.38318">
        <ele>139.3</ele>
        <time>2018-06-24T14:39:04Z</time>
      </trkpt>
      <trkpt lat="44.51971" lon="1.38318">
        <ele>139.2</ele>
        <time>2018-06-24T14:39:09Z</time>
      </trkpt>
      <trkpt lat="44.51966" lon="1.38317">
        <ele>139.3</ele>
        <time>2018-06-24T14:39:14Z</time>
      </trkpt>
      <trkpt lat="44.5196" lon="1.38314">
        <ele>139.4</ele>
        <time>2018-06-24T14:39:18Z</time>
      </trkpt>
      <trkpt lat="44.51955" lon="1.38314">
        <ele>139.3</ele>
        <time>2018-06-24T14:39:23Z</time>
      </trkpt>
      <trkpt lat="44.5195" lon="1.38311">
        <ele>139.2</ele>
        <time>2018-06-24T14:39:28Z</time>
      </trkpt>
      <trkpt lat="44.51946" lon="1.3831">
        <ele>139</ele>
        <time>2018-06-24T14:39:32Z</time>
      </trkpt>
      <trkpt lat="44.5194" lon="1.38308">
        <ele>138.8</ele>
        <time>2018-06-24T14:39:37Z</time>
      </trkpt>
      <trkpt lat="44.51935" lon="1.38305">
        <ele>138.6</ele>
        <time>2018-06-24T14:39:41Z</time>
      </trkpt>
      <trkpt lat="44.5193" lon="1.38304">
        <ele>138.6</ele>
        <time>2018-06-24T14:39:46Z</time>
      </trkpt>
      <trkpt lat="44.51925" lon="1.38302">
        <ele>138.6</ele>
        <time>2018-06-24T14:39:49Z</time>
      </trkpt>
      <trkpt lat="44.51921" lon="1.38301">
        <ele>138.6</ele>
        <time>2018-06-24T14:39:53Z</time>
      </trkpt>
      <trkpt lat="44.51915" lon="1.383">
        <ele>138.5</ele>
        <time>2018-06-24T14:39:58Z</time>
      </trkpt>
      <trkpt lat="44.5191" lon="1.383">
        <ele>138.5</ele>
        <time>2018-06-24T14:40:03Z</time>
      </trkpt>
      <trkpt lat="44.51905" lon="1.38301">
        <ele>138.4</ele>
        <time>2018-06-24T14:40:07Z</time>
      </trkpt>
      <trkpt lat="44.519" lon="1.38301">
        <ele>138.2</ele>
        <time>2018-06-24T14:40:12Z</time>
      </trkpt>
      <trkpt lat="44.51895" lon="1.383">
        <ele>138.1</ele>
        <time>2018-06-24T14:40:16Z</time>
      </trkpt>
      <trkpt lat="44.5189" lon="1.38299">
        <ele>137.9</ele>
        <time>2018-06-24T14:40:21Z</time>
      </trkpt>
      <trkpt lat="44.51885" lon="1.38297">
        <ele>137.8</ele>
        <time>2018-06-24T14:40:25Z</time>
      </trkpt>
      <trkpt lat="44.5188" lon="1.38294">
        <ele>137.7</ele>
        <time>2018-06-24T14:40:30Z</time>
      </trkpt>
      <trkpt lat="44.51875" lon="1.38293">
        <ele>137.7</ele>
        <time>2018-06-24T14:40:34Z</time>
      </trkpt>
      <trkpt lat="44.5187" lon="1.38292">
        <ele>137.6</ele>
        <time>2018-06-24T14:40:39Z</time>
      </trkpt>
      <trkpt lat="44.51866" lon="1.38291">
        <ele>137.4</ele>
        <time>2018-06-24T14:40:43Z</time>
      </trkpt>
      <trkpt lat="44.51861" lon="1.38288">
        <ele>137.2</ele>
        <time>2018-06-24T14:40:47Z</time>
      </trkpt>
      <trkpt lat="44.51856" lon="1.38287">
        <ele>137</ele>
        <time>2018-06-24T14:40:52Z</time>
      </trkpt>
      <trkpt lat="44.51851" lon="1.38284">
        <ele>136.9</ele>
        <time>2018-06-24T14:40:56Z</time>
      </trkpt>
      <trkpt lat="44.51847" lon="1.38281">
        <ele>136.9</ele>
        <time>2018-06-24T14:41:01Z</time>
      </trkpt>
      <trkpt lat="44.51842" lon="1.38278">
        <ele>137</ele>
        <time>2018-06-24T14:41:05Z</time>
      </trkpt>
      <trkpt lat="44.51837" lon="1.38275">
        <ele>137</ele>
        <time>2018-06-24T14:41:11Z</time>
      </trkpt>
      <trkpt lat="44.51832" lon="1.38271">
        <ele>137.2</ele>
        <time>2018-06-24T14:41:16Z</time>
      </trkpt>
      <trkpt lat="44.51827" lon="1.3827">
        <ele>137.3</ele>
        <time>2018-06-24T14:41:20Z</time>
      </trkpt>
      <trkpt lat="44.51822" lon="1.38269">
        <ele>137.5</ele>
        <time>2018-06-24T14:41:23Z</time>
      </trkpt>
      <trkpt lat="44.51817" lon="1.38267">
        <ele>137.6</ele>
        <time>2018-06-24T14:41:27Z</time>
      </trkpt>
      <trkpt lat="44.51812" lon="1.38264">
        <ele>137.7</ele>
        <time>2018-06-24T14:41:31Z</time>
      </trkpt>
      <trkpt lat="44.51807" lon="1.38262">
        <ele>137.7</ele>
        <time>2018-06-24T14:41:35Z</time>
      </trkpt>
      <trkpt lat="44.51802" lon="1.38261">
        <ele>137.5</ele>
        <time>2018-06-24T14:41:40Z</time>
      </trkpt>
      <trkpt lat="44.51798" lon="1.38258">
        <ele>137.4</ele>
        <time>2018-06-24T14:41:44Z</time>
      </trkpt>
      <trkpt lat="44.51794" lon="1.38254">
        <ele>137.2</ele>
        <time>2018-06-24T14:41:49Z</time>
      </trkpt>
      <trkpt lat="44.5179" lon="1.38249">
        <ele>137</ele>
        <time>2018-06-24T14:41:53Z</time>
      </trkpt>
      <trkpt lat="44.51785" lon="1.38244">
        <ele>136.9</ele>
        <time>2018-06-24T14:41:58Z</time>
      </trkpt>
      <trkpt lat="44.51781" lon="1.38241">
        <ele>136.8</ele>
        <time>2018-06-24T14:42:03Z</time>
      </trkpt>
      <trkpt lat="44.51777" lon="1.38238">
        <ele>136.7</ele>
        <time>2018-06-24T14:42:07Z</time>
      </trkpt>
      <trkpt lat="44.51773" lon="1.38234">
        <ele>136.6</ele>
        <time>2018-06-24T14:42:12Z</time>
      </trkpt>
      <trkpt lat="44.51768" lon="1.38231">
        <ele>136.6</ele>
        <time>2018-06-24T14:42:16Z</time>
      </trkpt>
      <trkpt lat="44.51763" lon="1.38228">
        <ele>136.6</ele>
        <time>2018-06-24T14:42:22Z</time>
      </trkpt>
      <trkpt lat="44.51758" lon="1.38226">
        <ele>136.9</ele>
        <time>2018-06-24T14:42:27Z</time>
      </trkpt>
      <trkpt lat="44.51754" lon="1.38222">
        <ele>137.3</ele>
        <time>2018-06-24T14:42:31Z</time>
      </trkpt>
      <trkpt lat="44.51749" lon="1.38219">
        <ele>137.7</ele>
        <time>2018-06-24T14:42:35Z</time>
      </trkpt>
      <trkpt lat="44.51745" lon="1.38217">
        <ele>138.2</ele>
        <time>2018-06-24T14:42:39Z</time>
      </trkpt>
      <trkpt lat="44.5174" lon="1.38215">
        <ele>138.6</ele>
        <time>2018-06-24T14:42:43Z</time>
      </trkpt>
      <trkpt lat="44.51736" lon="1.38213">
        <ele>139</ele>
        <time>2018-06-24T14:42:47Z</time>
      </trkpt>
      <trkpt lat="44.51731" lon="1.3821">
        <ele>139.3</ele>
        <time>2018-06-24T14:42:52Z</time>
      </trkpt>
      <trkpt lat="44.51728" lon="1.38206">
        <ele>139.5</ele>
        <time>2018-06-24T14:42:57Z</time>
      </trkpt>
      <trkpt lat="44.51724" lon="1.38202">
        <ele>139.7</ele>
        <time>2018-06-24T14:43:01Z</time>
      </trkpt>
      <trkpt lat="44.51719" lon="1.38197">
        <ele>139.8</ele>
        <time>2018-06-24T14:43:06Z</time>
      </trkpt>
      <trkpt lat="44.51715" lon="1.38194">
        <ele>139.9</ele>
        <time>2018-06-24T14:43:09Z</time>
      </trkpt>
      <trkpt lat="44.5171" lon="1.38192">
        <ele>139.9</ele>
        <time>2018-06-24T14:43:13Z</time>
      </trkpt>
      <trkpt lat="44.51706" lon="1.38189">
        <ele>139.9</ele>
        <time>2018-06-24T14:43:17Z</time>
      </trkpt>
      <trkpt lat="44.51701" lon="1.38185">
        <ele>139.8</ele>
        <time>2018-06-24T14:43:21Z</time>
      </trkpt>
      <trkpt lat="44.51697" lon="1.38182">
        <ele>139.6</ele>
        <time>2018-06-24T14:43:25Z</time>
      </trkpt>
      <trkpt lat="44.51692" lon="1.38178">
        <ele>139.6</ele>
        <time>2018-06-24T14:43:30Z</time>
      </trkpt>
      <trkpt lat="44.51687" lon="1.38177">
        <ele>139.6</ele>
        <time>2018-06-24T14:43:34Z</time>
      </trkpt>
      <trkpt lat="44.51682" lon="1.38173">
        <ele>139.7</ele>
        <time>2018-06-24T14:43:38Z</time>
      </trkpt>
      <trkpt lat="44.51678" lon="1.38171">
        <ele>139.9</ele>
        <time>2018-06-24T14:43:41Z</time>
      </trkpt>
      <trkpt lat="44.51673" lon="1.38168">
        <ele>140.1</ele>
        <time>2018-06-24T14:43:46Z</time>
      </trkpt>
      <trkpt lat="44.51669" lon="1.38164">
        <ele>140.1</ele>
        <time>2018-06-24T14:43:50Z</time>
      </trkpt>
      <trkpt lat="44.51665" lon="1.38159">
        <ele>140.2</ele>
        <time>2018-06-24T14:43:55Z</time>
      </trkpt>
      <trkpt lat="44.5166" lon="1.38157">
        <ele>140.2</ele>
        <time>2018-06-24T14:43:59Z</time>
      </trkpt>
      <trkpt lat="44.51655" lon="1.38154">
        <ele>140.1</ele>
        <time>2018-06-24T14:44:03Z</time>
      </trkpt>
      <trkpt lat="44.51651" lon="1.38151">
        <ele>140</ele>
        <time>2018-06-24T14:44:07Z</time>
      </trkpt>
      <trkpt lat="44.51647" lon="1.38147">
        <ele>139.9</ele>
        <time>2018-06-24T14:44:12Z</time>
      </trkpt>
      <trkpt lat="44.51643" lon="1.38141">
        <ele>139.7</ele>
        <time>2018-06-24T14:44:19Z</time>
      </trkpt>
      <trkpt lat="44.51638" lon="1.38138">
        <ele>139.6</ele>
        <time>2018-06-24T14:44:23Z</time>
      </trkpt>
      <trkpt lat="44.51634" lon="1.38134">
        <ele>139.7</ele>
        <time>2018-06-24T14:44:28Z</time>
      </trkpt>
      <trkpt lat="44.51629" lon="1.3813">
        <ele>139.8</ele>
        <time>2018-06-24T14:44:32Z</time>
      </trkpt>
      <trkpt lat="44.51625" lon="1.38127">
        <ele>140</ele>
        <time>2018-06-24T14:44:37Z</time>
      </trkpt>
      <trkpt lat="44.51621" lon="1.38126">
        <ele>139.8</ele>
        <time>2018-06-24T14:44:46Z</time>
      </trkpt>
      <trkpt lat="44.51625" lon="1.38123">
        <ele>139.5</ele>
        <time>2018-06-24T14:45:15Z</time>
      </trkpt>
      <trkpt lat="44.5162" lon="1.38121">
        <ele>139</ele>
        <time>2018-06-24T14:45:49Z</time>
      </trkpt>
      <trkpt lat="44.51618" lon="1.38126">
        <ele>138.6</ele>
        <time>2018-06-24T14:46:24Z</time>
      </trkpt>
      <trkpt lat="44.51617" lon="1.38119">
        <ele>138.2</ele>
        <time>2018-06-24T14:47:49Z</time>
      </trkpt>
      <trkpt lat="44.51612" lon="1.38119">
        <ele>138.3</ele>
        <time>2018-06-24T14:48:09Z</time>
      </trkpt>
      <trkpt lat="44.51606" lon="1.38117">
        <ele>138.6</ele>
        <time>2018-06-24T14:48:14Z</time>
      </trkpt>
      <trkpt lat="44.516" lon="1.38117">
        <ele>138.8</ele>
        <time>2018-06-24T14:48:18Z</time>
      </trkpt>
      <trkpt lat="44.51595" lon="1.38115">
        <ele>139</ele>
        <time>2018-06-24T14:48:24Z</time>
      </trkpt>
      <trkpt lat="44.5159" lon="1.38114">
        <ele>139.2</ele>
        <time>2018-06-24T14:48:30Z</time>
      </trkpt>
      <trkpt lat="44.51585" lon="1.38114">
        <ele>139.3</ele>
        <time>2018-06-24T14:48:34Z</time>
      </trkpt>
      <trkpt lat="44.5158" lon="1.38111">
        <ele>139.4</ele>
        <time>2018-06-24T14:48:39Z</time>
      </trkpt>
      <trkpt lat="44.51575" lon="1.38109">
        <ele>139.4</ele>
        <time>2018-06-24T14:48:44Z</time>
      </trkpt>
      <trkpt lat="44.5157" lon="1.38108">
        <ele>139.5</ele>
        <time>2018-06-24T14:48:48Z</time>
      </trkpt>
      <trkpt lat="44.51564" lon="1.38107">
        <ele>139.6</ele>
        <time>2018-06-24T14:48:53Z</time>
      </trkpt>
      <trkpt lat="44.51559" lon="1.38104">
        <ele>139.7</ele>
        <time>2018-06-24T14:48:57Z</time>
      </trkpt>
      <trkpt lat="44.51554" lon="1.38102">
        <ele>139.8</ele>
        <time>2018-06-24T14:49:03Z</time>
      </trkpt>
      <trkpt lat="44.51549" lon="1.38102">
        <ele>139.9</ele>
        <time>2018-06-24T14:49:06Z</time>
      </trkpt>
      <trkpt lat="44.51544" lon="1.381">
        <ele>139.9</ele>
        <time>2018-06-24T14:49:11Z</time>
      </trkpt>
      <trkpt lat="44.5154" lon="1.38099">
        <ele>139.9</ele>
        <time>2018-06-24T14:49:15Z</time>
      </trkpt>
      <trkpt lat="44.51535" lon="1.38097">
        <ele>139.9</ele>
        <time>2018-06-24T14:49:19Z</time>
      </trkpt>
      <trkpt lat="44.51531" lon="1.38092">
        <ele>139.8</ele>
        <time>2018-06-24T14:49:25Z</time>
      </trkpt>
      <trkpt lat="44.5153" lon="1.38085">
        <ele>139.9</ele>
        <time>2018-06-24T14:49:28Z</time>
      </trkpt>
      <trkpt lat="44.5153" lon="1.38079">
        <ele>140</ele>
        <time>2018-06-24T14:49:32Z</time>
      </trkpt>
      <trkpt lat="44.5153" lon="1.38071">
        <ele>140.1</ele>
        <time>2018-06-24T14:49:38Z</time>
      </trkpt>
      <trkpt lat="44.51531" lon="1.38064">
        <ele>140.2</ele>
        <time>2018-06-24T14:49:42Z</time>
      </trkpt>
      <trkpt lat="44.51531" lon="1.38057">
        <ele>140.4</ele>
        <time>2018-06-24T14:49:46Z</time>
      </trkpt>
      <trkpt lat="44.51532" lon="1.3805">
        <ele>140.6</ele>
        <time>2018-06-24T14:49:51Z</time>
      </trkpt>
      <trkpt lat="44.51533" lon="1.38042">
        <ele>140.9</ele>
        <time>2018-06-24T14:49:55Z</time>
      </trkpt>
      <trkpt lat="44.51532" lon="1.38035">
        <ele>141.1</ele>
        <time>2018-06-24T14:49:59Z</time>
      </trkpt>
      <trkpt lat="44.51532" lon="1.38029">
        <ele>141.4</ele>
        <time>2018-06-24T14:50:03Z</time>
      </trkpt>
      <trkpt lat="44.51533" lon="1.38022">
        <ele>141.6</ele>
        <time>2018-06-24T14:50:08Z</time>
      </trkpt>
      <trkpt lat="44.51533" lon="1.38014">
        <ele>141.9</ele>
        <time>2018-06-24T14:50:12Z</time>
      </trkpt>
      <trkpt lat="44.51531" lon="1.38007">
        <ele>142.1</ele>
        <time>2018-06-24T14:50:19Z</time>
      </trkpt>
      <trkpt lat="44.51527" lon="1.38002">
        <ele>142.4</ele>
        <time>2018-06-24T14:50:23Z</time>
      </trkpt>
      <trkpt lat="44.51523" lon="1.37999">
        <ele>142.7</ele>
        <time>2018-06-24T14:50:29Z</time>
      </trkpt>
      <trkpt lat="44.51518" lon="1.37998">
        <ele>143.2</ele>
        <time>2018-06-24T14:50:34Z</time>
      </trkpt>
      <trkpt lat="44.51513" lon="1.37998">
        <ele>143.7</ele>
        <time>2018-06-24T14:50:37Z</time>
      </trkpt>
      <trkpt lat="44.51508" lon="1.37997">
        <ele>144.3</ele>
        <time>2018-06-24T14:50:41Z</time>
      </trkpt>
      <trkpt lat="44.51504" lon="1.37994">
        <ele>144.9</ele>
        <time>2018-06-24T14:50:46Z</time>
      </trkpt>
      <trkpt lat="44.51499" lon="1.37992">
        <ele>145.4</ele>
        <time>2018-06-24T14:50:50Z</time>
      </trkpt>
      <trkpt lat="44.51494" lon="1.37989">
        <ele>145.9</ele>
        <time>2018-06-24T14:50:55Z</time>
      </trkpt>
      <trkpt lat="44.5149" lon="1.37985">
        <ele>146.2</ele>
        <time>2018-06-24T14:51:00Z</time>
      </trkpt>
      <trkpt lat="44.51485" lon="1.37982">
        <ele>146.4</ele>
        <time>2018-06-24T14:51:04Z</time>
      </trkpt>
      <trkpt lat="44.51481" lon="1.3798">
        <ele>146.5</ele>
        <time>2018-06-24T14:51:09Z</time>
      </trkpt>
      <trkpt lat="44.51476" lon="1.37975">
        <ele>146.7</ele>
        <time>2018-06-24T14:51:13Z</time>
      </trkpt>
      <trkpt lat="44.51471" lon="1.37972">
        <ele>146.9</ele>
        <time>2018-06-24T14:51:18Z</time>
      </trkpt>
      <trkpt lat="44.51466" lon="1.37969">
        <ele>147.1</ele>
        <time>2018-06-24T14:51:23Z</time>
      </trkpt>
      <trkpt lat="44.51461" lon="1.37966">
        <ele>147.2</ele>
        <time>2018-06-24T14:51:29Z</time>
      </trkpt>
      <trkpt lat="44.51456" lon="1.37964">
        <ele>147.4</ele>
        <time>2018-06-24T14:51:34Z</time>
      </trkpt>
      <trkpt lat="44.51451" lon="1.3796">
        <ele>147.5</ele>
        <time>2018-06-24T14:51:39Z</time>
      </trkpt>
      <trkpt lat="44.51447" lon="1.37957">
        <ele>147.6</ele>
        <time>2018-06-24T14:51:43Z</time>
      </trkpt>
      <trkpt lat="44.51442" lon="1.37955">
        <ele>147.7</ele>
        <time>2018-06-24T14:51:47Z</time>
      </trkpt>
      <trkpt lat="44.51438" lon="1.37952">
        <ele>147.8</ele>
        <time>2018-06-24T14:51:52Z</time>
      </trkpt>
      <trkpt lat="44.51433" lon="1.37949">
        <ele>148</ele>
        <time>2018-06-24T14:51:56Z</time>
      </trkpt>
      <trkpt lat="44.51429" lon="1.37947">
        <ele>148.3</ele>
        <time>2018-06-24T14:52:00Z</time>
      </trkpt>
      <trkpt lat="44.51424" lon="1.37945">
        <ele>148.4</ele>
        <time>2018-06-24T14:52:04Z</time>
      </trkpt>
      <trkpt lat="44.5142" lon="1.37943">
        <ele>148.4</ele>
        <time>2018-06-24T14:52:08Z</time>
      </trkpt>
      <trkpt lat="44.51416" lon="1.37939">
        <ele>148.5</ele>
        <time>2018-06-24T14:52:12Z</time>
      </trkpt>
      <trkpt lat="44.51412" lon="1.37935">
        <ele>148.4</ele>
        <time>2018-06-24T14:52:16Z</time>
      </trkpt>
      <trkpt lat="44.51408" lon="1.37931">
        <ele>148.3</ele>
        <time>2018-06-24T14:52:22Z</time>
      </trkpt>
      <trkpt lat="44.51403" lon="1.37929">
        <ele>148.4</ele>
        <time>2018-06-24T14:52:26Z</time>
      </trkpt>
      <trkpt lat="44.51399" lon="1.37925">
        <ele>148.5</ele>
        <time>2018-06-24T14:52:30Z</time>
      </trkpt>
      <trkpt lat="44.51395" lon="1.3792">
        <ele>148.7</ele>
        <time>2018-06-24T14:52:35Z</time>
      </trkpt>
      <trkpt lat="44.5139" lon="1.37916">
        <ele>148.9</ele>
        <time>2018-06-24T14:52:40Z</time>
      </trkpt>
      <trkpt lat="44.51386" lon="1.37911">
        <ele>149.2</ele>
        <time>2018-06-24T14:52:43Z</time>
      </trkpt>
      <trkpt lat="44.51383" lon="1.37906">
        <ele>149.4</ele>
        <time>2018-06-24T14:52:50Z</time>
      </trkpt>
      <trkpt lat="44.5138" lon="1.379">
        <ele>149.7</ele>
        <time>2018-06-24T14:52:56Z</time>
      </trkpt>
      <trkpt lat="44.51375" lon="1.37895">
        <ele>150</ele>
        <time>2018-06-24T14:52:59Z</time>
      </trkpt>
      <trkpt lat="44.51371" lon="1.37892">
        <ele>150.2</ele>
        <time>2018-06-24T14:53:04Z</time>
      </trkpt>
      <trkpt lat="44.51367" lon="1.37889">
        <ele>150.4</ele>
        <time>2018-06-24T14:53:09Z</time>
      </trkpt>
      <trkpt lat="44.51363" lon="1.37884">
        <ele>150.6</ele>
        <time>2018-06-24T14:53:14Z</time>
      </trkpt>
      <trkpt lat="44.51359" lon="1.37877">
        <ele>150.8</ele>
        <time>2018-06-24T14:53:19Z</time>
      </trkpt>
      <trkpt lat="44.51355" lon="1.37873">
        <ele>151</ele>
        <time>2018-06-24T14:53:24Z</time>
      </trkpt>
      <trkpt lat="44.51352" lon="1.37867">
        <ele>151.2</ele>
        <time>2018-06-24T14:53:28Z</time>
      </trkpt>
      <trkpt lat="44.51347" lon="1.37863">
        <ele>151.5</ele>
        <time>2018-06-24T14:53:33Z</time>
      </trkpt>
      <trkpt lat="44.51344" lon="1.37859">
        <ele>151.8</ele>
        <time>2018-06-24T14:53:38Z</time>
      </trkpt>
      <trkpt lat="44.51339" lon="1.37854">
        <ele>152.1</ele>
        <time>2018-06-24T14:53:43Z</time>
      </trkpt>
      <trkpt lat="44.51336" lon="1.37849">
        <ele>152.5</ele>
        <time>2018-06-24T14:53:47Z</time>
      </trkpt>
      <trkpt lat="44.51331" lon="1.37847">
        <ele>152.8</ele>
        <time>2018-06-24T14:53:52Z</time>
      </trkpt>
      <trkpt lat="44.51326" lon="1.37842">
        <ele>153.2</ele>
        <time>2018-06-24T14:53:57Z</time>
      </trkpt>
      <trkpt lat="44.51322" lon="1.37838">
        <ele>153.5</ele>
        <time>2018-06-24T14:54:03Z</time>
      </trkpt>
      <trkpt lat="44.51317" lon="1.37836">
        <ele>153.7</ele>
        <time>2018-06-24T14:54:06Z</time>
      </trkpt>
      <trkpt lat="44.51314" lon="1.3783">
        <ele>154</ele>
        <time>2018-06-24T14:54:10Z</time>
      </trkpt>
      <trkpt lat="44.51311" lon="1.37825">
        <ele>154.4</ele>
        <time>2018-06-24T14:54:16Z</time>
      </trkpt>
      <trkpt lat="44.51306" lon="1.37819">
        <ele>155</ele>
        <time>2018-06-24T14:54:21Z</time>
      </trkpt>
      <trkpt lat="44.51303" lon="1.37815">
        <ele>155.6</ele>
        <time>2018-06-24T14:54:27Z</time>
      </trkpt>
      <trkpt lat="44.51299" lon="1.3781">
        <ele>156</ele>
        <time>2018-06-24T14:54:34Z</time>
      </trkpt>
      <trkpt lat="44.51299" lon="1.37803">
        <ele>156.3</ele>
        <time>2018-06-24T14:54:56Z</time>
      </trkpt>
      <trkpt lat="44.51295" lon="1.378">
        <ele>156.5</ele>
        <time>2018-06-24T14:56:20Z</time>
      </trkpt>
      <trkpt lat="44.51294" lon="1.37793">
        <ele>156.3</ele>
        <time>2018-06-24T14:56:27Z</time>
      </trkpt>
      <trkpt lat="44.51292" lon="1.37786">
        <ele>156.3</ele>
        <time>2018-06-24T14:56:33Z</time>
      </trkpt>
      <trkpt lat="44.5129" lon="1.37779">
        <ele>156.5</ele>
        <time>2018-06-24T14:56:37Z</time>
      </trkpt>
      <trkpt lat="44.51287" lon="1.37773">
        <ele>156.8</ele>
        <time>2018-06-24T14:56:42Z</time>
      </trkpt>
      <trkpt lat="44.51285" lon="1.37765">
        <ele>157.2</ele>
        <time>2018-06-24T14:56:48Z</time>
      </trkpt>
      <trkpt lat="44.51283" lon="1.37759">
        <ele>157.5</ele>
        <time>2018-06-24T14:56:53Z</time>
      </trkpt>
      <trkpt lat="44.5128" lon="1.37753">
        <ele>157.9</ele>
        <time>2018-06-24T14:56:58Z</time>
      </trkpt>
      <trkpt lat="44.51276" lon="1.37749">
        <ele>158.4</ele>
        <time>2018-06-24T14:57:04Z</time>
      </trkpt>
      <trkpt lat="44.51273" lon="1.37743">
        <ele>158.9</ele>
        <time>2018-06-24T14:57:12Z</time>
      </trkpt>
      <trkpt lat="44.51271" lon="1.37736">
        <ele>159.3</ele>
        <time>2018-06-24T14:57:17Z</time>
      </trkpt>
      <trkpt lat="44.51268" lon="1.37729">
        <ele>159.7</ele>
        <time>2018-06-24T14:57:21Z</time>
      </trkpt>
      <trkpt lat="44.51266" lon="1.37723">
        <ele>160.1</ele>
        <time>2018-06-24T14:57:25Z</time>
      </trkpt>
      <trkpt lat="44.51265" lon="1.37716">
        <ele>160.3</ele>
        <time>2018-06-24T14:57:32Z</time>
      </trkpt>
      <trkpt lat="44.51262" lon="1.37711">
        <ele>160.4</ele>
        <time>2018-06-24T14:57:44Z</time>
      </trkpt>
      <trkpt lat="44.51258" lon="1.37707">
        <ele>160.4</ele>
        <time>2018-06-24T14:57:48Z</time>
      </trkpt>
      <trkpt lat="44.51255" lon="1.37702">
        <ele>160.5</ele>
        <time>2018-06-24T14:57:53Z</time>
      </trkpt>
      <trkpt lat="44.51253" lon="1.37697">
        <ele>160.6</ele>
        <time>2018-06-24T14:57:57Z</time>
      </trkpt>
      <trkpt lat="44.5125" lon="1.3769">
        <ele>160.7</ele>
        <time>2018-06-24T14:58:02Z</time>
      </trkpt>
      <trkpt lat="44.51247" lon="1.37687">
        <ele>160.8</ele>
        <time>2018-06-24T14:58:08Z</time>
      </trkpt>
      <trkpt lat="44.51243" lon="1.37683">
        <ele>161</ele>
        <time>2018-06-24T14:58:23Z</time>
      </trkpt>
      <trkpt lat="44.51241" lon="1.37677">
        <ele>161</ele>
        <time>2018-06-24T14:58:27Z</time>
      </trkpt>
      <trkpt lat="44.51239" lon="1.37671">
        <ele>161.1</ele>
        <time>2018-06-24T14:58:31Z</time>
      </trkpt>
      <trkpt lat="44.51237" lon="1.37664">
        <ele>161.3</ele>
        <time>2018-06-24T14:58:36Z</time>
      </trkpt>
      <trkpt lat="44.51236" lon="1.37658">
        <ele>161.6</ele>
        <time>2018-06-24T14:58:41Z</time>
      </trkpt>
      <trkpt lat="44.51236" lon="1.3765">
        <ele>161.7</ele>
        <time>2018-06-24T14:58:45Z</time>
      </trkpt>
      <trkpt lat="44.51236" lon="1.37643">
        <ele>161.8</ele>
        <time>2018-06-24T14:58:50Z</time>
      </trkpt>
      <trkpt lat="44.51235" lon="1.37637">
        <ele>161.8</ele>
        <time>2018-06-24T14:59:07Z</time>
      </trkpt>
      <trkpt lat="44.51233" lon="1.37631">
        <ele>161.7</ele>
        <time>2018-06-24T14:59:13Z</time>
      </trkpt>
      <trkpt lat="44.51231" lon="1.37624">
        <ele>161.6</ele>
        <time>2018-06-24T14:59:20Z</time>
      </trkpt>
      <trkpt lat="44.51229" lon="1.37618">
        <ele>161.5</ele>
        <time>2018-06-24T14:59:26Z</time>
      </trkpt>
      <trkpt lat="44.51227" lon="1.37612">
        <ele>161.4</ele>
        <time>2018-06-24T14:59:31Z</time>
      </trkpt>
      <trkpt lat="44.51225" lon="1.37606">
        <ele>161.1</ele>
        <time>2018-06-24T14:59:49Z</time>
      </trkpt>
      <trkpt lat="44.51223" lon="1.376">
        <ele>160.7</ele>
        <time>2018-06-24T14:59:54Z</time>
      </trkpt>
      <trkpt lat="44.5122" lon="1.37594">
        <ele>160.3</ele>
        <time>2018-06-24T14:59:58Z</time>
      </trkpt>
      <trkpt lat="44.51218" lon="1.37588">
        <ele>159.8</ele>
        <time>2018-06-24T15:00:08Z</time>
      </trkpt>
      <trkpt lat="44.51214" lon="1.37587">
        <ele>159.4</ele>
        <time>2018-06-24T15:00:28Z</time>
      </trkpt>
      <trkpt lat="44.51212" lon="1.37594">
        <ele>159</ele>
        <time>2018-06-24T15:00:35Z</time>
      </trkpt>
      <trkpt lat="44.5121" lon="1.376">
        <ele>158.5</ele>
        <time>2018-06-24T15:00:40Z</time>
      </trkpt>
      <trkpt lat="44.51207" lon="1.37606">
        <ele>158.1</ele>
        <time>2018-06-24T15:00:45Z</time>
      </trkpt>
      <trkpt lat="44.51203" lon="1.37609">
        <ele>157.7</ele>
        <time>2018-06-24T15:00:53Z</time>
      </trkpt>
      <trkpt lat="44.51199" lon="1.37614">
        <ele>157.2</ele>
        <time>2018-06-24T15:01:01Z</time>
      </trkpt>
      <trkpt lat="44.51195" lon="1.37613">
        <ele>156.7</ele>
        <time>2018-06-24T15:01:07Z</time>
      </trkpt>
      <trkpt lat="44.5119" lon="1.37615">
        <ele>156.3</ele>
        <time>2018-06-24T15:01:11Z</time>
      </trkpt>
      <trkpt lat="44.51185" lon="1.37616">
        <ele>155.7</ele>
        <time>2018-06-24T15:01:15Z</time>
      </trkpt>
      <trkpt lat="44.5118" lon="1.37617">
        <ele>155.1</ele>
        <time>2018-06-24T15:01:20Z</time>
      </trkpt>
      <trkpt lat="44.51175" lon="1.3762">
        <ele>154.5</ele>
        <time>2018-06-24T15:01:27Z</time>
      </trkpt>
      <trkpt lat="44.5117" lon="1.37622">
        <ele>153.9</ele>
        <time>2018-06-24T15:01:30Z</time>
      </trkpt>
      <trkpt lat="44.51165" lon="1.37624">
        <ele>153.3</ele>
        <time>2018-06-24T15:01:34Z</time>
      </trkpt>
      <trkpt lat="44.51161" lon="1.37627">
        <ele>152.7</ele>
        <time>2018-06-24T15:01:38Z</time>
      </trkpt>
      <trkpt lat="44.51156" lon="1.3763">
        <ele>152</ele>
        <time>2018-06-24T15:01:43Z</time>
      </trkpt>
      <trkpt lat="44.51152" lon="1.37633">
        <ele>152.7</ele>
        <time>2018-06-24T15:01:47Z</time>
      </trkpt>
      <trkpt lat="44.51147" lon="1.37635">
        <ele>152.2</ele>
        <time>2018-06-24T15:01:51Z</time>
      </trkpt>
      <trkpt lat="44.51143" lon="1.37637">
        <ele>151.5</ele>
        <time>2018-06-24T15:01:57Z</time>
      </trkpt>
      <trkpt lat="44.51138" lon="1.37633">
        <ele>150.4</ele>
        <time>2018-06-24T15:02:07Z</time>
      </trkpt>
    </trkseg>
  </trk>
</gpx>